[[{"header":{"parameterUnit":"m.s-1","parameterCategory":1,"la1":31.0,"la2":29.5877,"lo1":-88.7671,"lo2":-86.6584,"dy":0.0162,"dx":0.0185,"nx":115,"ny":88,"refTime":"2024-03-05T06:00:00:Z","depth":0,"parameterNumber":2,"parameterNumberName":"U-component_of_WINDS"},"data":[0.0,0.0,0.0,0.0,0.0,0.0,0.0,0.0,0.0,0.0,0.0,0.0,0.0,0.0,0.0,0.0,0.0,0.0,0.0,0.0,0.0,0.0,0.0,0.0,0.0,0.0,0.0,0.0,0.0,0.0,0.0,0.0,0.0,0.0,0.0,0.0,0.0,0.0,0.0,0.0,0.0,0.0,0.0,0.0,0.0,0.0,0.0,0.0,0.0,0.0,0.0,0.0,0.0,0.0,0.0,0.0,0.0,0.0,0.0,0.0,0.0,0.0,0.0,0.0,0.0,0.0,0.0,0.0,0.0,0.0,0.0,0.0,0.0,0.0,0.0,0.0,0.0,0.0,0.0,0.0,0.0,0.0,0.0,0.0,0.0,0.0,0.0,0.0,0.0,0.0,0.0,0.0,0.0,0.0,0.0,0.0,0.0,0.0,0.0,0.0,0.0,0.0,0.0,0.0,0.0,0.0,0.0,0.0,0.0,0.0,0.0,0.0,0.0,0.0,0.0,0.0,0.0,0.0,0.0,0.0,0.0,0.0,0.0,0.0,0.0,0.0,0.0,0.0,0.0,0.0,0.0,0.0,0.0,0.0,0.0,0.0,0.0,0.0,0.0,0.0,0.0,0.0,0.0,0.0,0.0,0.0,0.0,0.0,0.0,0.0,0.0,0.0,0.0,0.0,0.0,0.0,0.0,0.0,0.0,0.0,0.0,0.0,0.0,0.0,0.0,0.0,0.0,0.0,0.0,0.0,0.0,0.0,0.0,0.0,0.0,0.0,0.0,0.0,0.0,0.0,0.0,0.0,0.0,0.0,0.0,0.0,0.0,0.0,0.0,0.0,0.0,0.0,0.0,0.0,0.0,0.0,0.0,0.0,0.0,0.0,0.0,0.0,0.0,0.0,0.0,0.0,0.0,0.0,0.0,0.0,0.0,0.0,0.0,0.0,0.0,0.0,0.0,0.0,0.0,0.0,0.0,0.0,0.0,0.0,0.0,0.0,0.0,0.0,0.0,0.0,0.0,0.0,0.0,0.0,0.0,0.0,0.0,0.0,0.0,0.0,0.0,0.0,0.0,0.0,0.0,0.0,0.0,0.0,0.0,0.0,0.0,0.0,0.0,0.0,0.0,0.0,0.0,0.0,0.0,0.0,0.0,0.0,0.0,0.0,0.0,0.0,0.0,0.0,0.0,0.0,0.0,0.0,0.0,0.0,0.0,0.0,0.0,0.0,0.0,0.0,0.0,0.0,0.0,0.0,0.0,0.0,0.0,0.0,0.0,0.0,0.0,0.0,0.0,0.0,0.0,0.0,0.0,0.0,0.0,0.0,0.0,0.0,0.0,0.0,0.0,0.0,0.0,0.0,0.0,0.0,0.0,0.0,0.0,0.0,0.0,0.0,0.0,0.0,0.0,0.0,0.0,0.0,0.0,0.0,0.0,0.0,0.0,0.0,0.0,0.0,0.0,0.0,0.0,0.0,0.0,0.0,0.0,0.0,0.0,0.0,0.0,0.0,0.0,0.0,0.0,0.0,0.0,0.0,0.0,0.0,0.0,0.0,0.0,0.0,0.0,0.0,0.0,0.0,0.0,0.0,0.0,0.0,0.0,0.0,0.0,0.0,0.0,0.0,0.0,0.0,0.0,0.0,0.0,0.0,0.0,0.0,0.0,0.0,0.0,0.0,0.0,0.0,0.0,0.0,0.0,0.0,0.0,0.0,0.0,0.0,0.0,0.0,0.0,0.0,0.0,0.0,0.0,0.0,0.0,0.0,0.0,0.0,0.0,0.0,0.0,0.0,0.0,0.0,0.0,0.0,0.0,0.0,0.0,0.0,0.0,0.0,0.0,0.0,0.0,0.0,0.0,0.0,0.0,0.0,0.0,0.0,0.0,0.0,0.0,0.0,0.0,0.0,0.0,0.0,0.0,0.0,0.0,0.0,0.0,0.0,0.0,0.0,0.0,0.0,0.0,0.0,0.0,0.0,0.0,0.0,0.0,0.0,0.0,0.0,0.0,0.0,0.0,0.0,0.0,0.0,0.0,0.0,0.0,0.0,0.0,0.0,0.0,0.0,0.0,0.0,0.0,0.0,0.0,0.0,0.0,0.0,0.0,0.0,0.0,0.0,0.0,0.0,0.0,0.0,0.0,0.0,0.0,0.0,0.0,0.0,0.0,0.0,0.0,0.0,0.0,0.0,0.0,0.0,0.0,0.0,0.0,0.0,0.0,0.0,0.0,0.0,0.0,0.0,0.0,0.0,0.0,0.0,0.0,0.0,0.0,0.0,0.0,0.0,0.0,0.0,0.0,0.0,0.0,0.0,0.0,0.0,0.0,0.0,0.0,0.0,0.0,0.0,0.0,0.0,0.0,0.0,0.0,0.0,0.0,0.0,0.0,0.0,0.0,0.0,0.0,0.0,0.0,0.0,0.0,0.0,0.0,0.0,0.0,0.0,0.0,0.0,0.0,0.0,0.0,0.0,0.0,0.0,0.0,0.0,0.0,0.0,0.0,0.0,0.0,0.0,0.0,0.0,0.0,0.0,0.0,0.0,0.0,0.0,0.0,0.0,0.0,0.0,0.0,0.0,0.0,0.0,0.0,0.0,0.0,0.0,0.0,0.0,0.0,0.0,0.0,0.0,0.0,0.0,0.0,0.0,0.0,0.0,0.0,0.0,0.0,0.0,0.0,0.0,0.0,0.0,0.0,0.0,0.0,0.0,0.0,0.0,0.0,0.0,0.0,0.0,0.0,0.0,0.0,0.0,0.0,0.0,0.0,0.0,0.0,0.0,0.0,0.0,0.0,0.0,0.0,0.0,0.0,0.0,0.0,0.0,0.0,0.0,0.0,0.0,0.0,0.0,0.0,0.0,0.0,0.0,0.0,0.0,0.0,0.0,0.0,0.0,0.0,0.0,0.0,0.0,0.0,0.0,0.0,0.0,0.0,0.0,0.0,0.0,0.0,0.0,0.0,0.0,0.0,0.0,0.0,0.0,0.0,0.0,0.0,0.0,0.0,0.0,0.0,0.0,0.0,0.0,0.0,0.0,0.0,0.0,0.0,0.0,0.0,0.0,0.0,0.0,0.0,0.0,0.0,0.0,0.0,0.0,0.0,0.0,0.0,0.0,0.0,0.0,0.0,0.0,0.0,0.0,0.0,0.0,0.0,0.0,0.0,0.0,0.0,0.0,0.0,0.0,0.0,0.0,0.0,0.0,0.0,0.0,0.0,0.0,0.0,0.0,0.0,0.0,0.0,0.0,0.0,0.0,0.0,0.0,0.0,0.0,0.0,0.0,0.0,0.0,0.0,0.0,0.0,0.0,0.0,0.0,0.0,0.0,0.0,0.0,0.0,0.0,0.0,0.0,0.0,0.0,0.0,0.0,0.0,0.0,0.0,0.0,0.0,0.0,0.0,0.0,0.0,0.0,0.0,0.0,0.0,0.0,0.0,0.0,0.0,0.0,0.0,0.0,0.0,0.0,0.0,0.0,0.0,0.0,0.0,0.0,0.0,0.0,0.0,0.0,0.0,0.0,0.0,0.0,0.0,0.0,0.0,0.0,0.0,0.0,0.0,0.0,0.0,0.0,0.0,0.0,0.0,0.0,0.0,0.0,0.0,0.0,0.0,0.0,0.0,0.0,0.0,0.0,0.0,0.0,0.0,0.0,0.0,0.0,0.0,0.0,0.0,0.0,0.0,0.0,0.0,0.0,0.0,0.0,0.0,0.0,0.0,0.0,0.0,0.0,0.0,0.0,0.0,0.0,0.0,0.0,0.0,0.0,0.0,0.0,0.0,0.0,0.0,0.0,0.0,0.0,0.0,0.0,0.0,0.0,0.0,0.0,0.0,0.0,0.0,0.0,0.0,0.0,0.0,0.0,0.0,0.0,0.0,0.0,0.0,0.0,0.0,0.0,0.0,0.0,0.0,0.0,0.0,0.0,0.0,0.0,0.0,0.0,0.0,0.0,0.0,0.0,0.0,0.0,0.0,0.0,0.0,0.0,0.0,0.0,0.0,0.0,0.0,0.0,0.0,0.0,0.0,0.0,0.0,0.0,0.0,0.0,0.0,0.0,0.0,0.0,0.0,0.0,0.0,0.0,0.0,0.0,0.0,0.0,0.0,0.0,0.0,0.0,0.0,0.0,0.0,0.0,0.0,0.0,0.0,0.0,0.0,0.0,0.0,0.0,0.0,0.0,0.0,0.0,0.0,0.0,0.0,0.0,0.0,0.0,0.0,0.0,0.0,0.0,0.0,0.0,0.0,0.0,0.0,0.0,0.7336,0.0,0.0,0.0,0.0,0.0,0.0,0.0,0.0,0.0,0.0,0.0,0.0,0.0,0.0,0.0,0.0,0.0,0.0,0.0,0.0,0.0,0.0,0.0,0.0,0.0,0.0,0.0,0.0,0.0,0.0,0.0,0.0,0.0,0.0,0.0,0.0,0.0,0.0,0.0,0.0,0.0,0.0,0.0,0.0,0.0,0.0,0.0,0.0,0.0,0.0,0.0,0.0,0.0,0.0,0.0,0.0,0.0,0.0,0.0,0.0,0.0,0.0,0.0,0.0,0.0,0.0,0.0,0.0,0.0,0.0,0.0,0.0,0.0,0.0,0.0,0.0,0.0,0.0,0.0,0.0,0.0,0.0,0.0,0.0,0.0,0.0,0.0,0.0,0.0,0.0,0.0,0.0,0.0,0.0,0.0,0.0,0.0,0.0,0.0,0.0,0.0,0.0,0.0,0.0,0.0,0.0,0.0,0.0,0.0,0.0,0.7695,0.7695,0.7598,0.7415,0.7149,0.0,0.0,0.0,0.0,0.0,0.0,0.0,0.0,0.0,0.0,0.0,0.0,0.0,0.0,0.0,0.0,0.0,0.0,0.0,0.0,0.0,0.0,0.0,0.0,0.0,0.0,0.0,0.0,0.0,0.0,0.0,0.0,0.0,0.0,0.0,0.0,0.0,0.0,0.0,0.0,0.0,0.0,0.0,0.0,0.0,0.0,0.0,0.0,0.0,0.0,0.0,0.0,0.0,0.0,0.0,0.0,0.0,0.0,0.0,0.0,0.0,0.0,0.0,0.0,0.0,0.0,0.0,0.0,0.0,0.0,0.0,0.0,0.0,0.0,0.0,0.0,0.0,0.0,0.0,0.0,0.0,0.0,0.0,0.0,0.0,0.0,0.0,0.0,0.0,0.0,0.0,0.0,0.0,0.0,0.0,0.0,0.0,0.0,0.0,0.0,0.0,0.0,0.0,0.0,0.0,0.0,0.0,0.0,0.0,0.0,0.0,0.0,0.7578,0.7338,0.6943,0.0,0.0,0.0,0.0,0.0,0.0,0.0,0.0,0.0,0.0,0.0,0.0,0.0,0.0,0.0,0.0,0.0,0.0,0.0,0.0,0.0,0.0,0.0,0.0,0.0,0.0,0.0,0.0,0.0,0.0,0.0,0.0,0.0,0.0,0.0,0.0,0.0,0.0,0.0,0.0,0.0,0.0,0.0,0.0,0.0,0.0,0.0,0.0,0.0,0.0,0.0,0.0,0.0,0.0,0.0,0.0,0.0,0.0,0.0,0.0,0.0,0.0,0.0,0.0,0.0,0.0,0.0,0.0,0.0,0.0,0.0,0.0,0.0,0.0,0.0,0.0,0.0,0.0,0.0,0.0,0.0,0.0,0.0,0.0,0.0,0.0,0.0,0.0,0.0,0.0,0.0,0.0,0.0,0.0,0.0,0.0,0.0,0.0,0.0,0.0,0.0,0.0,0.0,0.0,0.0,0.0,0.0,0.0,0.0,0.0,0.7773,0.7695,0.7578,0.0,0.7109,0.0,0.0,0.0,0.0,0.0,0.0,0.0,0.0,0.0,0.0,0.0,0.0,0.0,0.0,0.0,0.0,0.0,0.0,0.0,0.0,0.0,0.0,0.0,0.0,0.0,0.0,0.0,0.0,0.0,0.0,0.0,0.0,0.0,0.0,0.0,0.0,0.0,0.0,0.0,0.0,0.0,0.0,0.0,0.0,0.0,0.0,0.0,0.0,0.0,0.0,0.0,0.0,0.0,0.0,0.0,0.0,0.0,0.0,0.0,0.0,0.0,0.0,0.0,0.0,0.0,0.0,0.0,0.0,0.0,0.0,0.0,0.0,0.0,0.0,0.0,0.0,0.0,0.0,0.0,0.0,0.0,0.0,0.0,0.0,0.0,0.0,0.0,0.0,0.0,0.0,0.0,0.0,0.0,0.0,0.0,0.0,0.0,0.0,0.0,0.0,0.0,0.0,0.0,0.0,0.0,0.0,0.0,0.0,0.0,0.0,0.7792,0.7773,0.7569,0.7392,0.0,0.0,0.0,0.0,0.0,0.0,0.0,0.0,0.0,0.0,0.0,0.0,0.0,0.0,0.0,0.0,0.0,0.0,0.0,0.0,0.0,0.0,0.0,0.0,0.0,0.0,0.0,0.0,0.0,0.0,0.0,0.0,0.0,0.0,0.0,0.0,0.0,0.0,0.0,0.0,0.0,0.0,0.0,0.0,0.0,0.0,0.0,0.0,0.0,0.0,0.0,0.0,0.0,0.0,0.0,0.0,0.0,0.0,0.0,0.0,0.0,0.0,0.0,0.0,0.0,0.0,0.0,0.0,0.0,0.0,0.0,0.0,0.0,0.0,0.0,0.0,0.0,0.0,0.0,0.0,0.0,0.0,0.0,0.0,0.0,0.0,0.0,0.0,0.0,0.0,0.0,0.0,0.0,0.0,0.0,0.0,0.0,0.0,0.0,0.0,0.0,0.0,0.0,0.0,0.0,0.0,0.0,0.0,0.0,0.0,0.8004,0.786,0.7773,0.7569,0.7421,0.7273,0.0,0.0,0.0,0.0,0.0,0.0,0.0,0.0,0.0,0.0,0.0,0.0,0.0,0.0,0.0,0.0,0.0,0.0,0.0,0.0,0.0,0.0,0.0,0.0,0.0,0.0,0.0,0.0,0.0,0.0,0.0,0.0,0.0,0.0,0.0,0.0,0.0,0.0,0.0,0.0,0.0,0.0,0.0,0.0,0.0,0.0,0.0,0.0,0.0,0.0,0.0,0.0,0.0,0.0,0.0,0.0,0.0,0.0,0.0,0.0,0.0,0.0,0.0,0.0,0.0,0.0,0.0,0.0,0.0,0.0,0.0,0.0,0.0,0.0,0.0,0.0,0.0,0.0,0.0,0.0,0.0,0.0,0.0,0.0,0.0,0.0,0.0,0.0,0.0,0.0,0.0,0.0,0.0,0.0,0.0,0.0,0.0,0.0,0.0,0.0,0.0,0.0,0.0,0.0,0.0,0.0,0.0,0.0,0.8215,0.8187,0.8025,0.7695,0.7578,0.746,0.0,0.0,0.0,0.0,0.0,0.0,0.0,0.0,0.0,0.0,0.0,0.0,0.0,0.0,0.0,0.0,0.0,0.0,0.0,0.0,0.0,0.0,0.0,0.0,0.0,0.0,0.0,0.0,0.0,0.0,0.0,0.0,0.0,0.0,0.0,0.0,0.0,0.0,0.0,0.0,0.0,0.0,0.0,0.0,0.0,0.0,0.0,0.0,0.0,0.0,0.0,0.0,0.0,0.0,0.0,0.0,0.0,0.0,0.0,0.0,0.0,0.0,0.0,0.0,0.0,0.0,0.0,0.0,0.0,0.0,0.0,0.0,0.0,0.0,0.0,0.0,0.0,0.0,0.0,0.0,0.0,0.0,0.0,0.0,0.0,0.0,0.0,0.0,0.0,0.0,0.0,0.0,0.0,0.0,0.0,0.0,0.0,0.0,0.0,0.0,0.0,0.0,0.0,0.0,0.0,0.0,0.0,0.0,0.0,0.8386,0.8226,0.8015,0.7773,0.7618,0.7549,0.0,0.0,0.0,0.0,0.0,0.0,0.0,0.0,0.0,0.0,0.0,0.0,0.0,0.0,0.0,0.0,0.0,0.0,0.0,0.0,0.0,0.0,0.0,0.0,0.0,0.0,0.0,0.0,0.0,0.0,0.0,0.0,0.0,0.0,0.0,0.0,0.0,0.0,0.0,0.0,0.0,0.0,0.0,0.0,0.0,0.0,0.0,0.0,0.0,0.0,0.0,0.0,0.0,0.0,0.0,0.0,0.0,0.0,0.0,0.0,0.0,0.0,0.0,0.0,0.0,0.0,0.0,0.0,0.0,0.0,0.0,0.0,0.0,0.0,0.0,0.0,0.0,0.0,0.0,0.0,0.0,0.0,0.0,0.0,0.0,0.0,0.0,0.0,0.0,0.0,0.0,0.0,0.0,0.0,0.0,0.0,0.0,0.0,0.0,0.0,0.0,0.0,0.0,0.0,0.0,0.0,0.0,0.0,0.0,0.846,0.0,0.8025,0.785,0.7676,0.7559,0.0,0.0,0.0,0.0,0.0,0.0,0.0,0.0,0.0,0.0,0.0,0.0,0.0,0.0,0.0,0.0,0.0,0.0,0.0,0.0,0.0,0.0,0.0,0.0,0.0,0.0,0.0,0.0,0.0,0.0,0.0,0.0,0.0,0.0,0.0,0.0,0.0,0.0,0.0,0.0,0.0,0.0,0.0,0.0,0.0,0.0,0.0,0.0,0.0,0.0,0.0,0.0,0.0,0.0,0.0,0.0,0.0,0.0,0.0,0.0,0.0,0.0,0.0,0.0,0.0,0.0,0.0,0.0,0.0,0.0,0.0,0.0,0.0,0.0,0.0,0.0,0.0,0.0,0.0,0.0,0.0,0.0,0.0,0.0,0.0,0.0,0.0,0.0,0.0,0.0,0.0,0.0,0.0,0.0,0.0,0.0,0.0,0.0,0.0,0.0,0.0,0.0,0.0,0.0,0.0,0.0,0.0,0.0,0.8533,0.841,0.8215,0.8054,0.7898,0.7724,0.7598,0.0,0.0,0.0,0.0,0.0,0.0,0.0,0.0,0.0,0.0,0.0,0.0,0.0,0.0,0.0,0.0,0.0,0.0,0.0,0.0,0.0,0.0,0.0,0.0,0.0,0.0,0.0,0.0,0.0,0.0,0.0,0.0,0.0,0.0,0.0,0.0,0.0,0.0,0.0,0.0,0.0,0.0,0.0,0.0,0.0,0.0,0.0,0.0,0.0,0.0,0.0,0.0,0.0,0.0,0.0,0.0,0.0,0.0,0.0,0.0,0.0,0.0,0.0,0.0,0.0,0.0,0.0,0.0,0.0,0.0,0.0,0.0,0.0,0.0,0.0,0.0,0.0,0.0,0.0,0.0,0.0,0.0,0.0,0.0,0.0,0.0,0.0,0.0,0.0,0.0,0.0,0.0,0.0,0.0,0.0,0.0,0.0,0.0,0.0,0.0,0.0,0.0,0.0,0.0,0.0,0.0,0.0,0.0,0.0,0.846,0.8319,0.8187,0.8054,0.7831,0.7705,0.0,0.0,0.0,0.0,0.0,0.0,0.0,0.0,0.0,0.0,0.0,0.0,0.0,0.0,0.0,0.0,0.0,0.0,0.0,0.0,0.0,0.0,0.0,0.0,0.0,0.0,0.0,0.0,0.0,0.0,0.0,0.0,0.0,0.0,0.0,0.0,0.0,0.0,0.0,0.0,0.0,0.0,0.0,0.0,0.0,0.0,0.0,0.0,0.0,0.0,0.0,0.0,0.0,0.0,0.0,0.0,0.0,0.0,0.0,0.0,0.0,0.0,0.0,0.0,0.0,0.0,0.0,0.0,0.0,0.0,0.0,0.0,0.0,0.0,0.0,0.0,0.0,0.0,0.0,0.0,0.0,0.0,0.0,0.0,0.0,0.0,0.0,0.0,0.0,0.0,0.0,0.0,0.0,0.0,0.0,0.0,0.0,0.0,0.0,0.0,0.0,0.0,0.0,0.0,0.0,0.0,0.0,0.0,0.0,0.8757,0.8442,0.8244,0.8093,0.7889,0.7734,0.7618,0.0,0.0,0.0,0.0,0.0,0.0,0.0,0.0,0.0,0.0,0.0,0.0,0.0,0.0,0.0,0.0,0.0,0.0,0.0,0.0,0.0,0.0,0.0,0.0,0.0,0.0,0.0,0.0,0.0,0.0,0.0,0.0,0.0,0.0,0.0,0.0,0.0,0.0,0.0,0.0,0.0,0.0,0.0,0.0,0.0,0.0,0.0,0.0,0.0,0.0,0.0,0.0,0.0,0.0,0.0,0.0,0.0,0.0,0.0,0.0,0.0,0.0,0.0,0.0,0.0,0.0,0.0,0.0,0.0,0.0,0.0,0.0,0.0,0.0,0.0,0.0,0.0,0.0,0.0,0.0,0.0,0.0,0.0,0.0,0.0,0.0,0.0,0.0,0.0,0.0,0.0,0.0,0.0,0.0,0.0,0.0,0.0,0.0,0.0,0.0,0.0,0.0,0.0,0.0,0.0,0.0,0.0,0.0,0.9188,0.864,0.8306,0.8203,0.7959,0.7773,0.0,0.0,0.0,0.0,0.0,0.0,0.0,0.0,0.0,0.0,0.0,0.0,0.0,0.0,0.0,0.0,0.0,0.0,0.0,0.0,0.0,0.0,0.0,0.0,0.0,0.0,0.0,0.0,0.0,0.0,0.0,0.0,0.0,0.0,0.0,0.0,0.0,0.0,0.0,0.0,0.0,0.0,0.0,0.0,0.0,0.0,0.0,0.0,0.0,0.0,0.0,0.0,0.0,0.0,0.0,0.0,0.0,0.0,0.0,0.0,0.0,0.0,0.0,0.0,0.0,0.0,0.0,0.0,0.0,0.0,0.0,0.0,0.0,0.0,0.0,0.0,0.0,0.0,0.0,0.0,0.0,0.0,0.0,0.0,0.0,0.0,0.0,0.0,0.0,0.0,0.0,0.0,0.0,0.0,0.0,0.0,0.0,0.0,0.0,0.0,0.0,0.0,0.0,0.0,0.0,0.0,0.0,0.0,0.0,0.9156,0.8969,0.8911,0.9106,0.8611,0.8317,0.0,0.0,0.0,0.0,0.0,0.0,0.0,0.0,0.0,0.0,0.0,0.0,0.0,0.0,0.0,0.0,0.0,0.0,0.0,0.0,0.0,0.0,0.0,0.0,0.0,0.0,0.0,0.0,0.0,0.0,0.0,0.0,0.0,0.0,0.0,0.0,0.0,0.0,0.0,0.0,0.0,0.0,0.0,0.0,0.0,0.0,0.0,0.0,0.0,0.0,0.0,0.0,0.0,0.0,0.0,0.0,0.0,0.0,0.0,0.0,0.0,0.0,0.0,0.0,0.0,0.0,0.0,0.0,0.0,0.0,0.0,0.0,0.0,0.0,0.0,0.0,0.0,0.0,0.0,0.0,0.0,0.0,0.0,0.0,0.0,0.0,0.0,0.0,0.0,0.0,0.0,0.0,0.0,0.0,0.0,0.0,0.0,0.0,0.0,0.0,0.0,0.0,0.0,0.0,0.0,0.0,0.0,0.0,0.9295,0.9669,0.9849,1.0038,1.0228,0.9348,0.8882,0.0,0.0,0.0,0.0,0.0,0.0,0.0,0.0,0.0,0.0,0.0,0.0,0.0,0.0,0.0,0.0,0.0,0.0,0.0,0.0,0.0,0.0,0.0,0.0,0.0,0.0,0.0,0.0,0.0,0.0,0.0,0.0,0.0,0.0,0.0,0.0,0.0,0.0,0.0,0.0,0.0,0.0,0.0,0.0,0.0,0.0,0.0,0.0,0.0,0.0,0.0,0.0,0.0,0.0,0.0,0.0,0.0,0.0,0.0,0.0,0.0,0.0,0.0,0.0,0.0,0.0,0.0,0.0,0.0,0.0,0.0,0.0,0.0,0.0,0.0,0.0,0.0,0.0,0.0,0.0,0.0,0.0,0.0,0.0,0.0,0.0,0.0,0.0,0.0,0.0,0.0,0.0,0.0,0.0,0.0,0.0,0.0,0.0,0.0,0.0,0.0,0.0,0.0,0.0,0.0,0.0,0.0,0.0,1.0065,1.0276,1.0919,1.1249,1.1191,1.0095,0.946,0.0,0.0,0.0,0.0,0.0,0.0,0.0,0.0,0.0,0.0,0.0,0.0,0.0,0.0,0.0,0.0,0.0,0.0,0.0,0.0,0.0,0.0,0.0,0.0,0.0,0.0,0.0,0.0,0.0,0.0,0.0,0.0,0.0,0.0,0.0,0.0,0.0,0.0,0.0,0.0,0.0,0.0,0.0,0.0,0.0,0.0,0.0,0.0,0.0,0.0,0.0,0.0,0.0,0.0,0.0,0.0,0.0,0.0,0.0,0.0,0.0,0.0,0.0,0.0,0.0,0.0,0.0,0.0,0.0,0.0,0.0,0.0,0.0,0.0,0.0,0.0,0.0,0.0,0.0,0.0,0.0,0.0,0.0,0.0,0.0,0.0,0.0,0.0,0.0,0.0,0.0,0.0,0.0,0.0,0.0,0.0,0.0,0.0,0.0,0.0,0.0,0.0,0.0,0.0,0.0,0.0,0.0,0.0,0.9997,1.0312,1.0641,1.0996,1.1335,1.0551,1.0106,0.0,0.0,0.0,0.0,0.0,0.0,0.0,0.0,0.0,0.0,0.0,0.0,0.0,0.0,0.0,0.0,0.0,0.0,0.0,0.0,0.0,0.0,0.0,0.0,0.0,0.0,0.0,0.0,0.0,0.0,0.0,0.0,0.0,0.0,0.0,0.0,0.0,0.0,0.0,0.0,0.0,0.0,0.0,0.0,0.0,0.0,0.0,0.0,0.3767,0.0,0.0,0.0,0.0,0.0,0.0,0.0,0.0,0.0,0.0,0.0,0.0,0.0,0.0,0.0,0.0,0.0,0.0,0.0,0.0,0.0,0.0,0.0,0.0,0.0,0.0,0.0,0.0,0.0,0.0,0.0,0.0,0.0,0.0,0.0,0.0,0.0,0.0,0.0,0.0,0.0,0.0,0.0,0.0,0.0,0.0,0.0,0.0,0.0,0.0,0.0,0.0,0.0,0.0,0.0,0.0,0.0,0.0,0.0,1.0046,1.0699,1.0698,1.078,1.1039,1.0861,1.0683,0.0,0.0,0.0,0.0,0.0,0.0,0.0,0.0,0.0,0.0,0.0,0.0,0.0,0.0,0.0,0.0,0.0,0.0,0.0,0.0,0.0,0.0,0.0,0.0,0.0,0.0,0.0,0.0,0.0,0.0,0.0,0.0,0.0,0.0,0.0,0.0,0.0,0.0,0.0,0.0,0.0,0.0,0.0,0.0,0.0,0.0,0.0,0.0,0.0,0.0,0.0,0.0,0.0,0.0,0.0,0.0,0.0,0.0,0.0,0.0,0.0,0.0,0.0,0.0,0.0,0.0,0.0,0.0,0.0,0.0,0.0,0.0,0.0,0.0,0.0,0.0,0.0,0.0,0.0,0.0,0.0,0.0,0.0,0.0,0.0,0.0,0.0,0.0,0.0,0.0,0.0,0.0,0.0,0.0,0.0,0.0,0.0,0.0,0.0,0.0,0.0,0.0,0.0,0.0,0.0,0.0,0.0,0.9864,1.0309,1.1094,1.0791,1.0648,1.0769,1.0983,1.1062,1.0933,0.0,0.0,0.0,0.0,0.0,0.0,0.0,0.0,0.0,0.0,0.0,0.0,0.0,0.0,0.0,0.0,0.0,0.0,0.0,0.0,0.0,0.0,0.0,0.0,0.0,0.0,0.0,0.0,0.0,0.0,0.0,0.0,0.0,0.0,0.0,0.0,0.0,0.0,0.6027,0.6062,0.0,0.0,0.0,0.0,0.0,0.0,0.0,0.0,0.3559,0.0,0.0,0.0,0.0,0.0,0.0,0.0,0.0,0.0,0.0,0.0,0.0,0.0,0.0,0.0,0.0,0.0,0.0,0.0,0.0,0.0,0.0,0.0,0.0,0.0,0.0,0.0,0.0,0.0,0.0,0.0,0.0,0.0,0.0,0.0,0.0,0.0,0.0,0.0,0.0,0.0,0.0,0.0,0.0,0.0,0.0,0.0,0.0,0.0,0.0,0.0,0.0,0.0,0.0,0.0,0.0,1.0026,1.0589,1.0887,1.0947,1.0776,1.082,1.1084,1.0808,1.0662,1.0712,0.0,0.0,0.0,0.0,0.0,0.0,0.0,0.0,0.0,0.0,0.0,0.0,0.0,0.0,0.0,0.0,0.0,0.0,0.0,0.0,0.0,0.0,0.0,0.0,0.0,0.0,0.0,0.0,0.0,0.0,0.0,0.0,0.0,0.0,0.0,0.0,0.0,0.0,0.0,0.6352,0.632,0.0,0.0,0.0,0.0,0.0,0.0,0.0,0.0,0.3733,0.0,0.0,0.0,0.0,0.0,0.0,0.0,0.0,0.0,0.0,0.0,0.0,0.0,0.0,0.0,0.0,0.0,0.0,0.0,0.0,0.0,0.0,0.0,0.0,0.0,0.0,0.0,0.0,0.0,0.0,0.0,0.0,0.0,0.0,0.0,0.0,0.0,0.0,0.0,0.0,0.0,0.0,0.0,0.0,0.0,0.0,0.0,0.0,0.0,0.0,0.0,0.0,0.0,0.0,0.0,0.9791,1.034,1.0641,1.0667,1.0566,1.0439,1.0322,1.0469,1.026,0.0,0.0,0.0,0.0,0.0,0.0,0.0,0.0,0.0,0.0,0.0,0.0,0.0,0.0,0.0,0.0,0.0,0.0,0.0,0.0,0.0,0.0,0.0,0.0,0.0,0.0,0.0,0.0,0.0,0.0,0.0,0.0,0.0,0.0,0.0,0.0,0.0,0.0,0.0,0.0,0.6747,0.6801,0.657,0.0,0.0,0.0,0.0,0.0,0.0,0.4268,0.4146,0.0,0.0,0.0,0.0,0.0,0.0,0.0,0.0,0.0,0.0,0.0,0.0,0.0,0.0,0.0,0.0,0.0,0.0,0.0,0.0,0.0,0.0,0.0,0.0,0.0,0.0,0.0,0.0,0.0,0.0,0.0,0.0,0.0,0.0,0.0,0.0,0.0,0.0,0.0,0.0,0.0,0.0,0.0,0.0,0.0,0.0,0.0,0.0,0.0,0.0,0.0,0.0,0.0,0.0,0.0,0.9484,0.9852,1.0066,1.0221,1.0023,0.9743,0.9429,0.9832,0.9602,0.0,0.0,0.0,0.0,0.0,0.0,0.0,0.0,0.0,0.0,0.0,0.0,0.0,0.0,0.0,0.0,0.0,0.0,0.0,0.0,0.0,0.0,0.0,0.0,0.0,0.0,0.0,0.0,0.0,0.0,0.0,0.0,0.0,0.0,0.0,0.0,0.0,0.0,0.0,0.0,0.0,0.7234,0.6891,0.6815,0.0,0.0,0.0,0.0,0.4938,0.478,0.0,0.0,0.0,0.0,0.0,0.0,0.0,0.0,0.0,0.0,0.0,0.0,0.0,0.0,0.0,0.0,0.0,0.0,0.0,0.0,0.0,0.0,0.0,0.0,0.0,0.0,0.0,0.0,0.0,0.0,0.0,0.0,0.0,0.0,0.0,0.0,0.0,0.0,0.0,0.0,0.0,0.0,0.0,0.0,0.0,0.0,0.0,0.0,0.0,0.0,0.0,0.0,0.0,0.0,0.0,0.0,0.9459,0.9397,0.9321,0.9311,0.8855,0.8773,0.9144,0.8598,0.8524,0.0,0.0,0.0,0.0,0.0,0.0,0.0,0.0,0.0,0.0,0.0,0.0,0.0,0.0,0.0,0.0,0.0,0.0,0.0,0.0,0.0,0.0,0.0,0.0,0.0,0.0,0.0,0.0,0.0,0.0,0.0,0.0,0.0,0.0,0.0,0.0,0.0,0.0,0.0,0.0,0.0,0.7587,0.7456,0.709,0.6756,0.0,0.0,0.5863,0.5685,0.54,0.0,0.0,0.0,0.0,0.0,0.0,0.0,0.0,0.0,0.0,0.0,0.0,0.0,0.0,0.0,0.0,0.0,0.0,0.0,0.0,0.0,0.0,0.0,0.0,0.0,0.0,0.0,0.0,0.0,0.0,0.0,0.0,0.0,0.0,0.0,0.0,0.0,0.0,0.0,0.0,0.0,0.0,0.0,0.0,0.0,0.0,0.0,0.0,0.0,0.0,0.0,0.0,0.0,0.0,0.0,0.8933,0.9057,0.922,0.9087,0.8649,0.8626,0.855,0.8427,0.8318,0.831,0.0,0.0,0.0,0.0,0.0,0.0,0.0,0.0,0.0,0.0,0.0,0.0,0.0,0.0,0.0,0.0,0.0,0.0,0.0,0.0,0.0,0.0,0.0,0.0,0.0,0.0,0.0,0.0,0.0,0.0,0.0,0.0,0.0,0.0,0.0,0.0,0.0,0.0,0.0,0.0,0.0,0.0,0.7419,0.7203,0.0,0.0,0.0,0.6206,0.5845,0.0,0.0,0.0,0.0,0.0,0.0,0.0,0.0,0.0,0.0,0.0,0.0,0.0,0.0,0.0,0.0,0.0,0.0,0.0,0.0,0.0,0.0,0.0,0.0,0.0,0.0,0.0,0.0,0.0,0.0,0.0,0.0,0.0,0.0,0.0,0.0,0.0,0.0,0.0,0.0,0.0,0.0,0.0,0.0,0.0,0.0,0.0,0.0,0.0,0.0,0.0,0.0,0.0,0.0,0.0,0.0,0.0,0.8434,0.869,0.8536,0.7929,0.8253,0.8218,0.7784,0.799,0.0,0.0,0.0,0.0,0.0,0.0,0.0,0.0,0.0,0.0,0.0,0.0,0.0,0.0,0.0,0.0,0.0,0.0,0.0,0.0,0.0,0.0,0.0,0.0,0.0,0.0,0.0,0.6864,0.0,0.0,0.0,0.0,0.0,0.0,0.0,0.0,0.0,0.0,0.0,0.0,0.0,0.0,0.7687,0.7311,0.709,0.6869,0.0,0.0,0.6295,0.5868,0.5949,0.5897,0.0,0.0,0.0,0.0,0.0,0.0,0.0,0.0,0.0,0.0,0.0,0.0,0.0,0.0,0.0,0.0,0.0,0.0,0.0,0.0,0.0,0.0,0.0,0.0,0.0,0.0,0.0,0.0,0.0,0.0,0.0,0.0,0.0,0.0,0.0,0.0,0.0,0.0,0.0,0.0,0.0,0.0,0.0,0.0,0.0,0.0,0.0,0.0,0.0,0.0,0.0,0.0,0.0,0.0,0.0,0.7682,0.7391,0.7233,0.7101,0.7367,0.7453,0.7345,0.719,0.7272,0.0,0.0,0.0,0.0,0.0,0.0,0.0,0.0,0.0,0.0,0.0,0.0,0.0,0.0,0.0,0.0,0.0,0.0,0.0,0.0,0.0,0.0,0.0,0.0,0.0,0.0,0.0,0.0,0.0,0.0,0.0,0.0,0.0,0.0,0.0,0.0,0.0,0.0,0.0,0.0,0.0,0.7413,0.7139,0.6864,0.6598,0.0,0.0,0.6018,0.5832,0.5832,0.5787,0.5601,0.0,0.0,0.0,0.0,0.0,0.0,0.0,0.0,0.0,0.0,0.0,0.0,0.0,0.0,0.0,0.0,0.0,0.0,0.0,0.0,0.0,0.0,0.0,0.0,0.0,0.0,0.0,0.0,0.0,0.0,0.0,0.0,0.0,0.0,0.0,0.0,0.0,0.0,0.0,0.0,0.0,0.0,0.0,0.0,0.0,0.0,0.0,0.0,0.0,0.0,0.0,0.0,0.0,0.7611,0.7469,0.7352,0.7179,0.7019,0.7098,0.7265,0.7491,0.761,0.7691,0.0,0.0,0.0,0.0,0.0,0.0,0.0,0.0,0.0,0.0,0.0,0.0,0.0,0.0,0.0,0.0,0.0,0.0,0.0,0.0,0.0,0.0,0.0,0.0,0.0,0.0,0.0,0.0,0.6872,0.6745,0.6526,0.0,0.0,0.0,0.0,0.0,0.0,0.0,0.0,0.0,0.0,0.7419,0.7274,0.6933,0.0,0.0,0.5994,0.5962,0.5732,0.5893,0.5935,0.5685,0.5262,0.0,0.0,0.0,0.0,0.0,0.0,0.0,0.0,0.0,0.0,0.0,0.0,0.0,0.0,0.0,0.0,0.0,0.0,0.0,0.0,0.0,0.0,0.0,0.0,0.0,0.0,0.0,0.0,0.0,0.0,0.0,0.0,0.0,0.0,0.0,0.0,0.0,0.0,0.0,0.0,0.0,0.0,0.0,0.0,0.0,0.0,0.0,0.0,0.0,0.0,0.0,0.0,0.7596,0.7134,0.7347,0.7307,0.7008,0.7186,0.7406,0.7642,0.7902,0.7956,0.0,0.0,0.0,0.0,0.0,0.0,0.0,0.0,0.0,0.0,0.0,0.0,0.0,0.0,0.0,0.0,0.0,0.0,0.0,0.0,0.0,0.0,0.0,0.0,0.0,0.0,0.0,0.0,0.6815,0.678,0.6613,0.0,0.0,0.0,0.0,0.0,0.0,0.0,0.0,0.0,0.0,0.7395,0.7261,0.6916,0.6505,0.5828,0.5895,0.5927,0.5689,0.5858,0.5876,0.5514,0.0,0.0,0.0,0.0,0.0,0.0,0.0,0.0,0.0,0.0,0.0,0.0,0.0,0.0,0.0,0.0,0.0,0.0,0.0,0.0,0.0,0.0,0.0,0.0,0.0,0.0,0.0,0.0,0.0,0.0,0.0,0.0,0.0,0.0,0.0,0.0,0.0,0.0,0.0,0.0,0.0,0.0,0.0,0.0,0.0,0.0,0.0,0.0,0.0,0.0,0.0,0.0,0.0,0.7569,0.6562,0.7247,0.7386,0.694,0.763,0.7893,0.7817,0.7833,0.7772,0.7726,0.0,0.0,0.0,0.0,0.0,0.0,0.0,0.0,0.0,0.0,0.0,0.0,0.0,0.0,0.0,0.0,0.0,0.0,0.0,0.0,0.0,0.0,0.0,0.0,0.0,0.0,0.6538,0.6679,0.6793,0.0,0.0,0.0,0.0,0.0,0.0,0.0,0.0,0.0,0.0,0.7389,0.7245,0.6864,0.6823,0.6621,0.6152,0.5988,0.5876,0.5695,0.5634,0.5514,0.0,0.0,0.0,0.0,0.0,0.0,0.0,0.0,0.0,0.0,0.0,0.0,0.0,0.0,0.0,0.0,0.0,0.0,0.0,0.0,0.0,0.0,0.0,0.0,0.0,0.0,0.0,0.8679,0.888,0.0,0.0,0.0,0.0,0.0,0.0,0.0,0.0,0.0,0.0,0.0,0.8484,0.8568,0.0,0.0,0.0,0.0,0.0,0.0,0.0,0.0,0.0,0.0,0.0,0.0,0.784,0.7073,0.7391,0.7498,0.7286,0.7547,0.7764,0.7933,0.8206,0.8396,0.8488,0.0,0.0,0.0,0.0,0.0,0.0,0.0,0.0,0.0,0.0,0.0,0.0,0.0,0.0,0.0,0.0,0.0,0.0,0.0,0.0,0.0,0.0,0.0,0.0,0.0,0.6778,0.0,0.0,0.0,0.0,0.0,0.0,0.0,0.0,0.0,0.0,0.0,0.7415,0.7157,0.7118,0.7131,0.7101,0.6731,0.6302,0.0,0.0,0.0,0.0,0.0,0.0,0.0,0.0,0.0,0.0,0.0,0.0,0.0,0.0,0.2573,0.1993,0.1542,0.1049,0.0432,0.0,0.0,0.0,0.0,0.0,0.0,0.0,0.0,0.0,0.0,0.0,0.0,0.0,0.0,0.0,0.0,0.9231,0.0,0.0,0.0,0.0,0.0,0.0,0.0,0.0,0.881,0.8756,0.8723,0.8905,0.8857,0.0,0.8785,0.8696,0.0,0.0,0.0,0.0,0.0,0.0,0.0,0.0,0.8071,0.7414,0.7733,0.7769,0.7524,0.7615,0.7767,0.8021,0.825,0.8488,0.8731,0.815,0.8136,0.0,0.0,0.0,0.0,0.0,0.0,0.0,0.0,0.0,0.0,0.0,0.0,0.0,0.0,0.0,0.0,0.0,0.0,0.0,0.0,0.0,0.0,0.0,0.6705,0.0,0.0,0.0,0.0,0.0,0.0,0.0,0.0,0.0,0.7246,0.7357,0.7359,0.7091,0.7105,0.7101,0.7069,0.0,0.0,0.0,0.0,0.0,0.0,0.0,0.5913,0.5892,0.5477,0.4992,0.4523,0.4104,0.3768,0.3349,0.0,0.0,0.1871,0.1463,0.0955,0.0064,-0.0513,-0.1031,-0.1402,-0.2068,-0.2736,0.0,0.0,0.0,0.0,0.0,0.0,0.0,0.0,1.0345,0.9783,0.0,0.9067,0.0,0.0,0.0,0.0,0.0,0.0,0.0,0.0,0.8816,0.8723,0.8725,0.8898,0.8997,0.8989,0.8989,0.8989,0.8951,0.8768,0.0,0.0,0.0,0.0,0.0,0.0,0.8261,0.7562,0.8162,0.8184,0.7553,0.7835,0.7987,0.7979,0.7927,0.8065,0.8371,0.8253,0.8355,0.8707,0.8707,0.0,0.0,0.0,0.0,0.0,0.0,0.0,0.0,0.0,0.0,0.0,0.0,0.0,0.0,0.0,0.0,0.0,0.0,0.0,0.0,0.6576,0.0,0.0,0.0,0.0,0.0,0.0,0.0,0.0,0.0,0.0,0.7396,0.7316,0.728,0.7116,0.0,0.0,0.0,0.0,0.6758,0.642,0.6432,0.6366,0.6234,0.6304,0.6276,0.5931,0.0,0.0,0.4152,0.3649,0.3366,0.3138,0.2628,0.2228,0.1908,0.1753,0.128,0.0135,-0.0688,-0.1388,-0.184,-0.251,-0.3128,1.2501,0.0,0.0,0.0,0.0,1.0978,1.0951,1.1308,1.1013,1.0696,1.0381,1.0175,0.0,0.0,0.0,0.0,0.0,0.0,0.907,0.9221,0.8608,0.8356,0.8507,0.8669,0.869,0.8537,0.8793,0.8834,0.867,0.8919,0.8836,0.8402,0.0,0.0,0.0,0.0,0.8406,0.7852,0.8349,0.8431,0.8024,0.8091,0.8024,0.7802,0.8024,0.8209,0.841,0.8267,0.8553,0.9307,0.9136,0.0,0.0,0.0,0.0,0.0,0.0,0.0,0.0,0.0,0.0,0.0,0.0,0.0,0.0,0.0,0.0,0.0,0.0,0.0,0.7155,0.674,0.6533,0.0,0.0,0.0,0.0,0.0,0.0,0.0,0.0,0.0,0.7228,0.7262,0.7202,0.0,0.0,0.6872,0.6732,0.6722,0.6671,0.6471,0.0,0.0,0.0,0.6702,0.6663,0.61,0.5283,0.4553,0.4038,0.3495,0.3057,0.2703,0.2394,0.2073,0.1654,0.114,0.0427,-0.0571,-0.1363,-0.2015,-0.25,-0.299,-0.3549,1.3728,1.3585,1.2582,1.2278,1.2445,1.1825,1.1655,1.1779,1.1694,1.1433,1.0937,1.0756,1.0361,0.9915,0.9747,0.0,0.0,0.0,0.8983,0.9113,0.8281,0.7993,0.8207,0.8511,0.8567,0.8456,0.8834,0.8934,0.8749,0.8976,0.8914,0.8621,0.0,0.0,0.8009,0.829,0.8355,0.8158,0.8427,0.8497,0.8399,0.8339,0.8245,0.8114,0.8238,0.8446,0.8695,0.8638,0.8904,0.957,0.9445,0.9335,0.0,0.0,0.0,0.0,0.0,0.0,0.0,0.0,0.0,0.0,0.0,0.8868,0.8827,0.0,0.0,0.0,0.7915,0.7521,0.7152,0.6964,0.0,0.0,0.0,0.0,0.0,0.0,0.0,0.7456,0.7524,0.737,0.6921,0.6971,0.6953,0.6762,0.6733,0.6705,0.6714,0.0,0.6708,0.6638,0.695,0.7019,0.6595,0.6797,0.6714,0.5902,0.5228,0.4442,0.3683,0.3267,0.2809,0.2311,0.2072,0.1757,0.1206,0.0601,-0.0075,-0.0879,-0.169,-0.2361,-0.2848,-0.336,-0.4031,1.443,1.4057,1.2563,1.2404,1.3062,1.2652,1.245,1.246,1.2441,1.1966,1.1198,1.0912,1.066,1.0445,1.008,0.0,0.0,0.8904,0.8671,0.8823,0.799,0.7742,0.7976,0.8412,0.8598,0.8612,0.9027,0.9211,0.919,0.8954,0.8813,0.8792,0.8585,0.8325,0.8046,0.8037,0.8172,0.8461,0.8403,0.8471,0.8674,0.8616,0.8616,0.8674,0.8656,0.883,0.9233,0.9248,0.9387,0.9672,0.9703,0.9695,0.9687,0.0,0.0,0.0,0.0,0.0,0.0,0.0,0.0,0.0,0.0,0.0,0.0,0.0,0.0,0.0,0.7921,0.0,0.7034,0.7188,0.0,0.0,0.0,0.7589,0.7529,0.7793,0.7866,0.7486,0.0,0.0,0.0,0.0,0.6766,0.6762,0.6696,0.6701,0.6692,0.6737,0.6794,0.7023,0.706,0.6925,0.66,0.6629,0.6378,0.5508,0.5085,0.4455,0.3368,0.2902,0.251,0.1958,0.1727,0.1413,0.0707,0.0235,-0.0232,-0.0963,-0.1869,-0.2637,-0.3034,-0.3781,-0.4515,1.428,1.3988,1.3407,1.3351,1.3596,1.3071,1.2892,1.303,1.2944,1.2376,1.1463,1.1352,1.0819,1.0063,1.0173,1.021,1.0163,0.9684,0.9437,0.9358,0.8771,0.8446,0.8468,0.8664,0.8756,0.8763,0.9079,0.9159,0.9047,0.9004,0.8948,0.8877,0.8537,0.8346,0.8375,0.8809,0.8846,0.8522,0.8656,0.8735,0.87,0.9151,0.9179,0.8707,0.9247,0.9532,0.9528,0.9763,1.0092,1.0576,1.0447,1.0341,1.0379,1.0082,0.0,0.0,0.0,0.0,0.0,0.0,0.0,0.0,0.0,0.9409,0.9453,0.0,0.911,0.0,0.8128,0.7747,0.7863,0.7577,0.0,0.0,0.7947,0.8003,0.8065,0.8343,0.842,0.7906,0.8011,0.7897,0.7469,0.7508,0.7495,0.7355,0.695,0.6749,0.6933,0.7157,0.7252,0.7233,0.7414,0.7425,0.7048,0.6395,0.5813,0.5392,0.4618,0.3841,0.2981,0.2588,0.2198,0.1805,0.1257,0.0707,0.0236,-0.0314,-0.1017,-0.1856,-0.248,-0.2874,-0.324,-0.4063,-0.4885,1.4296,1.4015,1.3967,1.4019,1.4066,1.3522,1.3132,1.2997,1.3094,1.2667,1.1872,1.1583,1.1081,1.0333,1.0286,1.0292,1.0268,0.9714,0.9472,0.9488,0.8839,0.8561,0.8626,0.8685,0.8692,0.8745,0.8903,0.9008,0.8896,0.8992,0.8952,0.885,0.9127,0.9213,0.9098,0.9112,0.904,0.8848,0.9238,0.9358,0.9219,0.9591,0.966,0.9439,0.9797,0.9981,1.0079,1.0198,1.0468,1.0758,1.069,1.0597,1.0558,1.0376,1.021,0.0,0.0,0.0,0.0,0.0,0.0,0.0,0.0,0.0,0.0,0.0,0.9233,0.0,0.8448,0.0,0.8111,0.7838,0.7693,0.8007,0.8105,0.818,0.8312,0.8489,0.8376,0.8052,0.8047,0.7941,0.7471,0.7588,0.7632,0.7432,0.7303,0.7237,0.7339,0.7522,0.7616,0.763,0.7647,0.748,0.7022,0.6173,0.5473,0.5162,0.454,0.3763,0.2824,0.2588,0.2276,0.1414,0.0707,0.0157,-0.0314,-0.0943,-0.1729,-0.2433,-0.3059,-0.3448,-0.3759,-0.457,-0.5393,1.4373,1.4169,1.4368,1.4459,1.4476,1.3962,1.3379,1.2861,1.3115,1.2842,1.2224,1.1778,1.1326,1.0972,1.0573,1.0375,1.0293,0.9537,0.9257,0.934,0.8769,0.8597,0.8732,0.8771,0.8791,0.8791,0.8905,0.8965,0.8971,0.9037,0.9037,0.9031,0.9886,1.0188,0.9983,0.9337,0.9151,0.9337,0.9799,1.002,0.9846,0.9945,1.0082,1.03,1.0284,1.0363,1.0654,1.0711,1.0711,1.0711,1.0719,1.0711,1.0711,1.061,1.0473,0.0,1.0336,0.0,0.0,0.0,0.0,0.0,0.0,0.0,0.0,0.9895,0.9406,0.9051,0.8676,0.8391,0.8115,0.8014,0.8012,0.8017,0.8127,0.8247,0.8511,0.8463,0.8273,0.8052,0.8143,0.7882,0.7359,0.7437,0.761,0.7554,0.7758,0.7894,0.7912,0.7921,0.7917,0.808,0.7718,0.7253,0.6637,0.5944,0.5407,0.5023,0.4489,0.3859,0.2776,0.2698,0.2379,0.0873,0.0159,-0.0316,-0.0947,-0.1658,-0.2287,-0.2829,-0.3538,-0.4169,-0.4465,-0.5079,-0.5935,1.4731,1.4892,1.4873,1.4788,1.4654,1.4407,1.4021,1.35,1.3328,1.2824,1.2126,1.1828,1.1578,1.1377,1.0972,1.0718,1.0624,1.0246,0.9835,0.9427,0.9773,0.9803,0.9542,0.9792,0.991,0.991,0.9903,0.979,0.9676,0.9605,0.977,1.0066,0.9937,1.0132,1.0598,0.0,0.0,0.0,0.985,0.9744,0.9744,1.0091,1.034,1.0393,1.0812,0.0,1.1185,1.1308,1.1446,1.1439,1.1377,0.0,0.0,0.0,0.0,0.0,0.0,0.0,0.0,0.0,0.0,0.0,1.0251,1.0215,1.0492,0.9987,0.9473,0.9084,0.8755,0.8601,0.8678,0.8478,0.8506,0.8756,0.8796,0.8829,0.8899,0.9134,0.9124,0.8473,0.8673,0.8708,0.8338,0.8358,0.8367,0.8385,0.8486,0.8557,0.8486,0.8335,0.8206,0.8097,0.7642,0.6945,0.6173,0.555,0.504,0.4644,0.411,0.3491,0.2884,0.2735,0.2073,0.0414,-0.0327,-0.0889,-0.1776,-0.2261,-0.2644,-0.3147,-0.3897,-0.4566,-0.487,-0.5553,-0.6331,1.5039,0.0,1.5267,1.5109,0.0,1.4697,1.425,1.337,1.3491,1.3001,1.2184,1.1918,1.1619,1.1276,1.0871,1.0565,1.036,1.0095,0.9836,0.965,1.008,1.0262,1.0241,1.0343,1.0451,1.0535,1.0328,1.0135,0.9904,1.0193,1.0328,1.0418,1.0535,1.085,1.1301,1.1231,1.0927,1.047,1.0288,1.0228,1.0242,1.0506,1.0705,1.0828,0.0,0.0,0.0,0.0,0.0,0.0,0.0,0.0,0.0,0.0,0.0,1.1365,1.1158,1.107,1.107,1.107,1.1063,1.107,1.0943,1.0647,1.0137,1.008,0.9923,0.9512,0.9199,0.9006,0.9069,0.8829,0.8829,0.8952,0.8958,0.9003,0.9265,0.9319,0.9214,0.892,0.8853,0.8794,0.8596,0.8513,0.8522,0.8661,0.8726,0.8627,0.8475,0.8399,0.825,0.7718,0.733,0.6788,0.6018,0.5395,0.494,0.4614,0.4188,0.3589,0.2889,0.2755,0.2187,0.0755,-0.0248,-0.1061,-0.181,-0.2436,-0.3031,-0.383,-0.4583,-0.5411,-0.5972,-0.6379,-0.6795,1.5233,1.4705,1.5489,1.5292,1.4535,1.477,1.4229,1.3168,0.0,0.0,0.0,1.2077,1.1769,1.1319,1.0913,1.0548,1.0271,1.0001,0.9903,0.9985,1.0258,1.0602,1.0947,1.0849,1.0902,1.1023,1.0718,1.0413,1.0193,1.0682,1.0802,1.0648,1.1188,1.156,1.1615,1.156,1.131,1.08,1.0807,1.0807,1.087,1.087,1.0989,1.1303,1.1247,1.131,1.156,1.1622,1.1622,1.1622,1.1622,1.1622,1.1622,1.1567,1.156,1.1622,1.1611,1.1648,1.1648,1.1762,1.1728,1.1672,1.1677,1.1135,0.9975,1.0358,1.0434,0.9932,0.9722,0.9454,0.9338,0.921,0.9081,0.9081,0.8998,0.9165,0.9519,0.9474,0.931,0.9158,0.8947,0.8717,0.8674,0.8544,0.8437,0.8641,0.868,0.8475,0.8174,0.8097,0.7944,0.7411,0.7022,0.6556,0.5938,0.5318,0.4857,0.4508,0.4257,0.3826,0.313,0.2843,0.2284,0.1024,-0.0167,-0.1164,-0.1923,-0.2697,-0.3506,-0.4426,-0.5272,-0.6183,-0.6875,-0.7085,-0.7305,1.5243,1.5244,1.5274,1.4991,1.4514,1.4569,1.4114,1.3265,1.2489,1.2121,1.2079,1.2226,1.2361,1.2344,1.1804,1.1416,1.1288,1.1017,1.0793,0.0,1.1249,1.1608,1.167,1.1654,1.1628,1.1665,1.1319,1.1174,1.1119,1.121,1.1231,1.1176,1.1163,1.1122,1.0989,1.1185,1.1178,1.0807,1.0807,1.087,1.1059,1.1178,1.124,1.1303,1.1428,1.156,1.1622,1.1622,1.1622,1.1622,1.1622,1.1622,1.1622,1.1435,1.1428,1.1575,1.1688,1.184,1.1905,1.2233,1.2246,1.197,1.1934,1.1639,1.0968,1.0787,1.0618,1.0244,0.9919,0.9709,0.9524,0.9466,0.9414,0.9303,0.9551,0.9688,0.9492,0.9725,0.9715,0.9214,0.9303,0.931,0.8995,0.8892,0.8773,0.867,0.8523,0.8327,0.7949,0.7718,0.7484,0.7257,0.6868,0.6328,0.5553,0.501,0.4575,0.411,0.3883,0.3531,0.2882,0.2828,0.2249,0.053,-0.078,-0.1879,-0.2783,-0.3517,-0.4091,-0.4795,-0.5514,-0.6188,-0.6837,-0.7422,-0.8102,1.5302,1.5059,1.5079,1.4725,1.4222,1.3779,1.3368,1.2854,1.2201,1.2085,1.2394,1.2366,1.2353,1.2334,1.184,1.1495,1.1382,1.1099,1.0986,1.1107,1.1375,1.1662,1.1901,1.1827,1.1882,1.1926,1.1685,1.149,1.1303,1.1247,1.1185,1.1185,1.1185,1.1059,1.0744,1.0996,1.1059,1.0807,1.0989,1.1115,1.1185,1.124,1.1373,1.1435,1.1435,1.1585,1.1809,1.1585,1.157,1.1809,1.1585,1.1498,1.156,1.1498,1.1633,1.1944,1.2262,1.2528,1.2691,1.277,1.2571,1.2194,1.2179,1.2108,1.1694,1.112,1.0742,1.0639,1.0328,1.0104,1.0049,1.0003,0.9878,0.9622,0.9922,1.0083,1.0069,1.0043,0.9973,0.9721,0.957,0.9343,0.9056,0.891,0.8768,0.858,0.8174,0.7868,0.7642,0.7407,0.7173,0.7019,0.6475,0.5938,0.5321,0.4621,0.4173,0.3822,0.3624,0.3272,0.2765,0.2707,0.2142,0.0864,-0.0687,-0.1957,-0.2688,-0.3487,-0.4326,-0.517,-0.5817,-0.6471,-0.723,-0.8141,-0.8955,1.5196,1.4647,1.4725,1.4428,1.3855,1.316,1.2747,1.2537,1.2216,1.2371,1.2694,1.2456,1.2344,1.2305,1.1898,1.1618,1.1445,1.1272,1.1272,1.1503,1.1561,1.1768,1.2055,1.196,1.1927,1.1973,1.1872,1.1615,1.1373,1.1247,1.1192,1.1122,1.1122,1.0996,1.0624,1.0933,1.0996,1.087,1.1255,1.141,1.141,1.141,1.1573,1.1772,1.1589,1.1696,1.2043,1.1711,1.1689,1.2036,1.171,1.1573,1.1772,1.178,1.199,1.2446,1.2847,1.3182,1.3413,1.3226,1.2868,1.2553,1.2459,1.2416,1.2237,1.1518,1.1036,1.1022,1.0836,1.0607,1.0517,1.0495,1.0355,1.0037,1.026,1.0371,1.0462,1.0304,1.0132,1.0025,0.961,0.9285,0.9054,0.8911,0.8683,0.8367,0.7944,0.7638,0.7407,0.7096,0.6865,0.6641,0.6116,0.5596,0.5204,0.4528,0.3901,0.3724,0.3451,0.3084,0.2619,0.2406,0.1854,0.0679,-0.0849,-0.2123,-0.2619,-0.3634,-0.4637,-0.5419,-0.608,-0.6848,-0.7808,-0.8688,-0.9497,1.4843,1.4469,1.4249,1.389,1.3502,1.3114,1.2923,1.2793,1.2716,1.2769,1.2748,1.2529,1.2503,1.2676,1.2371,1.2112,1.2058,1.2089,1.2127,1.2058,1.2334,1.2411,1.2235,1.2128,1.1965,1.1872,1.1685,1.1622,1.156,1.156,1.1373,1.1129,1.0807,1.0688,1.0618,1.0933,1.1066,1.1066,1.1653,1.1862,1.1739,1.1862,1.2131,1.2423,1.2215,1.2236,1.2407,1.2236,1.2236,1.2378,1.2094,1.2058,1.238,1.2296,1.2448,1.2914,1.3353,1.3715,1.3872,1.3469,1.3215,1.3317,1.2764,1.2466,1.2593,1.2019,1.1553,1.1451,1.1499,1.1255,1.0704,1.0779,1.071,1.0303,1.0526,1.0468,1.0089,1.0216,1.025,0.9672,0.9606,0.9508,0.9266,0.9039,0.868,0.8169,0.7949,0.7718,0.7334,0.7022,0.671,0.6433,0.5962,0.5548,0.4996,0.4524,0.3842,0.3239,0.3159,0.2838,0.2197,0.1487,0.0759,0.0085,-0.1552,-0.2845,-0.35,-0.4358,-0.5125,-0.5699,-0.6428,-0.7174,-0.8277,-0.8953,-0.9434,1.5069,1.4478,1.4359,1.3941,1.3407,1.3233,1.305,1.292,1.2928,1.2928,1.2911,1.2704,1.2728,1.2805,1.2436,1.2313,1.2375,1.2305,1.2367,1.2375,1.256,1.2498,1.2305,1.2243,1.212,1.1996,1.1934,1.1934,1.1879,1.1685,1.1373,1.0996,1.087,1.087,1.0933,1.1066,1.1143,1.1325,1.1711,1.2028,1.2344,1.2356,1.2387,1.2504,1.2383,1.2485,1.2698,1.2567,1.2621,1.2905,1.2579,1.2549,1.2935,1.2811,1.3045,1.3711,1.4194,1.4317,1.4145,1.3768,1.3514,1.3411,1.2952,1.2704,1.2776,1.2442,1.2087,1.1761,1.1637,1.1352,1.1096,1.1051,1.0987,1.0663,1.0797,1.076,1.0463,1.0461,1.0318,1.0016,0.9712,0.9544,0.9246,0.8789,0.8336,0.7953,0.7723,0.7488,0.7099,0.6791,0.6405,0.6038,0.5589,0.5146,0.4716,0.4081,0.3536,0.3125,0.282,0.235,0.2009,0.1152,0.0336,-0.0503,-0.2222,-0.3533,-0.4083,-0.4775,-0.5471,-0.6068,-0.6838,-0.7589,-0.8528,-0.8927,-0.934,1.5245,1.4715,1.4529,1.4061,1.3536,1.3415,1.3233,1.3111,1.305,1.305,1.2989,1.2867,1.2875,1.2805,1.2552,1.2436,1.2498,1.2428,1.2498,1.2621,1.2691,1.2621,1.2375,1.2375,1.2313,1.2127,1.2065,1.2103,1.2117,1.1881,1.1545,1.129,1.1311,1.1382,1.1382,1.1382,1.1481,1.1758,1.2049,1.248,1.2858,1.2932,1.292,1.2858,1.2789,1.3005,1.3378,1.3105,1.316,1.3607,1.317,1.3071,1.3536,1.3423,1.3675,1.4443,1.4633,1.4561,1.4233,1.3789,1.3467,1.3243,1.3019,1.2826,1.2746,1.2599,1.2298,1.2037,1.1696,1.1494,1.1435,1.148,1.1257,1.0919,1.1015,1.1037,1.0651,1.0519,1.0293,1.0067,0.9609,0.9316,0.8941,0.8484,0.803,0.7804,0.7492,0.7176,0.6945,0.6563,0.618,0.587,0.5246,0.4798,0.4597,0.393,0.3353,0.2942,0.2579,0.2263,0.1834,0.0905,-0.0253,-0.1273,-0.3097,-0.4163,-0.4497,-0.5203,-0.5884,-0.6516,-0.7174,-0.787,-0.8436,-0.8834,-0.9282,1.5294,1.5059,1.4451,1.4222,1.413,1.37,1.3407,1.3302,1.331,1.3172,1.3042,1.2989,1.2981,1.2989,1.2744,1.249,1.2367,1.2621,1.2683,1.2621,1.2867,1.2805,1.2621,1.256,1.2436,1.2127,1.2127,1.2218,1.2307,1.2129,1.2109,1.2176,1.2027,1.1974,1.1959,1.2147,1.228,1.2316,1.2836,1.3259,1.3342,1.3787,1.3901,1.3685,1.3506,1.3762,1.4319,1.3975,1.3945,1.45,1.3905,1.3795,1.4156,1.4253,1.4455,1.4878,1.4561,1.4188,1.4031,1.3417,1.3072,1.3103,1.2854,1.2599,1.2599,1.2298,1.2077,1.2003,1.1797,1.1624,1.1649,1.171,1.1649,1.1143,1.1093,1.0887,1.0288,1.0293,1.0067,0.969,0.9311,0.8932,0.8331,0.8178,0.7953,0.7799,0.7565,0.733,0.6945,0.6563,0.6103,0.5637,0.511,0.4663,0.4513,0.3885,0.3265,0.2844,0.2572,0.2355,0.1556,0.0662,-0.0591,-0.1886,-0.3109,-0.4094,-0.4835,-0.5556,-0.6229,-0.6898,-0.7391,-0.796,-0.847,-0.8754,-0.9202,1.542,1.5167,1.4697,1.4469,1.4359,1.4061,1.389,1.3718,1.3657,1.3528,1.3338,1.3224,1.318,1.3172,1.2928,1.2805,1.2621,1.2683,1.2683,1.2744,1.2744,1.2691,1.2621,1.2621,1.2498,1.2243,1.2375,1.2422,1.2459,1.2489,1.2533,1.2609,1.2593,1.2601,1.2668,1.2668,1.2757,1.311,1.3391,1.3613,1.3795,1.3996,1.4137,1.4145,1.3992,1.3908,1.4101,1.4133,1.4206,1.4306,1.421,1.4416,1.4713,1.4922,1.494,1.4739,1.4567,1.4273,1.3881,1.3279,1.3037,1.3173,1.2702,1.2445,1.2526,1.2231,1.2016,1.1955,1.1793,1.1706,1.17,1.1632,1.1484,1.1186,1.1111,1.0887,1.0519,1.0368,1.0218,0.9841,0.9306,0.8775,0.825,0.803,0.7799,0.7642,0.733,0.7103,0.6865,0.6328,0.5802,0.5401,0.4935,0.4399,0.4112,0.3669,0.3127,0.2727,0.2403,0.2106,0.1554,0.0672,-0.0515,-0.1643,-0.2957,-0.4266,-0.5087,-0.6082,-0.6816,-0.733,-0.7803,-0.8035,-0.8517,-0.876,-0.9143,1.5614,1.542,1.5069,1.4883,1.4775,1.4538,1.4369,1.4189,1.4061,1.3881,1.37,1.3536,1.3536,1.3484,1.3354,1.3224,1.3103,1.2936,1.2875,1.2928,1.292,1.2923,1.3029,1.3037,1.2978,1.294,1.2893,1.2893,1.2779,1.2902,1.2998,1.3041,1.3048,1.3194,1.3263,1.3255,1.3453,1.3706,1.3815,1.4001,1.4178,1.4201,1.4346,1.4425,1.4281,1.4198,1.4152,1.4351,1.4478,1.4444,1.4582,1.4767,1.5061,1.5183,1.5092,1.4631,1.4409,1.4145,1.3754,1.33,1.3126,1.3126,1.2803,1.2526,1.2526,1.2224,1.2016,1.1961,1.18,1.1706,1.1632,1.1558,1.1335,1.1111,1.1117,1.0893,1.0438,1.0293,0.9916,0.9387,0.9008,0.8551,0.8021,0.7795,0.7642,0.748,0.7211,0.6943,0.6787,0.6244,0.562,0.53,0.4719,0.4157,0.3775,0.3242,0.2852,0.2455,0.2143,0.193,0.1236,0.0424,-0.0518,-0.1568,-0.2882,-0.4274,-0.5472,-0.6557,-0.7213,-0.7644,-0.7911,-0.809,-0.8458,-0.8808,-0.9194,1.574,1.5798,1.5546,1.5352,1.5294,1.5079,1.4784,1.4529,1.4529,1.43,1.4061,1.401,1.395,1.395,1.3769,1.3769,1.3649,1.3415,1.3302,1.3302,1.3371,1.3557,1.3718,1.3769,1.388,1.395,1.3743,1.3502,1.3282,1.334,1.3434,1.3541,1.37,1.3807,1.3833,1.3966,1.4076,1.4163,1.4299,1.4338,1.4425,1.4497,1.4569,1.4569,1.4425,1.4494,1.4805,1.4662,1.4684,1.4904,1.4872,1.4889,1.5098,1.5043,1.4779,1.4554,1.4023,1.3722,1.3561,1.3319,1.3103,1.3022,1.2907,1.2673,1.2378,1.215,1.2009,1.1942,1.1787,1.1706,1.1632,1.1484,1.1335,1.1111,1.1129,1.083,1.0299,0.9765,0.9236,0.8703,0.8551,0.8174,0.771,0.7561,0.7565,0.7459,0.7234,0.7016,0.6791,0.6234,0.5752,0.5239,0.4629,0.4032,0.3463,0.2902,0.2589,0.2198,0.197,0.1592,0.0659,-0.0255,-0.112,-0.2174,-0.3221,-0.4604,-0.5922,-0.6805,-0.7267,-0.7612,-0.7898,-0.8227,-0.8579,-0.8865,-0.917,1.5439,1.5546,1.5604,1.5604,1.5556,1.5362,1.5186,1.5118,1.5059,1.4756,1.4419,1.4359,1.424,1.401,1.3941,1.395,1.3959,1.383,1.3649,1.351,1.3538,1.3526,1.362,1.3924,1.4098,1.3983,1.3725,1.3644,1.3721,1.3931,1.4089,1.4155,1.4137,1.4281,1.4289,1.4353,1.4353,1.4425,1.4497,1.4569,1.4497,1.4569,1.4569,1.4569,1.4569,1.456,1.4582,1.4336,1.4317,1.4482,1.4653,1.4807,1.4925,1.494,1.4656,1.4241,1.403,1.379,1.352,1.3345,1.3193,1.3046,1.2893,1.268,1.2472,1.2157,1.2016,1.2022,1.1787,1.1632,1.1477,1.1477,1.1347,1.1105,1.1123,1.083,1.0293,0.9916,0.9463,0.8941,0.8708,0.8399,0.7949,0.7723,0.7545,0.7646,0.7331,0.7082,0.6845,0.6296,0.5676,0.5125,0.4506,0.3899,0.3153,0.2668,0.2353,0.1961,0.1651,0.1199,0.0248,-0.0844,-0.1714,-0.2768,-0.3725,-0.4872,-0.616,-0.6986,-0.7381,-0.7697,-0.8008,-0.8313,-0.8727,-0.8941,-0.9165,1.5371,1.5604,1.573,1.5856,1.5972,1.5836,1.5768,1.57,1.5526,1.5177,1.4824,1.4715,1.4488,1.4258,1.4249,1.4249,1.4216,1.4273,1.4223,1.3996,1.3885,1.3835,1.3882,1.4363,1.4472,1.4295,1.4258,1.4082,1.3893,1.4182,1.4285,1.4243,1.4418,1.4497,1.4641,1.4641,1.4713,1.4713,1.4721,1.4721,1.4641,1.4569,1.4569,1.4569,1.4569,1.4497,1.4433,1.4274,1.4252,1.4469,1.4826,1.5046,1.5152,1.4952,1.4624,1.4297,1.4074,1.3918,1.3667,1.3506,1.3273,1.3119,1.2826,1.2606,1.2466,1.2231,1.219,1.2234,1.2006,1.187,1.1898,1.169,1.1426,1.1187,1.0952,1.0605,1.0062,0.9916,0.9601,0.9173,0.8913,0.8598,0.8185,0.7823,0.7548,0.7589,0.7388,0.6983,0.6836,0.6357,0.561,0.4948,0.4232,0.3609,0.2835,0.2433,0.212,0.1728,0.1336,0.0807,-0.0,-0.1091,-0.2124,-0.3259,-0.4392,-0.5309,-0.6576,-0.713,-0.7592,-0.7857,-0.8035,-0.8376,-0.8708,-0.8861,-0.9089,1.5604,1.5856,1.5914,1.6029,1.6316,1.6316,1.6249,1.6239,1.5999,1.5642,1.5235,1.502,1.4803,1.4565,1.4547,1.4575,1.4607,1.4769,1.4881,1.4872,1.4655,1.4564,1.4795,1.5044,1.4967,1.494,1.4981,1.4771,1.429,1.4308,1.4194,1.4274,1.4561,1.4665,1.4768,1.5023,1.5119,1.5017,1.4928,1.4792,1.4681,1.4569,1.4569,1.4569,1.4497,1.4497,1.4497,1.4408,1.4475,1.505,1.5263,1.5446,1.5393,1.4912,1.4668,1.4538,1.4256,1.4064,1.385,1.3793,1.3638,1.3195,1.3054,1.2781,1.2526,1.2398,1.2397,1.2583,1.228,1.2201,1.2492,1.2232,1.1629,1.1182,1.0661,1.0154,0.9614,0.9765,0.9611,0.9203,0.899,0.877,0.816,0.7861,0.7593,0.7435,0.721,0.6898,0.657,0.6129,0.5392,0.4711,0.4028,0.3378,0.2601,0.2198,0.1885,0.1335,0.0944,0.0322,-0.033,-0.1414,-0.252,-0.3733,-0.472,-0.5782,-0.6603,-0.7122,-0.7545,-0.7819,-0.8047,-0.8403,-0.8627,-0.878,-0.9013,1.5498,1.5856,1.5798,1.6029,1.6316,1.6249,1.6239,1.6374,1.6306,1.5846,1.5323,1.5156,1.4921,1.4515,1.4575,1.4653,1.4909,1.5074,1.5342,1.5713,1.5653,1.561,1.5558,1.52,1.511,1.5275,1.5147,1.495,1.4931,1.4879,1.4856,1.4911,1.4912,1.5025,1.5251,1.533,1.5495,1.5567,1.517,1.5025,1.5178,1.4856,1.4569,1.4569,1.4585,1.4593,1.4601,1.483,1.479,1.4766,1.5026,1.508,1.4996,1.4973,1.4804,1.4385,1.4524,1.4449,1.4246,1.4055,1.3935,1.3803,1.3432,1.316,1.2866,1.2563,1.2533,1.2516,1.2215,1.2183,1.2324,1.2184,1.1745,1.1068,1.0483,0.9949,0.963,0.9695,0.9651,0.9096,0.9048,0.8741,0.826,0.7778,0.7484,0.7275,0.6902,0.6603,0.6294,0.5835,0.5074,0.4464,0.379,0.306,0.2533,0.2047,0.1571,0.1021,0.0473,-0.0159,-0.0891,-0.1885,-0.2985,-0.4112,-0.4725,-0.565,-0.6417,-0.7017,-0.7342,-0.7621,-0.7949,-0.8246,-0.8551,-0.8703,-0.9008,1.5508,1.5894,1.5662,1.5924,1.6425,1.6134,1.6134,1.628,1.6155,1.5788,1.5323,1.5205,1.4921,1.4524,1.487,1.5116,1.5235,1.5649,1.5993,1.6278,1.645,1.6318,1.5974,1.5283,1.5118,1.5426,1.5363,1.5284,1.5229,1.5353,1.5281,1.5168,1.5462,1.5643,1.5577,1.5856,1.5964,1.6019,1.5583,1.542,1.5565,1.5263,1.5192,1.516,1.5225,1.5225,1.5348,1.5721,1.5575,1.5083,1.5062,1.514,1.5109,1.5104,1.5034,1.4672,1.4911,1.49,1.4436,1.4285,1.4123,1.3888,1.3653,1.342,1.3128,1.2946,1.2882,1.2818,1.2478,1.2454,1.2469,1.2325,1.1808,1.1277,1.0695,1.018,0.9699,0.9842,0.971,0.9424,0.9132,0.8797,0.8247,0.7721,0.7326,0.703,0.658,0.6279,0.6034,0.5333,0.464,0.3948,0.3374,0.2816,0.2138,0.1732,0.0707,0.0079,-0.0472,-0.0951,-0.1522,-0.2432,-0.3205,-0.4114,-0.4755,-0.5422,-0.6167,-0.6718,-0.6958,-0.7263,-0.7681,-0.8021,-0.8322,-0.8551,-0.8932,1.5488,1.5874,1.5536,1.5876,1.6456,1.6087,1.6019,1.6185,1.5924,1.5604,1.5245,1.5205,1.5037,1.4708,1.5396,1.5747,1.566,1.6438,1.6703,1.6747,1.6816,1.6664,1.6158,1.567,1.5487,1.5613,1.5726,1.5647,1.5572,1.5705,1.5576,1.5518,1.6162,1.6271,1.613,1.6388,1.6547,1.6451,1.6149,1.6016,1.592,1.5771,1.5707,1.5783,1.5783,1.5867,1.6109,1.6407,1.6211,1.5268,1.5268,1.5499,1.5636,1.5436,1.5358,1.5327,1.5385,1.5158,1.4668,1.4496,1.4281,1.3905,1.3898,1.365,1.3346,1.3326,1.332,1.3189,1.2911,1.2789,1.2835,1.2469,1.2087,1.1618,1.1307,1.0803,1.0169,0.9932,0.9917,0.9854,0.9333,0.8868,0.8359,0.7757,0.7094,0.6595,0.612,0.5658,0.5282,0.4801,0.4059,0.3253,0.2864,0.2489,0.1904,0.1336,-0.0,-0.1021,-0.1569,-0.2051,-0.239,-0.3066,-0.3516,-0.414,-0.4836,-0.5354,-0.5852,-0.6285,-0.6608,-0.7026,-0.7548,-0.7868,-0.8097,-0.825,-0.8556,1.5381,1.573,1.5381,1.5624,1.6144,1.5999,1.5999,1.6134,1.6009,1.5662,1.5323,1.5205,1.5338,1.5616,1.5821,1.6158,1.6539,1.6873,1.7045,1.7045,1.654,1.6533,1.6464,1.6269,1.6114,1.5991,1.5859,1.5867,1.6033,1.6191,1.6237,1.6255,1.6321,1.636,1.6627,1.6928,1.714,1.7033,1.6702,1.6594,1.6649,1.6252,1.6061,1.6053,1.5968,1.5859,1.5835,1.5899,1.5867,1.575,1.5886,1.6046,1.5811,1.5779,1.5636,1.5545,1.5597,1.5487,1.5094,1.4858,1.4785,1.4392,1.42,1.4111,1.3561,1.3459,1.3404,1.3225,1.3097,1.2978,1.3062,1.3008,1.2559,1.2029,1.164,1.1216,1.064,1.0253,1.008,0.9707,0.9269,0.8792,0.8336,0.7481,0.6763,0.6252,0.5618,0.4954,0.4536,0.4204,0.3501,0.2809,0.2508,0.2225,0.1505,0.0786,-0.0471,-0.1493,-0.2119,-0.2746,-0.3092,-0.3504,-0.3863,-0.4356,-0.4909,-0.5337,-0.5602,-0.6218,-0.664,-0.7021,-0.7411,-0.7714,-0.7944,-0.8102,-0.8484,1.5332,1.5682,1.5332,1.5488,1.5853,1.5758,1.572,1.573,1.5672,1.5488,1.5254,1.5448,1.5739,1.5962,1.6218,1.6534,1.668,1.6751,1.691,1.7083,1.689,1.6751,1.6682,1.683,1.676,1.6307,1.635,1.6474,1.6678,1.6893,1.7015,1.6819,1.7115,1.7234,1.7116,1.7397,1.7522,1.7476,1.7204,1.7088,1.7108,1.6929,1.6727,1.6797,1.6719,1.664,1.6839,1.6594,1.6331,1.6094,1.6189,1.6222,1.595,1.5802,1.5708,1.5695,1.571,1.5467,1.5148,1.4968,1.4727,1.4496,1.4405,1.4246,1.3964,1.3758,1.3675,1.3509,1.3355,1.3336,1.3118,1.3052,1.2753,1.2248,1.1842,1.1433,1.0826,1.0455,1.0113,0.9628,0.9137,0.8626,0.7971,0.7127,0.6435,0.5849,0.5344,0.4674,0.4116,0.3773,0.323,0.2614,0.2317,0.189,0.1102,0.0236,-0.0943,-0.1729,-0.2277,-0.2824,-0.3306,-0.3704,-0.418,-0.4498,-0.4822,-0.4833,-0.5189,-0.5845,-0.6471,-0.6742,-0.7026,-0.7561,-0.8016,-0.8322,-0.8784,1.5264,1.5556,1.5205,1.5303,1.5555,1.5468,1.5439,1.5469,1.5391,1.5371,1.5195,1.577,1.5897,1.6159,1.6416,1.6515,1.6548,1.6562,1.6924,1.7267,1.7392,1.7176,1.7056,1.7269,1.7344,1.6695,1.6875,1.7027,1.7242,1.7712,1.7643,1.7353,1.804,1.7959,1.7547,1.7692,1.7908,1.7755,1.7568,1.7454,1.7504,1.7398,1.7454,1.7446,1.7438,1.7438,1.7446,1.7276,1.6936,1.623,1.6254,1.619,1.5981,1.5731,1.5621,1.5628,1.5621,1.5331,1.4908,1.472,1.4573,1.4173,1.4321,1.4321,1.4139,1.4119,1.4028,1.3866,1.3704,1.362,1.3222,1.3143,1.2862,1.2314,1.1906,1.1384,1.0921,1.0531,1.0108,0.9561,0.8941,0.8355,0.7577,0.682,0.6124,0.5473,0.4967,0.4442,0.3876,0.3323,0.2862,0.243,0.2141,0.1258,0.0471,-0.0236,-0.1415,-0.2042,-0.2512,-0.3061,-0.3606,-0.4001,-0.4392,-0.4368,-0.4568,-0.4719,-0.5158,-0.5839,-0.6314,-0.6458,-0.6953,-0.7642,-0.8093,-0.8546,-0.9008,1.5147,1.5088,1.4743,1.4793,1.5137,1.5294,1.5488,1.5682,1.5778,1.571,1.5381,1.5518,1.6047,1.651,1.6179,1.65,1.6963,1.714,1.7366,1.7627,1.7684,1.7505,1.7581,1.7938,1.7972,1.7769,1.7694,1.7533,1.7624,1.7956,1.8139,1.8029,1.8285,1.8186,1.8026,1.7934,1.8112,1.8031,1.7959,1.7878,1.7878,1.7708,1.7627,1.7554,1.7554,1.7473,1.7302,1.7204,1.6806,1.6277,1.6346,1.6137,1.5805,1.5468,1.5323,1.5289,1.5238,1.5084,1.4755,1.4657,1.4566,1.4489,1.4405,1.4321,1.4166,1.4082,1.4075,1.3997,1.3906,1.3822,1.3392,1.3143,1.2784,1.2225,1.1616,1.1219,1.0747,1.0393,0.9947,0.9269,0.8653,0.7975,0.7278,0.6512,0.5785,0.52,0.462,0.4155,0.3529,0.3078,0.2555,0.2221,0.1892,0.0786,-0.0314,-0.1021,-0.1807,-0.2276,-0.2744,-0.3294,-0.3841,-0.4309,-0.4611,-0.4753,-0.4958,-0.524,-0.567,-0.6108,-0.6533,-0.6846,-0.7326,-0.7872,-0.8246,-0.8699,-0.9008,1.5313,1.5332,1.498,1.497,1.5196,1.5254,1.5381,1.5439,1.5488,1.543,1.5312,1.5545,1.6094,1.6586,1.6471,1.665,1.7127,1.7456,1.7693,1.8014,1.8273,1.8399,1.844,1.8815,1.8874,1.8754,1.8597,1.8406,1.8323,1.8647,1.8747,1.8671,1.8762,1.8674,1.8523,1.8585,1.8594,1.8514,1.8442,1.8371,1.829,1.8031,1.7789,1.7708,1.7473,1.7392,1.7318,1.6984,1.6555,1.6061,1.5971,1.5702,1.5332,1.505,1.5072,1.517,1.4992,1.4824,1.4566,1.4566,1.4482,1.4334,1.4243,1.4243,1.4075,1.399,1.3906,1.3815,1.3737,1.3568,1.3045,1.2966,1.2534,1.1929,1.1413,1.0977,1.0544,1.012,0.9465,0.8875,0.8324,0.7685,0.6982,0.6214,0.5459,0.4872,0.432,0.3806,0.3292,0.2798,0.2382,0.1652,0.1258,0.0079,-0.0942,-0.1571,-0.2199,-0.2588,-0.3134,-0.3682,-0.4151,-0.4621,-0.5087,-0.5392,-0.5585,-0.5781,-0.6023,-0.6416,-0.6904,-0.7306,-0.7783,-0.8174,-0.8475,-0.8856,-0.9236,1.542,1.5498,1.5264,1.5196,1.5245,1.5323,1.5274,1.5264,1.5264,1.5254,1.5145,1.5679,1.6279,1.6762,1.7031,1.7239,1.7416,1.7735,1.8346,1.8699,1.9053,1.9321,1.9423,1.9667,1.9624,1.9409,1.9678,1.9545,1.8993,1.9201,1.9177,1.9116,1.9213,1.9231,1.9011,1.8993,1.9152,1.9082,1.8931,1.8851,1.8612,1.8282,1.8031,1.7951,1.7635,1.7481,1.7498,1.6992,1.6458,1.5924,1.5702,1.5313,1.4756,1.4626,1.4817,1.5094,1.4894,1.4566,1.4405,1.4321,1.4328,1.4173,1.4088,1.4082,1.3913,1.373,1.3548,1.3464,1.3385,1.3222,1.2875,1.2534,1.2192,1.1671,1.1068,1.0636,1.0202,0.9662,0.8892,0.8341,0.7983,0.7322,0.6469,0.5717,0.4887,0.4584,0.4026,0.3577,0.3068,0.2669,0.2169,0.1186,0.0393,-0.0707,-0.157,-0.2041,-0.2589,-0.2979,-0.3604,-0.4151,-0.454,-0.5007,-0.5398,-0.5867,-0.6167,-0.6371,-0.6549,-0.6788,-0.7246,-0.7706,-0.8097,-0.8479,-0.8861,-0.9165,-0.9544,1.5088,1.4834,1.497,1.4961,1.4893,1.5381,1.5546,1.542,1.571,1.571,1.5439,1.5999,1.6503,1.7203,1.8275,1.8378,1.8429,1.8844,1.934,1.9571,1.9647,1.9717,1.9614,1.9772,2.0013,2.001,2.0479,1.9982,1.9568,1.958,1.9497,1.9356,1.9408,1.9301,1.9399,1.9399,1.924,1.9478,1.9311,1.9082,1.8692,1.8451,1.8282,1.7959,1.7789,1.7546,1.7318,1.6894,1.6409,1.5947,1.5784,1.5494,1.5153,1.4814,1.4706,1.4748,1.4566,1.4321,1.4166,1.4166,1.4166,1.4088,1.4088,1.3906,1.3737,1.3568,1.3404,1.3442,1.3247,1.2881,1.2534,1.2186,1.1671,1.1073,1.0554,1.0038,0.9602,0.9152,0.838,0.7584,0.7193,0.6521,0.5808,0.5048,0.4405,0.4114,0.3798,0.3346,0.2829,0.226,0.153,0.0475,-0.0314,-0.1414,-0.1962,-0.2511,-0.2981,-0.3372,-0.3995,-0.4618,-0.4932,-0.5321,-0.5867,-0.6257,-0.6563,-0.6813,-0.7072,-0.7301,-0.7735,-0.8102,-0.8408,-0.8789,-0.917,-0.9549,-0.9922,1.5147,1.5029,1.5088,1.5098,1.502,1.5371,1.5478,1.5478,1.5594,1.5781,1.6009,1.6198,1.6858,1.7738,1.8633,1.892,1.9032,1.9585,1.9935,2.0206,2.0292,2.0432,2.0371,2.052,2.0668,2.0722,2.0907,2.096,2.04,2.0165,2.0061,1.9854,1.9818,1.9715,1.9715,1.9794,1.9872,1.9872,1.9636,1.9161,1.8851,1.8612,1.8362,1.787,1.7781,1.7456,1.7057,1.6722,1.6347,1.597,1.5779,1.5501,1.5248,1.4928,1.4678,1.4741,1.465,1.4405,1.4166,1.4088,1.3997,1.3913,1.3828,1.3737,1.3392,1.3222,1.3064,1.2832,1.2808,1.2448,1.2106,1.1671,1.1154,1.0554,1.0125,0.9607,0.9078,0.8456,0.7888,0.709,0.6306,0.5709,0.5134,0.449,0.3932,0.3674,0.3353,0.2919,0.2163,0.1429,0.0554,-0.0394,-0.1178,-0.1964,-0.2433,-0.2823,-0.3372,-0.3841,-0.4382,-0.4929,-0.5321,-0.5712,-0.618,-0.649,-0.6718,-0.7061,-0.743,-0.7802,-0.8064,-0.8426,-0.8713,-0.9103,-0.9565,-1.0148,-1.0594,1.5205,1.5205,1.5274,1.5323,1.5332,1.5478,1.5663,1.5762,1.5879,1.6178,1.6648,1.6982,1.7583,1.8376,1.8942,1.9425,1.9825,2.0186,2.048,2.0757,2.0994,2.1048,2.0961,2.1128,2.1181,2.1412,2.1273,2.1269,2.1235,2.1043,2.069,2.0476,2.028,2.0224,2.0117,2.0186,2.0342,2.0333,1.9872,1.9487,1.902,1.8692,1.8282,1.7861,1.7538,1.7212,1.673,1.6319,1.6147,1.5899,1.556,1.5304,1.5213,1.4887,1.4741,1.465,1.465,1.4489,1.4243,1.4159,1.399,1.3822,1.3561,1.3392,1.3137,1.3052,1.2802,1.2478,1.2203,1.1843,1.1408,1.1241,1.0727,1.0212,0.9781,0.9257,0.8727,0.8006,0.7253,0.6375,0.5601,0.4927,0.4369,0.392,0.3548,0.3258,0.2912,0.2414,0.1595,0.0631,-0.0314,-0.1256,-0.1727,-0.2434,-0.2981,-0.3372,-0.3843,-0.4316,-0.4857,-0.524,-0.5631,-0.6018,-0.6405,-0.6641,-0.6968,-0.7586,-0.8221,-0.8307,-0.8481,-0.8904,-0.9304,-0.9611,-1.0035,-1.0611,-1.095,1.5313,1.5205,1.5556,1.5614,1.5682,1.5941,1.629,1.6616,1.6824,1.7212,1.775,1.8281,1.871,1.9233,1.9661,2.0121,2.0613,2.0928,2.1248,2.158,2.1645,2.1359,2.1215,2.1148,2.1188,2.1114,2.1283,2.1471,2.152,2.1499,2.1301,2.1143,2.0693,2.0644,2.0508,2.042,2.0489,2.0411,2.0029,1.9715,1.925,1.8851,1.8273,1.787,1.7221,1.673,1.6648,1.6154,1.5824,1.5748,1.5333,1.5166,1.5082,1.4824,1.4734,1.465,1.465,1.451,1.4375,1.4304,1.4095,1.3743,1.3392,1.3137,1.2966,1.2619,1.246,1.2295,1.1849,1.1413,1.1068,1.0727,1.0294,0.9772,0.9253,0.864,0.8101,0.745,0.6611,0.5659,0.4969,0.4371,0.3812,0.3362,0.3097,0.2816,0.1929,0.144,0.0639,-0.0317,-0.118,-0.1961,-0.2275,-0.2824,-0.3608,-0.4084,-0.4496,-0.4888,-0.5352,-0.5646,-0.5864,-0.6251,-0.6637,-0.7091,-0.7442,-0.8225,-0.8936,-0.908,-0.9306,-0.9625,-0.9901,-1.0248,-1.0511,-1.0974,-1.123,1.5362,1.5362,1.5682,1.5798,1.573,1.6134,1.6564,1.6984,1.7273,1.7874,1.8721,1.918,1.9726,2.0133,2.0154,2.0673,2.136,2.1282,2.1617,2.1662,2.1655,2.1436,2.1282,2.1255,2.1268,2.14,2.163,2.1809,2.1947,2.171,2.171,2.1481,2.1153,2.0858,2.0722,2.0576,2.0498,2.0342,2.0108,1.9706,1.924,1.9002,1.8442,1.7635,1.7619,1.6894,1.6409,1.6079,1.5831,1.5506,1.5082,1.5082,1.4999,1.4824,1.4734,1.4741,1.4755,1.4677,1.4381,1.4322,1.3991,1.3601,1.3163,1.2796,1.2711,1.2454,1.2106,1.1849,1.1505,1.1154,1.0467,1.012,0.9689,0.9161,0.8636,0.8025,0.7457,0.689,0.6013,0.5064,0.4373,0.379,0.3334,0.2892,0.2637,0.2384,0.1352,0.0478,-0.04,-0.1038,-0.1827,-0.2523,-0.2758,-0.3228,-0.4014,-0.4506,-0.5083,-0.5396,-0.5783,-0.6012,-0.6234,-0.656,-0.6964,-0.7438,-0.8011,-0.8731,-0.9363,-0.9822,-1.011,-1.0242,-1.0467,-1.077,-1.1111,-1.1428,-1.1533,1.5536,1.5536,1.574,1.5788,1.5798,1.6335,1.6877,1.7441,1.7871,1.8585,1.9585,2.0064,2.0445,2.0749,2.0795,2.1064,2.1643,2.1649,2.1712,2.1793,2.1731,2.1502,2.1436,2.1389,2.148,2.1706,2.1835,2.1888,2.1959,2.1847,2.1805,2.1751,2.1686,2.1379,2.1041,2.0731,2.0576,2.0264,2.002,1.9706,1.924,1.8763,1.8434,1.7546,1.7286,1.6886,1.6327,1.5997,1.5831,1.5499,1.5166,1.4999,1.4908,1.4908,1.4734,1.4762,1.4761,1.4737,1.4542,1.4073,1.3805,1.3486,1.2924,1.2564,1.2448,1.2283,1.186,1.1413,1.1154,1.0722,0.9946,0.9689,0.9253,0.8815,0.8197,0.7573,0.687,0.6291,0.5326,0.4393,0.3812,0.3262,0.2533,0.1945,0.154,0.1209,0.0562,-0.0404,-0.1303,-0.1867,-0.2252,-0.2875,-0.3254,-0.3803,-0.4353,-0.5031,-0.5633,-0.5796,-0.6112,-0.643,-0.6641,-0.6965,-0.741,-0.806,-0.8643,-0.9317,-0.9943,-1.0536,-1.0677,-1.0785,-1.0975,-1.1141,-1.1458,-1.1706,-1.1922,1.5798,1.5672,1.5682,1.5778,1.5934,1.6652,1.7384,1.8139,1.8814,1.953,2.0279,2.0809,2.0951,2.1081,2.1235,2.1685,2.1908,2.1723,2.1776,2.2103,2.1959,2.1807,2.1731,2.1752,2.1696,2.1599,2.1758,2.1896,2.1809,2.1896,2.1834,2.1814,2.1849,2.1731,2.1436,2.1061,2.0664,2.0264,2.002,1.9784,1.932,1.8603,1.8112,1.7538,1.7041,1.6558,1.6079,1.5914,1.5748,1.5582,1.5166,1.4999,1.4999,1.4824,1.4657,1.4664,1.4593,1.4482,1.4462,1.3837,1.3592,1.3385,1.2835,1.2381,1.2283,1.1946,1.1516,1.0982,1.0636,1.0294,0.9777,0.934,0.8903,0.8277,0.7658,0.6987,0.6297,0.5571,0.4627,0.3936,0.3379,0.2763,0.1802,0.0988,0.0412,-0.0082,-0.0571,-0.1226,-0.2061,-0.2542,-0.2837,-0.3227,-0.3764,-0.4346,-0.4916,-0.5675,-0.6196,-0.628,-0.6522,-0.6841,-0.7217,-0.7557,-0.8036,-0.8718,-0.931,-0.9941,-1.0589,-1.1244,-1.1292,-1.1242,-1.1286,-1.1378,-1.1713,-1.1929,-1.2144,1.5672,1.5546,1.5672,1.5662,1.5712,1.6475,1.7511,1.8595,1.9532,2.0127,2.0542,2.1162,2.1475,2.1603,2.2044,2.2363,2.2379,2.2391,2.2499,2.2371,2.2176,2.2101,2.2025,2.2025,2.1873,2.1807,2.1883,2.1949,2.1838,2.2025,2.1959,2.1883,2.1883,2.1731,2.1425,2.1051,2.0673,2.0108,1.9863,1.9636,1.9011,1.8531,1.7959,1.7392,1.6992,1.6484,1.5914,1.5831,1.5831,1.5499,1.5166,1.4908,1.4831,1.4657,1.4405,1.4382,1.4362,1.4363,1.4077,1.3616,1.3297,1.307,1.2633,1.2043,1.1677,1.1419,1.0987,1.0554,1.012,0.9689,0.9078,0.8723,0.8193,0.7548,0.6906,0.6219,0.5526,0.4787,0.4035,0.3485,0.2967,0.1816,0.083,-0.0168,-0.0761,-0.1267,-0.1762,-0.1897,-0.2561,-0.3032,-0.3406,-0.3732,-0.421,-0.4814,-0.5502,-0.6128,-0.6624,-0.6774,-0.693,-0.7248,-0.7619,-0.8053,-0.8638,-0.9173,-0.9932,-1.0622,-1.1004,-1.1378,-1.1611,-1.1676,-1.1665,-1.1751,-1.2074,-1.2271,-1.2378,1.5884,1.572,1.6006,1.6098,1.6188,1.6839,1.7895,1.9233,2.0422,2.0969,2.1181,2.2044,2.24,2.2472,2.2744,2.2911,2.2767,2.2703,2.2703,2.2478,2.2402,2.2327,2.2327,2.2327,2.2252,2.2187,2.2262,2.2327,2.2327,2.2402,2.2338,2.2111,2.1873,2.1731,2.1502,2.1128,2.0664,2.0108,1.9794,1.958,1.9057,1.8493,1.7865,1.7343,1.6908,1.6476,1.5989,1.5831,1.5831,1.5423,1.5082,1.4734,1.4657,1.4405,1.4237,1.407,1.4047,1.4032,1.3827,1.3181,1.2962,1.2825,1.2224,1.1721,1.1332,1.1068,1.0641,1.0125,0.9602,0.9165,0.8636,0.8285,0.7636,0.6906,0.6309,0.5723,0.4959,0.4159,0.3393,0.2914,0.2176,0.1007,-0.0085,-0.1202,-0.2084,-0.2512,-0.2934,-0.2959,-0.2979,-0.3449,-0.3918,-0.4245,-0.4735,-0.5252,-0.5909,-0.6525,-0.693,-0.7123,-0.7424,-0.7644,-0.8004,-0.843,-0.9077,-0.966,-1.039,-1.0869,-1.1177,-1.1456,-1.1714,-1.191,-1.1945,-1.2155,-1.2506,-1.2641,-1.2748,1.64,1.6185,1.6732,1.7012,1.7245,1.7606,1.868,2.0205,2.1413,2.1904,2.2062,2.3257,2.3421,2.3254,2.348,2.3316,2.2905,2.2852,2.2777,2.2703,2.2542,2.2553,2.2628,2.2628,2.2553,2.2703,2.2777,2.2777,2.2927,2.2703,2.2563,2.2338,2.2025,2.1807,2.1512,2.1128,2.0576,2.0098,1.9724,1.9457,1.8994,1.825,1.7696,1.7236,1.67,1.6177,1.5824,1.5665,1.5575,1.5318,1.4985,1.4824,1.4573,1.4328,1.399,1.3754,1.3634,1.3701,1.3537,1.2881,1.2495,1.2298,1.1949,1.1581,1.116,1.0722,1.0207,0.9689,0.9165,0.8903,0.846,0.7895,0.7246,0.6573,0.5984,0.5232,0.4413,0.3613,0.2772,0.2024,0.1271,0.0256,-0.0861,-0.1921,-0.2539,-0.2856,-0.3178,-0.3484,-0.3588,-0.3812,-0.4287,-0.4697,-0.5191,-0.5688,-0.6284,-0.6841,-0.7278,-0.7541,-0.7725,-0.7938,-0.838,-0.881,-0.9477,-1.0179,-1.0737,-1.1123,-1.1194,-1.1458,-1.1853,-1.2045,-1.2443,-1.2553,-1.2912,-1.3198,-1.3429,1.6066,1.5886,1.6317,1.6507,1.6829,1.8062,1.949,2.0776,2.1396,2.1755,2.2151,2.3398,2.3665,2.3112,2.4068,2.3829,2.3519,2.3298,2.3075,2.2927,2.2692,2.2703,2.2777,2.2777,2.2703,2.2703,2.2777,2.299,2.2852,2.2703,2.2478,2.2176,2.2025,2.1655,2.1349,2.0964,2.0489,2.002,1.9636,1.9288,1.8788,1.8036,1.7434,1.6865,1.642,1.5914,1.5499,1.5333,1.5242,1.4985,1.4643,1.4482,1.4489,1.4095,1.3743,1.3609,1.3477,1.3383,1.3151,1.269,1.2166,1.1727,1.1345,1.105,1.0646,1.0207,0.9685,0.9253,0.8727,0.8376,0.7914,0.7351,0.6621,0.5964,0.5378,0.4626,0.3821,0.2971,0.2125,0.1118,0.0346,-0.0519,-0.1662,-0.21,-0.2711,-0.2932,-0.3325,-0.3716,-0.4018,-0.4314,-0.4601,-0.5002,-0.5539,-0.6025,-0.6479,-0.7045,-0.7558,-0.7881,-0.8014,-0.8246,-0.8774,-0.9375,-1.0018,-1.0561,-1.101,-1.1123,-1.1127,-1.1577,-1.2168,-1.2746,-1.3146,-1.3167,-1.3252,-1.359,-1.4028,1.6134,1.6042,1.6628,1.7052,1.7655,1.8818,2.002,2.1063,2.1643,2.206,2.2468,2.3688,2.399,2.3824,2.4316,2.4238,2.3604,2.3593,2.3372,2.3001,2.2852,2.2777,2.2777,2.2927,2.299,2.2927,2.3001,2.3213,2.3001,2.2703,2.2478,2.2101,2.1873,2.1578,2.1195,2.0809,2.0411,1.9942,1.9497,1.9092,1.8547,1.7865,1.713,1.6617,1.6163,1.5582,1.5166,1.4999,1.4824,1.4734,1.4475,1.4314,1.4153,1.3672,1.3485,1.3357,1.295,1.283,1.2615,1.2194,1.1764,1.1268,1.087,1.042,1.0125,0.9689,0.9253,0.8811,0.8288,0.7757,0.7285,0.6815,0.6005,0.52,0.4608,0.4032,0.3169,0.2312,0.1299,0.0263,-0.0617,-0.1496,-0.2114,-0.2461,-0.2874,-0.3249,-0.3707,-0.4174,-0.4383,-0.4589,-0.4851,-0.5129,-0.5702,-0.627,-0.6732,-0.7224,-0.7693,-0.8048,-0.8179,-0.851,-0.9181,-0.9812,-1.0402,-1.0778,-1.1193,-1.1312,-1.1464,-1.198,-1.2593,-1.3185,-1.3811,-1.3824,-1.3849,-1.3939,-1.4461,1.6368,1.6382,1.7307,1.8279,1.9333,1.9704,2.0347,2.1152,2.2105,2.264,2.2937,2.3943,2.4457,2.4411,2.4587,2.4394,2.4032,2.3959,2.3593,2.3001,2.2777,2.2703,2.2852,2.3075,2.315,2.3309,2.3383,2.3372,2.3224,2.2927,2.2402,2.2101,2.1883,2.1578,2.1205,2.0654,2.0177,1.9784,1.9268,1.878,1.8452,1.7771,1.703,1.6713,1.5996,1.5318,1.5075,1.4824,1.4657,1.4566,1.4398,1.4237,1.3737,1.3395,1.3267,1.3087,1.2723,1.2444,1.2242,1.1857,1.1353,1.0875,1.0328,0.9975,0.9598,0.934,0.8899,0.8396,0.779,0.7344,0.6877,0.6233,0.5507,0.4766,0.4102,0.3304,0.2356,0.1397,0.0351,-0.0622,-0.1336,-0.213,-0.2448,-0.2873,-0.3251,-0.3621,-0.4053,-0.4503,-0.4806,-0.4921,-0.5121,-0.5288,-0.5873,-0.6377,-0.681,-0.7275,-0.7748,-0.8087,-0.8237,-0.8777,-0.9351,-1.0074,-1.0719,-1.1027,-1.1313,-1.171,-1.2024,-1.2472,-1.303,-1.3731,-1.4238,-1.4459,-1.4501,-1.4479,-1.4736,1.6516,1.6417,1.7614,1.8697,1.9704,1.9987,2.0368,2.1034,2.1891,2.2455,2.2894,2.3784,2.4383,2.4587,2.4886,2.4814,2.4659,2.4238,2.3948,2.3372,2.2927,2.2628,2.2777,2.3001,2.3161,2.3224,2.3298,2.3224,2.2852,2.2553,2.2252,2.1883,2.1578,2.1272,2.1051,2.042,1.9863,1.9548,1.8851,1.8397,1.807,1.7581,1.6884,1.6353,1.5658,1.5151,1.4908,1.4566,1.4405,1.4243,1.399,1.3737,1.3319,1.3083,1.2992,1.2831,1.2646,1.221,1.1863,1.1492,1.1106,1.0593,1.0071,0.9607,0.924,0.8982,0.8472,0.7974,0.7457,0.692,0.6376,0.573,0.5085,0.4333,0.3599,0.256,0.1598,0.0445,-0.0535,-0.1251,-0.2063,-0.2484,-0.2879,-0.3259,-0.3699,-0.4032,-0.4339,-0.476,-0.5086,-0.5303,-0.5393,-0.5674,-0.6076,-0.6551,-0.6951,-0.7346,-0.7827,-0.8194,-0.8434,-0.8941,-0.9587,-1.0316,-1.1008,-1.1146,-1.145,-1.1864,-1.2376,-1.2973,-1.3553,-1.4221,-1.459,-1.4853,-1.4926,-1.4926,-1.513,1.6972,1.6888,1.7912,1.8856,1.9628,2.0053,2.0399,2.0837,2.1902,2.2479,2.2781,2.3595,2.4322,2.4659,2.5016,2.5229,2.5016,2.4527,2.3948,2.3446,2.2927,2.2553,2.2628,2.2777,2.2777,2.2852,2.3001,2.2927,2.2402,2.2025,2.1807,2.1502,2.1195,2.0799,2.0576,1.9863,1.9301,1.9143,1.8353,1.787,1.7627,1.7057,1.6476,1.5816,1.5325,1.4901,1.4489,1.4237,1.3984,1.3887,1.3683,1.3382,1.312,1.2903,1.2693,1.2484,1.2134,1.1915,1.1513,1.1096,1.0751,1.0152,0.9689,0.9161,0.8803,0.8456,0.7929,0.7425,0.6989,0.6542,0.5827,0.5191,0.4383,0.3559,0.3019,0.2226,0.0803,-0.0536,-0.1342,-0.1881,-0.2596,-0.3195,-0.3585,-0.3984,-0.432,-0.4596,-0.4952,-0.5118,-0.5419,-0.5634,-0.5792,-0.5964,-0.6359,-0.6767,-0.7215,-0.7606,-0.793,-0.8276,-0.8558,-0.9218,-0.9927,-1.0652,-1.1278,-1.1329,-1.1522,-1.2043,-1.2601,-1.3236,-1.3996,-1.4717,-1.5056,-1.5271,-1.5337,-1.5277,-1.545,1.7531,1.7579,1.8319,1.8963,1.9441,2.0085,2.0475,2.0696,2.2036,2.2548,2.2651,2.3561,2.4337,2.4731,2.4945,2.5158,2.5028,2.4539,2.3897,2.3446,2.2777,2.2553,2.2402,2.2392,2.2478,2.2553,2.2628,2.2478,2.2187,2.1731,2.1339,2.1041,2.0498,1.9942,1.9696,1.9222,1.8745,1.8505,1.7942,1.7302,1.6968,1.655,1.5974,1.5477,1.4992,1.4489,1.4159,1.3913,1.3652,1.3579,1.3441,1.3095,1.2861,1.2736,1.2478,1.2161,1.1801,1.1507,1.1017,1.0582,1.0107,0.9578,0.9104,0.8727,0.8456,0.7929,0.7401,0.6969,0.6532,0.6014,0.5389,0.4674,0.3776,0.2956,0.2418,0.1522,-0.009,-0.1436,-0.1885,-0.2424,-0.3035,-0.3723,-0.4222,-0.4617,-0.492,-0.5178,-0.5471,-0.565,-0.583,-0.6035,-0.6099,-0.6335,-0.6602,-0.6987,-0.7423,-0.7748,-0.8009,-0.8376,-0.8755,-0.9448,-1.0191,-1.0818,-1.1209,-1.1432,-1.1652,-1.2164,-1.2804,-1.3437,-1.4311,-1.5097,-1.5238,-1.5403,-1.5343,-1.5365,-1.5545,1.841,1.8761,1.9052,1.9454,1.9987,2.027,2.0529,2.0944,2.1958,2.2537,2.296,2.3826,2.4478,2.4622,2.4778,2.4981,2.5087,2.4467,2.4261,2.397,2.3001,2.2553,2.2402,2.2327,2.2478,2.2402,2.2252,2.2035,2.1807,2.1339,2.1185,2.1272,2.0333,1.9942,1.9932,1.9213,1.8345,1.8023,1.7538,1.6968,1.6476,1.6139,1.5726,1.5311,1.4985,1.4496,1.425,1.4082,1.3822,1.3566,1.3411,1.3073,1.2796,1.2592,1.2352,1.1999,1.163,1.1253,1.0857,1.0386,0.991,0.9288,0.8815,0.8368,0.8013,0.7485,0.6969,0.6379,0.595,0.5538,0.491,0.4191,0.337,0.2342,0.1614,0.0179,-0.1346,-0.1884,-0.2243,-0.278,-0.34,-0.4005,-0.4522,-0.4872,-0.5236,-0.5496,-0.5595,-0.5849,-0.6129,-0.6268,-0.6409,-0.6641,-0.6795,-0.7103,-0.7488,-0.7799,-0.8124,-0.8484,-0.8961,-0.9597,-1.0207,-1.0807,-1.114,-1.1468,-1.1858,-1.2291,-1.2956,-1.3639,-1.4391,-1.5047,-1.5274,-1.5416,-1.5431,-1.5423,-1.5506]},{"header":{"parameterUnit":"m.s-1","parameterCategory":1,"la1":31.0,"la2":29.5877,"lo1":-88.7671,"lo2":-86.6584,"dy":0.0162,"dx":0.0185,"nx":115,"ny":88,"refTime":"2024-03-05T06:00:00:Z","depth":0,"parameterNumber":3,"parameterNumberName":"V-component_of_WINDS"},"data":[0.0,0.0,0.0,0.0,0.0,0.0,0.0,0.0,0.0,0.0,0.0,0.0,0.0,0.0,0.0,0.0,0.0,0.0,0.0,0.0,0.0,0.0,0.0,0.0,0.0,0.0,0.0,0.0,0.0,0.0,0.0,0.0,0.0,0.0,0.0,0.0,0.0,0.0,0.0,0.0,0.0,0.0,0.0,0.0,0.0,0.0,0.0,0.0,0.0,0.0,0.0,0.0,0.0,0.0,0.0,0.0,0.0,0.0,0.0,0.0,0.0,0.0,0.0,0.0,0.0,0.0,0.0,0.0,0.0,0.0,0.0,0.0,0.0,0.0,0.0,0.0,0.0,0.0,0.0,0.0,0.0,0.0,0.0,0.0,0.0,0.0,0.0,0.0,0.0,0.0,0.0,0.0,0.0,0.0,0.0,0.0,0.0,0.0,0.0,0.0,0.0,0.0,0.0,0.0,0.0,0.0,0.0,0.0,0.0,0.0,0.0,0.0,0.0,0.0,0.0,0.0,0.0,0.0,0.0,0.0,0.0,0.0,0.0,0.0,0.0,0.0,0.0,0.0,0.0,0.0,0.0,0.0,0.0,0.0,0.0,0.0,0.0,0.0,0.0,0.0,0.0,0.0,0.0,0.0,0.0,0.0,0.0,0.0,0.0,0.0,0.0,0.0,0.0,0.0,0.0,0.0,0.0,0.0,0.0,0.0,0.0,0.0,0.0,0.0,0.0,0.0,0.0,0.0,0.0,0.0,0.0,0.0,0.0,0.0,0.0,0.0,0.0,0.0,0.0,0.0,0.0,0.0,0.0,0.0,0.0,0.0,0.0,0.0,0.0,0.0,0.0,0.0,0.0,0.0,0.0,0.0,0.0,0.0,0.0,0.0,0.0,0.0,0.0,0.0,0.0,0.0,0.0,0.0,0.0,0.0,0.0,0.0,0.0,0.0,0.0,0.0,0.0,0.0,0.0,0.0,0.0,0.0,0.0,0.0,0.0,0.0,0.0,0.0,0.0,0.0,0.0,0.0,0.0,0.0,0.0,0.0,0.0,0.0,0.0,0.0,0.0,0.0,0.0,0.0,0.0,0.0,0.0,0.0,0.0,0.0,0.0,0.0,0.0,0.0,0.0,0.0,0.0,0.0,0.0,0.0,0.0,0.0,0.0,0.0,0.0,0.0,0.0,0.0,0.0,0.0,0.0,0.0,0.0,0.0,0.0,0.0,0.0,0.0,0.0,0.0,0.0,0.0,0.0,0.0,0.0,0.0,0.0,0.0,0.0,0.0,0.0,0.0,0.0,0.0,0.0,0.0,0.0,0.0,0.0,0.0,0.0,0.0,0.0,0.0,0.0,0.0,0.0,0.0,0.0,0.0,0.0,0.0,0.0,0.0,0.0,0.0,0.0,0.0,0.0,0.0,0.0,0.0,0.0,0.0,0.0,0.0,0.0,0.0,0.0,0.0,0.0,0.0,0.0,0.0,0.0,0.0,0.0,0.0,0.0,0.0,0.0,0.0,0.0,0.0,0.0,0.0,0.0,0.0,0.0,0.0,0.0,0.0,0.0,0.0,0.0,0.0,0.0,0.0,0.0,0.0,0.0,0.0,0.0,0.0,0.0,0.0,0.0,0.0,0.0,0.0,0.0,0.0,0.0,0.0,0.0,0.0,0.0,0.0,0.0,0.0,0.0,0.0,0.0,0.0,0.0,0.0,0.0,0.0,0.0,0.0,0.0,0.0,0.0,0.0,0.0,0.0,0.0,0.0,0.0,0.0,0.0,0.0,0.0,0.0,0.0,0.0,0.0,0.0,0.0,0.0,0.0,0.0,0.0,0.0,0.0,0.0,0.0,0.0,0.0,0.0,0.0,0.0,0.0,0.0,0.0,0.0,0.0,0.0,0.0,0.0,0.0,0.0,0.0,0.0,0.0,0.0,0.0,0.0,0.0,0.0,0.0,0.0,0.0,0.0,0.0,0.0,0.0,0.0,0.0,0.0,0.0,0.0,0.0,0.0,0.0,0.0,0.0,0.0,0.0,0.0,0.0,0.0,0.0,0.0,0.0,0.0,0.0,0.0,0.0,0.0,0.0,0.0,0.0,0.0,0.0,0.0,0.0,0.0,0.0,0.0,0.0,0.0,0.0,0.0,0.0,0.0,0.0,0.0,0.0,0.0,0.0,0.0,0.0,0.0,0.0,0.0,0.0,0.0,0.0,0.0,0.0,0.0,0.0,0.0,0.0,0.0,0.0,0.0,0.0,0.0,0.0,0.0,0.0,0.0,0.0,0.0,0.0,0.0,0.0,0.0,0.0,0.0,0.0,0.0,0.0,0.0,0.0,0.0,0.0,0.0,0.0,0.0,0.0,0.0,0.0,0.0,0.0,0.0,0.0,0.0,0.0,0.0,0.0,0.0,0.0,0.0,0.0,0.0,0.0,0.0,0.0,0.0,0.0,0.0,0.0,0.0,0.0,0.0,0.0,0.0,0.0,0.0,0.0,0.0,0.0,0.0,0.0,0.0,0.0,0.0,0.0,0.0,0.0,0.0,0.0,0.0,0.0,0.0,0.0,0.0,0.0,0.0,0.0,0.0,0.0,0.0,0.0,0.0,0.0,0.0,0.0,0.0,0.0,0.0,0.0,0.0,0.0,0.0,0.0,0.0,0.0,0.0,0.0,0.0,0.0,0.0,0.0,0.0,0.0,0.0,0.0,0.0,0.0,0.0,0.0,0.0,0.0,0.0,0.0,0.0,0.0,0.0,0.0,0.0,0.0,0.0,0.0,0.0,0.0,0.0,0.0,0.0,0.0,0.0,0.0,0.0,0.0,0.0,0.0,0.0,0.0,0.0,0.0,0.0,0.0,0.0,0.0,0.0,0.0,0.0,0.0,0.0,0.0,0.0,0.0,0.0,0.0,0.0,0.0,0.0,0.0,0.0,0.0,0.0,0.0,0.0,0.0,0.0,0.0,0.0,0.0,0.0,0.0,0.0,0.0,0.0,0.0,0.0,0.0,0.0,0.0,0.0,0.0,0.0,0.0,0.0,0.0,0.0,0.0,0.0,0.0,0.0,0.0,0.0,0.0,0.0,0.0,0.0,0.0,0.0,0.0,0.0,0.0,0.0,0.0,0.0,0.0,0.0,0.0,0.0,0.0,0.0,0.0,0.0,0.0,0.0,0.0,0.0,0.0,0.0,0.0,0.0,0.0,0.0,0.0,0.0,0.0,0.0,0.0,0.0,0.0,0.0,0.0,0.0,0.0,0.0,0.0,0.0,0.0,0.0,0.0,0.0,0.0,0.0,0.0,0.0,0.0,0.0,0.0,0.0,0.0,0.0,0.0,0.0,0.0,0.0,0.0,0.0,0.0,0.0,0.0,0.0,0.0,0.0,0.0,0.0,0.0,0.0,0.0,0.0,0.0,0.0,0.0,0.0,0.0,0.0,0.0,0.0,0.0,0.0,0.0,0.0,0.0,0.0,0.0,0.0,0.0,0.0,0.0,0.0,0.0,0.0,0.0,0.0,0.0,0.0,0.0,0.0,0.0,0.0,0.0,0.0,0.0,0.0,0.0,0.0,0.0,0.0,0.0,0.0,0.0,0.0,0.0,0.0,0.0,0.0,0.0,0.0,0.0,0.0,0.0,0.0,0.0,0.0,0.0,0.0,0.0,0.0,0.0,0.0,0.0,0.0,0.0,0.0,0.0,0.0,0.0,0.0,0.0,0.0,0.0,0.0,0.0,0.0,0.0,0.0,0.0,0.0,0.0,0.0,0.0,0.0,0.0,0.0,0.0,0.0,0.0,0.0,0.0,0.0,0.0,0.0,0.0,0.0,0.0,0.0,0.0,0.0,0.0,0.0,0.0,0.0,0.0,0.0,0.0,0.0,0.0,0.0,0.0,0.0,0.0,0.0,0.0,0.0,0.0,0.0,0.0,0.0,0.0,0.0,0.0,0.0,0.0,0.0,0.0,0.0,0.0,0.0,0.0,0.0,0.0,0.0,0.0,0.0,0.0,0.0,0.0,0.0,0.0,0.0,0.0,0.0,0.0,0.0,0.0,0.0,0.0,0.0,0.0,0.0,0.0,0.0,0.0,0.0,0.0,0.0,0.0,0.0,0.0,0.0,0.0,0.0,0.0,0.0,0.0,0.0,0.0,0.0,0.0,0.0,0.0,0.0,0.0,0.0,0.0,0.0,0.0,0.0,0.0,0.0,0.0,0.0,0.0,0.0,0.0,0.0,0.0,0.0,0.0,0.0,0.0,0.0,0.0,0.0,0.0,0.0,-1.3441,0.0,0.0,0.0,0.0,0.0,0.0,0.0,0.0,0.0,0.0,0.0,0.0,0.0,0.0,0.0,0.0,0.0,0.0,0.0,0.0,0.0,0.0,0.0,0.0,0.0,0.0,0.0,0.0,0.0,0.0,0.0,0.0,0.0,0.0,0.0,0.0,0.0,0.0,0.0,0.0,0.0,0.0,0.0,0.0,0.0,0.0,0.0,0.0,0.0,0.0,0.0,0.0,0.0,0.0,0.0,0.0,0.0,0.0,0.0,0.0,0.0,0.0,0.0,0.0,0.0,0.0,0.0,0.0,0.0,0.0,0.0,0.0,0.0,0.0,0.0,0.0,0.0,0.0,0.0,0.0,0.0,0.0,0.0,0.0,0.0,0.0,0.0,0.0,0.0,0.0,0.0,0.0,0.0,0.0,0.0,0.0,0.0,0.0,0.0,0.0,0.0,0.0,0.0,0.0,0.0,0.0,0.0,0.0,0.0,0.0,-1.3396,-1.3396,-1.3429,-1.3308,-1.2964,0.0,0.0,0.0,0.0,0.0,0.0,0.0,0.0,0.0,0.0,0.0,0.0,0.0,0.0,0.0,0.0,0.0,0.0,0.0,0.0,0.0,0.0,0.0,0.0,0.0,0.0,0.0,0.0,0.0,0.0,0.0,0.0,0.0,0.0,0.0,0.0,0.0,0.0,0.0,0.0,0.0,0.0,0.0,0.0,0.0,0.0,0.0,0.0,0.0,0.0,0.0,0.0,0.0,0.0,0.0,0.0,0.0,0.0,0.0,0.0,0.0,0.0,0.0,0.0,0.0,0.0,0.0,0.0,0.0,0.0,0.0,0.0,0.0,0.0,0.0,0.0,0.0,0.0,0.0,0.0,0.0,0.0,0.0,0.0,0.0,0.0,0.0,0.0,0.0,0.0,0.0,0.0,0.0,0.0,0.0,0.0,0.0,0.0,0.0,0.0,0.0,0.0,0.0,0.0,0.0,0.0,0.0,0.0,0.0,0.0,0.0,0.0,-1.3463,-1.3239,-1.2721,0.0,0.0,0.0,0.0,0.0,0.0,0.0,0.0,0.0,0.0,0.0,0.0,0.0,0.0,0.0,0.0,0.0,0.0,0.0,0.0,0.0,0.0,0.0,0.0,0.0,0.0,0.0,0.0,0.0,0.0,0.0,0.0,0.0,0.0,0.0,0.0,0.0,0.0,0.0,0.0,0.0,0.0,0.0,0.0,0.0,0.0,0.0,0.0,0.0,0.0,0.0,0.0,0.0,0.0,0.0,0.0,0.0,0.0,0.0,0.0,0.0,0.0,0.0,0.0,0.0,0.0,0.0,0.0,0.0,0.0,0.0,0.0,0.0,0.0,0.0,0.0,0.0,0.0,0.0,0.0,0.0,0.0,0.0,0.0,0.0,0.0,0.0,0.0,0.0,0.0,0.0,0.0,0.0,0.0,0.0,0.0,0.0,0.0,0.0,0.0,0.0,0.0,0.0,0.0,0.0,0.0,0.0,0.0,0.0,0.0,-1.3329,-1.3396,-1.3463,0.0,-1.3584,0.0,0.0,0.0,0.0,0.0,0.0,0.0,0.0,0.0,0.0,0.0,0.0,0.0,0.0,0.0,0.0,0.0,0.0,0.0,0.0,0.0,0.0,0.0,0.0,0.0,0.0,0.0,0.0,0.0,0.0,0.0,0.0,0.0,0.0,0.0,0.0,0.0,0.0,0.0,0.0,0.0,0.0,0.0,0.0,0.0,0.0,0.0,0.0,0.0,0.0,0.0,0.0,0.0,0.0,0.0,0.0,0.0,0.0,0.0,0.0,0.0,0.0,0.0,0.0,0.0,0.0,0.0,0.0,0.0,0.0,0.0,0.0,0.0,0.0,0.0,0.0,0.0,0.0,0.0,0.0,0.0,0.0,0.0,0.0,0.0,0.0,0.0,0.0,0.0,0.0,0.0,0.0,0.0,0.0,0.0,0.0,0.0,0.0,0.0,0.0,0.0,0.0,0.0,0.0,0.0,0.0,0.0,0.0,0.0,0.0,-1.3295,-1.3329,-1.3446,-1.3544,0.0,0.0,0.0,0.0,0.0,0.0,0.0,0.0,0.0,0.0,0.0,0.0,0.0,0.0,0.0,0.0,0.0,0.0,0.0,0.0,0.0,0.0,0.0,0.0,0.0,0.0,0.0,0.0,0.0,0.0,0.0,0.0,0.0,0.0,0.0,0.0,0.0,0.0,0.0,0.0,0.0,0.0,0.0,0.0,0.0,0.0,0.0,0.0,0.0,0.0,0.0,0.0,0.0,0.0,0.0,0.0,0.0,0.0,0.0,0.0,0.0,0.0,0.0,0.0,0.0,0.0,0.0,0.0,0.0,0.0,0.0,0.0,0.0,0.0,0.0,0.0,0.0,0.0,0.0,0.0,0.0,0.0,0.0,0.0,0.0,0.0,0.0,0.0,0.0,0.0,0.0,0.0,0.0,0.0,0.0,0.0,0.0,0.0,0.0,0.0,0.0,0.0,0.0,0.0,0.0,0.0,0.0,0.0,0.0,0.0,-1.3191,-1.3278,-1.3329,-1.3446,-1.3528,-1.3608,0.0,0.0,0.0,0.0,0.0,0.0,0.0,0.0,0.0,0.0,0.0,0.0,0.0,0.0,0.0,0.0,0.0,0.0,0.0,0.0,0.0,0.0,0.0,0.0,0.0,0.0,0.0,0.0,0.0,0.0,0.0,0.0,0.0,0.0,0.0,0.0,0.0,0.0,0.0,0.0,0.0,0.0,0.0,0.0,0.0,0.0,0.0,0.0,0.0,0.0,0.0,0.0,0.0,0.0,0.0,0.0,0.0,0.0,0.0,0.0,0.0,0.0,0.0,0.0,0.0,0.0,0.0,0.0,0.0,0.0,0.0,0.0,0.0,0.0,0.0,0.0,0.0,0.0,0.0,0.0,0.0,0.0,0.0,0.0,0.0,0.0,0.0,0.0,0.0,0.0,0.0,0.0,0.0,0.0,0.0,0.0,0.0,0.0,0.0,0.0,0.0,0.0,0.0,0.0,0.0,0.0,0.0,0.0,-1.3084,-1.3102,-1.3224,-1.3396,-1.3463,-1.3528,0.0,0.0,0.0,0.0,0.0,0.0,0.0,0.0,0.0,0.0,0.0,0.0,0.0,0.0,0.0,0.0,0.0,0.0,0.0,0.0,0.0,0.0,0.0,0.0,0.0,0.0,0.0,0.0,0.0,0.0,0.0,0.0,0.0,0.0,0.0,0.0,0.0,0.0,0.0,0.0,0.0,0.0,0.0,0.0,0.0,0.0,0.0,0.0,0.0,0.0,0.0,0.0,0.0,0.0,0.0,0.0,0.0,0.0,0.0,0.0,0.0,0.0,0.0,0.0,0.0,0.0,0.0,0.0,0.0,0.0,0.0,0.0,0.0,0.0,0.0,0.0,0.0,0.0,0.0,0.0,0.0,0.0,0.0,0.0,0.0,0.0,0.0,0.0,0.0,0.0,0.0,0.0,0.0,0.0,0.0,0.0,0.0,0.0,0.0,0.0,0.0,0.0,0.0,0.0,0.0,0.0,0.0,0.0,0.0,-1.2975,-1.31,-1.3208,-1.3329,-1.3396,-1.3479,0.0,0.0,0.0,0.0,0.0,0.0,0.0,0.0,0.0,0.0,0.0,0.0,0.0,0.0,0.0,0.0,0.0,0.0,0.0,0.0,0.0,0.0,0.0,0.0,0.0,0.0,0.0,0.0,0.0,0.0,0.0,0.0,0.0,0.0,0.0,0.0,0.0,0.0,0.0,0.0,0.0,0.0,0.0,0.0,0.0,0.0,0.0,0.0,0.0,0.0,0.0,0.0,0.0,0.0,0.0,0.0,0.0,0.0,0.0,0.0,0.0,0.0,0.0,0.0,0.0,0.0,0.0,0.0,0.0,0.0,0.0,0.0,0.0,0.0,0.0,0.0,0.0,0.0,0.0,0.0,0.0,0.0,0.0,0.0,0.0,0.0,0.0,0.0,0.0,0.0,0.0,0.0,0.0,0.0,0.0,0.0,0.0,0.0,0.0,0.0,0.0,0.0,0.0,0.0,0.0,0.0,0.0,0.0,0.0,-1.2904,0.0,-1.3224,-1.3261,-1.3362,-1.3429,0.0,0.0,0.0,0.0,0.0,0.0,0.0,0.0,0.0,0.0,0.0,0.0,0.0,0.0,0.0,0.0,0.0,0.0,0.0,0.0,0.0,0.0,0.0,0.0,0.0,0.0,0.0,0.0,0.0,0.0,0.0,0.0,0.0,0.0,0.0,0.0,0.0,0.0,0.0,0.0,0.0,0.0,0.0,0.0,0.0,0.0,0.0,0.0,0.0,0.0,0.0,0.0,0.0,0.0,0.0,0.0,0.0,0.0,0.0,0.0,0.0,0.0,0.0,0.0,0.0,0.0,0.0,0.0,0.0,0.0,0.0,0.0,0.0,0.0,0.0,0.0,0.0,0.0,0.0,0.0,0.0,0.0,0.0,0.0,0.0,0.0,0.0,0.0,0.0,0.0,0.0,0.0,0.0,0.0,0.0,0.0,0.0,0.0,0.0,0.0,0.0,0.0,0.0,0.0,0.0,0.0,0.0,0.0,-1.2832,-1.2889,-1.3084,-1.3207,-1.321,-1.3312,-1.3429,0.0,0.0,0.0,0.0,0.0,0.0,0.0,0.0,0.0,0.0,0.0,0.0,0.0,0.0,0.0,0.0,0.0,0.0,0.0,0.0,0.0,0.0,0.0,0.0,0.0,0.0,0.0,0.0,0.0,0.0,0.0,0.0,0.0,0.0,0.0,0.0,0.0,0.0,0.0,0.0,0.0,0.0,0.0,0.0,0.0,0.0,0.0,0.0,0.0,0.0,0.0,0.0,0.0,0.0,0.0,0.0,0.0,0.0,0.0,0.0,0.0,0.0,0.0,0.0,0.0,0.0,0.0,0.0,0.0,0.0,0.0,0.0,0.0,0.0,0.0,0.0,0.0,0.0,0.0,0.0,0.0,0.0,0.0,0.0,0.0,0.0,0.0,0.0,0.0,0.0,0.0,0.0,0.0,0.0,0.0,0.0,0.0,0.0,0.0,0.0,0.0,0.0,0.0,0.0,0.0,0.0,0.0,0.0,0.0,-1.2904,-1.2995,-1.3102,-1.3207,-1.3295,-1.3346,0.0,0.0,0.0,0.0,0.0,0.0,0.0,0.0,0.0,0.0,0.0,0.0,0.0,0.0,0.0,0.0,0.0,0.0,0.0,0.0,0.0,0.0,0.0,0.0,0.0,0.0,0.0,0.0,0.0,0.0,0.0,0.0,0.0,0.0,0.0,0.0,0.0,0.0,0.0,0.0,0.0,0.0,0.0,0.0,0.0,0.0,0.0,0.0,0.0,0.0,0.0,0.0,0.0,0.0,0.0,0.0,0.0,0.0,0.0,0.0,0.0,0.0,0.0,0.0,0.0,0.0,0.0,0.0,0.0,0.0,0.0,0.0,0.0,0.0,0.0,0.0,0.0,0.0,0.0,0.0,0.0,0.0,0.0,0.0,0.0,0.0,0.0,0.0,0.0,0.0,0.0,0.0,0.0,0.0,0.0,0.0,0.0,0.0,0.0,0.0,0.0,0.0,0.0,0.0,0.0,0.0,0.0,0.0,0.0,-1.3293,-1.3125,-1.3066,-1.3206,-1.326,-1.3329,-1.3396,0.0,0.0,0.0,0.0,0.0,0.0,0.0,0.0,0.0,0.0,0.0,0.0,0.0,0.0,0.0,0.0,0.0,0.0,0.0,0.0,0.0,0.0,0.0,0.0,0.0,0.0,0.0,0.0,0.0,0.0,0.0,0.0,0.0,0.0,0.0,0.0,0.0,0.0,0.0,0.0,0.0,0.0,0.0,0.0,0.0,0.0,0.0,0.0,0.0,0.0,0.0,0.0,0.0,0.0,0.0,0.0,0.0,0.0,0.0,0.0,0.0,0.0,0.0,0.0,0.0,0.0,0.0,0.0,0.0,0.0,0.0,0.0,0.0,0.0,0.0,0.0,0.0,0.0,0.0,0.0,0.0,0.0,0.0,0.0,0.0,0.0,0.0,0.0,0.0,0.0,0.0,0.0,0.0,0.0,0.0,0.0,0.0,0.0,0.0,0.0,0.0,0.0,0.0,0.0,0.0,0.0,0.0,0.0,-1.4014,-1.3369,-1.3165,-1.3321,-1.3378,-1.3396,0.0,0.0,0.0,0.0,0.0,0.0,0.0,0.0,0.0,0.0,0.0,0.0,0.0,0.0,0.0,0.0,0.0,0.0,0.0,0.0,0.0,0.0,0.0,0.0,0.0,0.0,0.0,0.0,0.0,0.0,0.0,0.0,0.0,0.0,0.0,0.0,0.0,0.0,0.0,0.0,0.0,0.0,0.0,0.0,0.0,0.0,0.0,0.0,0.0,0.0,0.0,0.0,0.0,0.0,0.0,0.0,0.0,0.0,0.0,0.0,0.0,0.0,0.0,0.0,0.0,0.0,0.0,0.0,0.0,0.0,0.0,0.0,0.0,0.0,0.0,0.0,0.0,0.0,0.0,0.0,0.0,0.0,0.0,0.0,0.0,0.0,0.0,0.0,0.0,0.0,0.0,0.0,0.0,0.0,0.0,0.0,0.0,0.0,0.0,0.0,0.0,0.0,0.0,0.0,0.0,0.0,0.0,0.0,0.0,-1.3965,-1.3877,-1.4123,-1.4715,-1.4331,-1.4119,0.0,0.0,0.0,0.0,0.0,0.0,0.0,0.0,0.0,0.0,0.0,0.0,0.0,0.0,0.0,0.0,0.0,0.0,0.0,0.0,0.0,0.0,0.0,0.0,0.0,0.0,0.0,0.0,0.0,0.0,0.0,0.0,0.0,0.0,0.0,0.0,0.0,0.0,0.0,0.0,0.0,0.0,0.0,0.0,0.0,0.0,0.0,0.0,0.0,0.0,0.0,0.0,0.0,0.0,0.0,0.0,0.0,0.0,0.0,0.0,0.0,0.0,0.0,0.0,0.0,0.0,0.0,0.0,0.0,0.0,0.0,0.0,0.0,0.0,0.0,0.0,0.0,0.0,0.0,0.0,0.0,0.0,0.0,0.0,0.0,0.0,0.0,0.0,0.0,0.0,0.0,0.0,0.0,0.0,0.0,0.0,0.0,0.0,0.0,0.0,0.0,0.0,0.0,0.0,0.0,0.0,0.0,0.0,-1.4178,-1.496,-1.5239,-1.5605,-1.6132,-1.5254,-1.4783,0.0,0.0,0.0,0.0,0.0,0.0,0.0,0.0,0.0,0.0,0.0,0.0,0.0,0.0,0.0,0.0,0.0,0.0,0.0,0.0,0.0,0.0,0.0,0.0,0.0,0.0,0.0,0.0,0.0,0.0,0.0,0.0,0.0,0.0,0.0,0.0,0.0,0.0,0.0,0.0,0.0,0.0,0.0,0.0,0.0,0.0,0.0,0.0,0.0,0.0,0.0,0.0,0.0,0.0,0.0,0.0,0.0,0.0,0.0,0.0,0.0,0.0,0.0,0.0,0.0,0.0,0.0,0.0,0.0,0.0,0.0,0.0,0.0,0.0,0.0,0.0,0.0,0.0,0.0,0.0,0.0,0.0,0.0,0.0,0.0,0.0,0.0,0.0,0.0,0.0,0.0,0.0,0.0,0.0,0.0,0.0,0.0,0.0,0.0,0.0,0.0,0.0,0.0,0.0,0.0,0.0,0.0,0.0,-1.5425,-1.6287,-1.6733,-1.7077,-1.7232,-1.6078,-1.5437,0.0,0.0,0.0,0.0,0.0,0.0,0.0,0.0,0.0,0.0,0.0,0.0,0.0,0.0,0.0,0.0,0.0,0.0,0.0,0.0,0.0,0.0,0.0,0.0,0.0,0.0,0.0,0.0,0.0,0.0,0.0,0.0,0.0,0.0,0.0,0.0,0.0,0.0,0.0,0.0,0.0,0.0,0.0,0.0,0.0,0.0,0.0,0.0,0.0,0.0,0.0,0.0,0.0,0.0,0.0,0.0,0.0,0.0,0.0,0.0,0.0,0.0,0.0,0.0,0.0,0.0,0.0,0.0,0.0,0.0,0.0,0.0,0.0,0.0,0.0,0.0,0.0,0.0,0.0,0.0,0.0,0.0,0.0,0.0,0.0,0.0,0.0,0.0,0.0,0.0,0.0,0.0,0.0,0.0,0.0,0.0,0.0,0.0,0.0,0.0,0.0,0.0,0.0,0.0,0.0,0.0,0.0,0.0,-1.5468,-1.6264,-1.6308,-1.6613,-1.7207,-1.6482,-1.6094,0.0,0.0,0.0,0.0,0.0,0.0,0.0,0.0,0.0,0.0,0.0,0.0,0.0,0.0,0.0,0.0,0.0,0.0,0.0,0.0,0.0,0.0,0.0,0.0,0.0,0.0,0.0,0.0,0.0,0.0,0.0,0.0,0.0,0.0,0.0,0.0,0.0,0.0,0.0,0.0,0.0,0.0,0.0,0.0,0.0,0.0,0.0,0.0,-2.1092,0.0,0.0,0.0,0.0,0.0,0.0,0.0,0.0,0.0,0.0,0.0,0.0,0.0,0.0,0.0,0.0,0.0,0.0,0.0,0.0,0.0,0.0,0.0,0.0,0.0,0.0,0.0,0.0,0.0,0.0,0.0,0.0,0.0,0.0,0.0,0.0,0.0,0.0,0.0,0.0,0.0,0.0,0.0,0.0,0.0,0.0,0.0,0.0,0.0,0.0,0.0,0.0,0.0,0.0,0.0,0.0,0.0,0.0,0.0,-1.5693,-1.6713,-1.6317,-1.6287,-1.6678,-1.6724,-1.6769,0.0,0.0,0.0,0.0,0.0,0.0,0.0,0.0,0.0,0.0,0.0,0.0,0.0,0.0,0.0,0.0,0.0,0.0,0.0,0.0,0.0,0.0,0.0,0.0,0.0,0.0,0.0,0.0,0.0,0.0,0.0,0.0,0.0,0.0,0.0,0.0,0.0,0.0,0.0,0.0,0.0,0.0,0.0,0.0,0.0,0.0,0.0,0.0,0.0,0.0,0.0,0.0,0.0,0.0,0.0,0.0,0.0,0.0,0.0,0.0,0.0,0.0,0.0,0.0,0.0,0.0,0.0,0.0,0.0,0.0,0.0,0.0,0.0,0.0,0.0,0.0,0.0,0.0,0.0,0.0,0.0,0.0,0.0,0.0,0.0,0.0,0.0,0.0,0.0,0.0,0.0,0.0,0.0,0.0,0.0,0.0,0.0,0.0,0.0,0.0,0.0,0.0,0.0,0.0,0.0,0.0,0.0,-1.5484,-1.6104,-1.7248,-1.6537,-1.6163,-1.6271,-1.6831,-1.7199,-1.7327,0.0,0.0,0.0,0.0,0.0,0.0,0.0,0.0,0.0,0.0,0.0,0.0,0.0,0.0,0.0,0.0,0.0,0.0,0.0,0.0,0.0,0.0,0.0,0.0,0.0,0.0,0.0,0.0,0.0,0.0,0.0,0.0,0.0,0.0,0.0,0.0,0.0,0.0,-1.9868,-2.0632,0.0,0.0,0.0,0.0,0.0,0.0,0.0,0.0,-2.1267,0.0,0.0,0.0,0.0,0.0,0.0,0.0,0.0,0.0,0.0,0.0,0.0,0.0,0.0,0.0,0.0,0.0,0.0,0.0,0.0,0.0,0.0,0.0,0.0,0.0,0.0,0.0,0.0,0.0,0.0,0.0,0.0,0.0,0.0,0.0,0.0,0.0,0.0,0.0,0.0,0.0,0.0,0.0,0.0,0.0,0.0,0.0,0.0,0.0,0.0,0.0,0.0,0.0,0.0,0.0,0.0,-1.6282,-1.6782,-1.7172,-1.7434,-1.6593,-1.6424,-1.7068,-1.6642,-1.6736,-1.7396,0.0,0.0,0.0,0.0,0.0,0.0,0.0,0.0,0.0,0.0,0.0,0.0,0.0,0.0,0.0,0.0,0.0,0.0,0.0,0.0,0.0,0.0,0.0,0.0,0.0,0.0,0.0,0.0,0.0,0.0,0.0,0.0,0.0,0.0,0.0,0.0,0.0,0.0,0.0,-2.1442,-2.2041,0.0,0.0,0.0,0.0,0.0,0.0,0.0,0.0,-2.201,0.0,0.0,0.0,0.0,0.0,0.0,0.0,0.0,0.0,0.0,0.0,0.0,0.0,0.0,0.0,0.0,0.0,0.0,0.0,0.0,0.0,0.0,0.0,0.0,0.0,0.0,0.0,0.0,0.0,0.0,0.0,0.0,0.0,0.0,0.0,0.0,0.0,0.0,0.0,0.0,0.0,0.0,0.0,0.0,0.0,0.0,0.0,0.0,0.0,0.0,0.0,0.0,0.0,0.0,0.0,-1.5899,-1.6547,-1.6865,-1.6825,-1.6427,-1.6229,-1.6281,-1.6673,-1.6825,0.0,0.0,0.0,0.0,0.0,0.0,0.0,0.0,0.0,0.0,0.0,0.0,0.0,0.0,0.0,0.0,0.0,0.0,0.0,0.0,0.0,0.0,0.0,0.0,0.0,0.0,0.0,0.0,0.0,0.0,0.0,0.0,0.0,0.0,0.0,0.0,0.0,0.0,0.0,0.0,-2.2241,-2.2959,-2.3493,0.0,0.0,0.0,0.0,0.0,0.0,-2.3026,-2.2929,0.0,0.0,0.0,0.0,0.0,0.0,0.0,0.0,0.0,0.0,0.0,0.0,0.0,0.0,0.0,0.0,0.0,0.0,0.0,0.0,0.0,0.0,0.0,0.0,0.0,0.0,0.0,0.0,0.0,0.0,0.0,0.0,0.0,0.0,0.0,0.0,0.0,0.0,0.0,0.0,0.0,0.0,0.0,0.0,0.0,0.0,0.0,0.0,0.0,0.0,0.0,0.0,0.0,0.0,0.0,-1.5629,-1.5999,-1.6188,-1.6044,-1.5962,-1.5745,-1.5387,-1.6445,-1.6716,0.0,0.0,0.0,0.0,0.0,0.0,0.0,0.0,0.0,0.0,0.0,0.0,0.0,0.0,0.0,0.0,0.0,0.0,0.0,0.0,0.0,0.0,0.0,0.0,0.0,0.0,0.0,0.0,0.0,0.0,0.0,0.0,0.0,0.0,0.0,0.0,0.0,0.0,0.0,0.0,0.0,-2.3849,-2.464,-2.4783,0.0,0.0,0.0,0.0,-2.3231,-2.3762,0.0,0.0,0.0,0.0,0.0,0.0,0.0,0.0,0.0,0.0,0.0,0.0,0.0,0.0,0.0,0.0,0.0,0.0,0.0,0.0,0.0,0.0,0.0,0.0,0.0,0.0,0.0,0.0,0.0,0.0,0.0,0.0,0.0,0.0,0.0,0.0,0.0,0.0,0.0,0.0,0.0,0.0,0.0,0.0,0.0,0.0,0.0,0.0,0.0,0.0,0.0,0.0,0.0,0.0,0.0,0.0,-1.655,-1.5954,-1.559,-1.5573,-1.4958,-1.4893,-1.5446,-1.5197,-1.5618,0.0,0.0,0.0,0.0,0.0,0.0,0.0,0.0,0.0,0.0,0.0,0.0,0.0,0.0,0.0,0.0,0.0,0.0,0.0,0.0,0.0,0.0,0.0,0.0,0.0,0.0,0.0,0.0,0.0,0.0,0.0,0.0,0.0,0.0,0.0,0.0,0.0,0.0,0.0,0.0,0.0,-2.4435,-2.4578,-2.4726,-2.4779,0.0,0.0,-2.3961,-2.4626,-2.487,0.0,0.0,0.0,0.0,0.0,0.0,0.0,0.0,0.0,0.0,0.0,0.0,0.0,0.0,0.0,0.0,0.0,0.0,0.0,0.0,0.0,0.0,0.0,0.0,0.0,0.0,0.0,0.0,0.0,0.0,0.0,0.0,0.0,0.0,0.0,0.0,0.0,0.0,0.0,0.0,0.0,0.0,0.0,0.0,0.0,0.0,0.0,0.0,0.0,0.0,0.0,0.0,0.0,0.0,0.0,-1.595,-1.6172,-1.6214,-1.5818,-1.5056,-1.5092,-1.5112,-1.5047,-1.5241,-1.5711,0.0,0.0,0.0,0.0,0.0,0.0,0.0,0.0,0.0,0.0,0.0,0.0,0.0,0.0,0.0,0.0,0.0,0.0,0.0,0.0,0.0,0.0,0.0,0.0,0.0,0.0,0.0,0.0,0.0,0.0,0.0,0.0,0.0,0.0,0.0,0.0,0.0,0.0,0.0,0.0,0.0,0.0,-2.465,-2.4714,0.0,0.0,0.0,-2.5124,-2.507,0.0,0.0,0.0,0.0,0.0,0.0,0.0,0.0,0.0,0.0,0.0,0.0,0.0,0.0,0.0,0.0,0.0,0.0,0.0,0.0,0.0,0.0,0.0,0.0,0.0,0.0,0.0,0.0,0.0,0.0,0.0,0.0,0.0,0.0,0.0,0.0,0.0,0.0,0.0,0.0,0.0,0.0,0.0,0.0,0.0,0.0,0.0,0.0,0.0,0.0,0.0,0.0,0.0,0.0,0.0,0.0,0.0,-1.5534,-1.5839,-1.5478,-1.4452,-1.5121,-1.5295,-1.4796,-1.5349,0.0,0.0,0.0,0.0,0.0,0.0,0.0,0.0,0.0,0.0,0.0,0.0,0.0,0.0,0.0,0.0,0.0,0.0,0.0,0.0,0.0,0.0,0.0,0.0,0.0,0.0,0.0,-1.9118,0.0,0.0,0.0,0.0,0.0,0.0,0.0,0.0,0.0,0.0,0.0,0.0,0.0,0.0,-2.4568,-2.4682,-2.4726,-2.4768,0.0,0.0,-2.5725,-2.5165,-2.5767,-2.606,0.0,0.0,0.0,0.0,0.0,0.0,0.0,0.0,0.0,0.0,0.0,0.0,0.0,0.0,0.0,0.0,0.0,0.0,0.0,0.0,0.0,0.0,0.0,0.0,0.0,0.0,0.0,0.0,0.0,0.0,0.0,0.0,0.0,0.0,0.0,0.0,0.0,0.0,0.0,0.0,0.0,0.0,0.0,0.0,0.0,0.0,0.0,0.0,0.0,0.0,0.0,0.0,0.0,0.0,0.0,-1.4915,-1.4274,-1.3894,-1.3787,-1.4616,-1.5031,-1.4976,-1.5159,-1.5595,0.0,0.0,0.0,0.0,0.0,0.0,0.0,0.0,0.0,0.0,0.0,0.0,0.0,0.0,0.0,0.0,0.0,0.0,0.0,0.0,0.0,0.0,0.0,0.0,0.0,0.0,0.0,0.0,0.0,0.0,0.0,0.0,0.0,0.0,0.0,0.0,0.0,0.0,0.0,0.0,0.0,-2.4631,-2.4692,-2.4749,-2.4842,0.0,0.0,-2.5069,-2.5013,-2.5774,-2.6104,-2.5265,0.0,0.0,0.0,0.0,0.0,0.0,0.0,0.0,0.0,0.0,0.0,0.0,0.0,0.0,0.0,0.0,0.0,0.0,0.0,0.0,0.0,0.0,0.0,0.0,0.0,0.0,0.0,0.0,0.0,0.0,0.0,0.0,0.0,0.0,0.0,0.0,0.0,0.0,0.0,0.0,0.0,0.0,0.0,0.0,0.0,0.0,0.0,0.0,0.0,0.0,0.0,0.0,0.0,-1.5867,-1.498,-1.4666,-1.4557,-1.4634,-1.4965,-1.5317,-1.5794,-1.6321,-1.6778,0.0,0.0,0.0,0.0,0.0,0.0,0.0,0.0,0.0,0.0,0.0,0.0,0.0,0.0,0.0,0.0,0.0,0.0,0.0,0.0,0.0,0.0,0.0,0.0,0.0,0.0,0.0,0.0,-1.9405,-1.945,-1.9504,0.0,0.0,0.0,0.0,0.0,0.0,0.0,0.0,0.0,0.0,-2.465,-2.4754,-2.4791,0.0,0.0,-2.5456,-2.5825,-2.5857,-2.6581,-2.7052,-2.6746,-2.7071,0.0,0.0,0.0,0.0,0.0,0.0,0.0,0.0,0.0,0.0,0.0,0.0,0.0,0.0,0.0,0.0,0.0,0.0,0.0,0.0,0.0,0.0,0.0,0.0,0.0,0.0,0.0,0.0,0.0,0.0,0.0,0.0,0.0,0.0,0.0,0.0,0.0,0.0,0.0,0.0,0.0,0.0,0.0,0.0,0.0,0.0,0.0,0.0,0.0,0.0,0.0,0.0,-1.6198,-1.4709,-1.5148,-1.5319,-1.5201,-1.5678,-1.6157,-1.6672,-1.724,-1.7559,0.0,0.0,0.0,0.0,0.0,0.0,0.0,0.0,0.0,0.0,0.0,0.0,0.0,0.0,0.0,0.0,0.0,0.0,0.0,0.0,0.0,0.0,0.0,0.0,0.0,0.0,0.0,0.0,-1.9653,-1.983,-1.9907,0.0,0.0,0.0,0.0,0.0,0.0,0.0,0.0,0.0,0.0,-2.5166,-2.5531,-2.5586,-2.5613,-2.5755,-2.632,-2.6734,-2.6765,-2.7268,-2.7644,-2.7719,0.0,0.0,0.0,0.0,0.0,0.0,0.0,0.0,0.0,0.0,0.0,0.0,0.0,0.0,0.0,0.0,0.0,0.0,0.0,0.0,0.0,0.0,0.0,0.0,0.0,0.0,0.0,0.0,0.0,0.0,0.0,0.0,0.0,0.0,0.0,0.0,0.0,0.0,0.0,0.0,0.0,0.0,0.0,0.0,0.0,0.0,0.0,0.0,0.0,0.0,0.0,0.0,0.0,-1.5605,-1.4073,-1.5542,-1.593,-1.5317,-1.6742,-1.7523,-1.7557,-1.7593,-1.7663,-1.7768,0.0,0.0,0.0,0.0,0.0,0.0,0.0,0.0,0.0,0.0,0.0,0.0,0.0,0.0,0.0,0.0,0.0,0.0,0.0,0.0,0.0,0.0,0.0,0.0,0.0,0.0,-1.9541,-2.0255,-2.0752,0.0,0.0,0.0,0.0,0.0,0.0,0.0,0.0,0.0,0.0,-2.5981,-2.6346,-2.7275,-2.7365,-2.7314,-2.7464,-2.758,-2.7644,-2.7682,-2.7694,-2.7719,0.0,0.0,0.0,0.0,0.0,0.0,0.0,0.0,0.0,0.0,0.0,0.0,0.0,0.0,0.0,0.0,0.0,0.0,0.0,0.0,0.0,0.0,0.0,0.0,0.0,0.0,0.0,-1.3623,-1.4142,0.0,0.0,0.0,0.0,0.0,0.0,0.0,0.0,0.0,0.0,0.0,-1.7787,-1.8374,0.0,0.0,0.0,0.0,0.0,0.0,0.0,0.0,0.0,0.0,0.0,0.0,-1.7204,-1.5793,-1.6699,-1.7143,-1.6958,-1.7462,-1.7964,-1.8466,-1.8986,-1.9542,-2.0119,0.0,0.0,0.0,0.0,0.0,0.0,0.0,0.0,0.0,0.0,0.0,0.0,0.0,0.0,0.0,0.0,0.0,0.0,0.0,0.0,0.0,0.0,0.0,0.0,0.0,-1.9686,0.0,0.0,0.0,0.0,0.0,0.0,0.0,0.0,0.0,0.0,0.0,-2.5649,-2.6026,-2.6563,-2.7085,-2.7456,-2.7509,-2.757,0.0,0.0,0.0,0.0,0.0,0.0,0.0,0.0,0.0,0.0,0.0,0.0,0.0,0.0,-3.0164,-2.8505,-2.8239,-2.8262,-2.8258,0.0,0.0,0.0,0.0,0.0,0.0,0.0,0.0,0.0,0.0,0.0,0.0,0.0,0.0,0.0,0.0,-1.5439,0.0,0.0,0.0,0.0,0.0,0.0,0.0,0.0,-1.8064,-1.8566,-1.9141,-2.0002,-2.013,0.0,-2.0204,-1.9881,0.0,0.0,0.0,0.0,0.0,0.0,0.0,0.0,-1.8235,-1.7052,-1.7999,-1.8302,-1.7833,-1.8049,-1.8409,-1.8895,-1.9435,-2.0119,-2.0949,-2.0047,-2.0137,0.0,0.0,0.0,0.0,0.0,0.0,0.0,0.0,0.0,0.0,0.0,0.0,0.0,0.0,0.0,0.0,0.0,0.0,0.0,0.0,0.0,0.0,0.0,-2.0185,0.0,0.0,0.0,0.0,0.0,0.0,0.0,0.0,0.0,-2.5271,-2.5869,-2.6537,-2.6934,-2.7475,-2.796,-2.8351,0.0,0.0,0.0,0.0,0.0,0.0,0.0,-3.0069,-3.067,-3.1064,-3.1521,-3.2184,-3.283,-3.3067,-3.2543,0.0,0.0,-2.9531,-2.9123,-2.9164,-2.916,-2.941,-2.9513,-2.9185,-2.9576,-2.9777,0.0,0.0,0.0,0.0,0.0,0.0,0.0,0.0,-1.6475,-1.6201,0.0,-1.5784,0.0,0.0,0.0,0.0,0.0,0.0,0.0,0.0,-1.9571,-2.0061,-2.0187,-2.0963,-2.1324,-2.1306,-2.1306,-2.1306,-2.1216,-2.053,0.0,0.0,0.0,0.0,0.0,0.0,-1.8664,-1.7923,-1.9345,-1.9399,-1.8012,-1.8571,-1.8931,-1.8913,-1.902,-1.947,-2.021,-2.03,-2.068,-2.155,-2.155,0.0,0.0,0.0,0.0,0.0,0.0,0.0,0.0,0.0,0.0,0.0,0.0,0.0,0.0,0.0,0.0,0.0,0.0,0.0,0.0,-2.0391,0.0,0.0,0.0,0.0,0.0,0.0,0.0,0.0,0.0,0.0,-2.6223,-2.6833,-2.7651,-2.854,0.0,0.0,0.0,0.0,-3.017,-3.0204,-3.0261,-3.0275,-3.0303,-3.0986,-3.155,-3.1616,0.0,0.0,-3.3218,-3.3316,-3.3425,-3.3349,-3.3393,-3.2893,-3.1192,-3.0868,-3.0872,-3.0879,-3.1516,-3.1786,-3.1196,-3.1893,-3.2486,-1.7689,0.0,0.0,0.0,0.0,-1.6904,-1.7107,-1.7922,-1.8059,-1.8068,-1.798,-1.8075,0.0,0.0,0.0,0.0,0.0,0.0,-1.9562,-2.0352,-2.028,-2.0554,-2.1188,-2.2007,-2.2061,-2.1534,-2.2041,-2.2004,-2.1459,-2.1801,-2.1201,-1.9794,0.0,0.0,0.0,0.0,-2.0047,-1.8839,-2.0282,-2.0608,-1.9613,-1.9776,-1.9613,-1.9071,-1.9613,-2.0318,-2.108,-2.059,-2.1169,-2.3035,-2.2472,0.0,0.0,0.0,0.0,0.0,0.0,0.0,0.0,0.0,0.0,0.0,0.0,0.0,0.0,0.0,0.0,0.0,0.0,0.0,-2.1229,-2.1057,-2.1367,0.0,0.0,0.0,0.0,0.0,0.0,0.0,0.0,0.0,-2.7948,-2.808,-2.8358,0.0,0.0,-2.9764,-3.0056,-3.0638,-3.1049,-3.1111,0.0,0.0,0.0,-3.222,-3.2388,-3.2519,-3.3354,-3.4013,-3.4117,-3.4707,-3.4945,-3.4347,-3.4233,-3.3901,-3.2927,-3.2656,-3.2634,-3.269,-3.2862,-3.2946,-3.2678,-3.2539,-3.2404,-1.9881,-1.9766,-1.8653,-1.8551,-1.9072,-1.8473,-1.8742,-1.9604,-1.9656,-1.9605,-1.9529,-1.9606,-1.9487,-1.9148,-1.9234,0.0,0.0,0.0,-2.0416,-2.1211,-2.0626,-2.0823,-2.1661,-2.2465,-2.2611,-2.2173,-2.2864,-2.2972,-2.2499,-2.2641,-2.2203,-2.1205,0.0,0.0,-1.9577,-2.0518,-2.068,-2.0065,-2.0989,-2.1297,-2.0789,-2.0771,-2.0536,-2.0083,-2.0517,-2.117,-2.1933,-2.1514,-2.2039,-2.3687,-2.3231,-2.296,0.0,0.0,0.0,0.0,0.0,0.0,0.0,0.0,0.0,0.0,0.0,-2.1948,-2.1986,0.0,0.0,0.0,-2.1312,-2.1537,-2.2012,-2.2256,0.0,0.0,0.0,0.0,0.0,0.0,0.0,-2.7827,-2.8577,-2.902,-2.8829,-2.9038,-2.9243,-2.9288,-2.9755,-3.0242,-3.06,0.0,-3.156,-3.1915,-3.2348,-3.2672,-3.2781,-3.3038,-3.3374,-3.3904,-3.4469,-3.4914,-3.5041,-3.5553,-3.569,-3.5256,-3.5134,-3.4995,-3.453,-3.4448,-3.418,-3.3563,-3.3649,-3.3765,-3.3394,-3.3366,-3.343,-2.1294,-2.1238,-1.9438,-1.947,-2.0603,-2.0053,-2.0317,-2.1154,-2.112,-2.0831,-2.0411,-2.0522,-2.0587,-2.061,-2.0899,0.0,0.0,-2.06,-2.0804,-2.1566,-2.095,-2.1126,-2.1914,-2.2648,-2.2996,-2.3033,-2.3669,-2.3996,-2.3941,-2.3174,-2.281,-2.2755,-2.1934,-2.1134,-2.0426,-2.0534,-2.088,-2.148,-2.1607,-2.1643,-2.1605,-2.1733,-2.1733,-2.1605,-2.1696,-2.2132,-2.2854,-2.289,-2.3234,-2.394,-2.3865,-2.3847,-2.3976,0.0,0.0,0.0,0.0,0.0,0.0,0.0,0.0,0.0,0.0,0.0,0.0,0.0,0.0,0.0,-2.2369,0.0,-2.248,-2.3883,0.0,0.0,0.0,-2.7366,-2.7382,-2.81,-2.8606,-2.8688,0.0,0.0,0.0,0.0,-3.0208,-3.0189,-3.0204,-3.0543,-3.1484,-3.1694,-3.1962,-3.2691,-3.2863,-3.2932,-3.3178,-3.371,-3.4414,-3.5276,-3.5615,-3.5641,-3.5799,-3.5879,-3.5889,-3.5864,-3.5955,-3.5968,-3.5989,-3.5878,-3.5507,-3.3951,-3.4226,-3.4469,-3.3829,-3.452,-3.4885,-2.1371,-2.154,-2.1147,-2.116,-2.1444,-2.154,-2.167,-2.1792,-2.1866,-2.1654,-2.1223,-2.1238,-2.112,-2.0864,-2.1569,-2.1896,-2.1919,-2.1878,-2.2368,-2.3161,-2.2554,-2.274,-2.3584,-2.3804,-2.3895,-2.3914,-2.3963,-2.4016,-2.4037,-2.3155,-2.2715,-2.268,-2.1953,-2.1462,-2.1261,-2.1803,-2.1894,-2.1497,-2.2116,-2.2463,-2.2518,-2.3684,-2.3757,-2.2536,-2.3626,-2.4353,-2.4502,-2.4472,-2.4824,-2.5533,-2.4464,-2.4361,-2.5529,-2.449,0.0,0.0,0.0,0.0,0.0,0.0,0.0,0.0,0.0,-2.3583,-2.3544,0.0,-2.3428,0.0,-2.2793,-2.3667,-2.5719,-2.5785,0.0,0.0,-2.7488,-2.8142,-2.8124,-2.8857,-2.9363,-2.9506,-2.9639,-2.9731,-2.968,-3.0395,-3.0921,-3.0934,-3.1028,-3.1412,-3.2271,-3.2962,-3.3401,-3.3665,-3.4146,-3.4563,-3.4642,-3.4927,-3.5207,-3.555,-3.5679,-3.5791,-3.5872,-3.5883,-3.5929,-3.5951,-3.5994,-3.6009,-3.6015,-3.6014,-3.5864,-3.542,-3.546,-3.5528,-3.5262,-3.498,-3.4756,-2.1805,-2.1685,-2.2571,-2.2654,-2.2186,-2.2065,-2.2073,-2.2175,-2.2118,-2.205,-2.1979,-2.2133,-2.2104,-2.2033,-2.2571,-2.2847,-2.2794,-2.2611,-2.3009,-2.3783,-2.3176,-2.3364,-2.4192,-2.4191,-2.4209,-2.419,-2.4133,-2.4094,-2.4114,-2.3578,-2.3321,-2.336,-2.317,-2.3093,-2.3097,-2.2839,-2.2658,-2.2607,-2.3755,-2.4379,-2.4494,-2.5314,-2.533,-2.4431,-2.5193,-2.5667,-2.5586,-2.556,-2.5746,-2.6134,-2.5337,-2.527,-2.6131,-2.5362,-2.5113,0.0,0.0,0.0,0.0,0.0,0.0,0.0,0.0,0.0,0.0,0.0,-2.4531,0.0,-2.4709,0.0,-2.695,-2.7112,-2.7276,-2.7694,-2.8499,-2.9005,-2.8988,-2.9364,-2.9701,-2.979,-2.9771,-2.9638,-2.9418,-3.0435,-3.1189,-3.1257,-3.1949,-3.2645,-3.3102,-3.3582,-3.4001,-3.4418,-3.4854,-3.519,-3.5304,-3.5463,-3.5558,-3.5604,-3.5689,-3.5799,-3.5885,-3.5883,-3.5924,-3.5988,-3.6009,-3.6015,-3.6014,-3.6003,-3.5994,-3.5914,-3.5866,-3.5811,-3.576,-3.5311,-3.5037,-2.2454,-2.2028,-2.3677,-2.3827,-2.2944,-2.2344,-2.2266,-2.2502,-2.2264,-2.2355,-2.2632,-2.2868,-2.3095,-2.3265,-2.3471,-2.358,-2.3531,-2.3025,-2.3202,-2.3862,-2.3453,-2.3621,-2.432,-2.443,-2.4485,-2.4485,-2.4465,-2.4464,-2.4482,-2.4333,-2.4333,-2.4481,-2.478,-2.5059,-2.5183,-2.401,-2.3684,-2.4324,-2.5695,-2.6447,-2.6512,-2.66,-2.6611,-2.6486,-2.6617,-2.665,-2.6535,-2.6512,-2.6512,-2.6512,-2.653,-2.6512,-2.6512,-2.6426,-2.6418,0.0,-2.6409,0.0,0.0,0.0,0.0,0.0,0.0,0.0,0.0,-2.5281,-2.5841,-2.6856,-2.7102,-2.7233,-2.7397,-2.8179,-2.8647,-2.8666,-2.9304,-2.9737,-2.9683,-2.9757,-2.9831,-2.979,-2.9867,-2.9674,-2.9244,-3.0392,-3.1396,-3.177,-3.2947,-3.3857,-3.3933,-3.3971,-3.4293,-3.4997,-3.5179,-3.5258,-3.5379,-3.5522,-3.5647,-3.5742,-3.5912,-3.5965,-3.6281,-3.6306,-3.6289,-3.6357,-3.6328,-3.6209,-3.6159,-3.6173,-3.6099,-3.5943,-3.592,-3.5891,-3.5718,-3.5577,-3.5464,-2.3013,-2.3489,-2.3917,-2.4015,-2.3914,-2.3859,-2.3566,-2.3148,-2.3202,-2.3016,-2.2685,-2.2842,-2.297,-2.307,-2.3265,-2.3383,-2.3448,-2.3424,-2.3599,-2.3933,-2.4342,-2.4729,-2.502,-2.5677,-2.5987,-2.5987,-2.5969,-2.6012,-2.6054,-2.5351,-2.5287,-2.5885,-2.539,-2.5397,-2.5904,0.0,0.0,0.0,-2.6344,-2.6591,-2.6591,-2.7171,-2.7474,-2.7433,-2.7984,0.0,-2.8215,-2.8166,-2.8153,-2.8135,-2.816,0.0,0.0,0.0,0.0,0.0,0.0,0.0,0.0,0.0,0.0,0.0,-2.6023,-2.5932,-2.5968,-2.6188,-2.6751,-2.775,-2.7979,-2.8353,-2.9064,-2.9326,-2.942,-2.9326,-2.9457,-2.9569,-2.9569,-3.011,-3.0317,-2.9795,-3.0246,-3.0622,-3.0583,-3.1467,-3.2353,-3.3014,-3.4036,-3.4642,-3.468,-3.4717,-3.4848,-3.5073,-3.5196,-3.532,-3.5463,-3.5546,-3.5858,-3.6503,-3.6783,-3.7102,-3.7702,-3.7929,-3.7971,-3.7947,-3.7498,-3.7021,-3.6969,-3.6962,-3.6663,-3.5976,-3.6315,-3.6532,-3.5783,-3.5565,-3.5455,-2.3951,0.0,-2.4913,-2.5146,0.0,-2.5456,-2.506,-2.412,-2.3604,-2.3096,-2.2676,-2.2773,-2.2927,-2.3119,-2.3313,-2.3453,-2.3544,-2.3638,-2.3747,-2.3886,-2.4639,-2.524,-2.5669,-2.6091,-2.6531,-2.6918,-2.6559,-2.6403,-2.649,-2.6381,-2.6559,-2.6964,-2.6918,-2.7024,-2.7283,-2.7797,-2.7918,-2.7634,-2.7702,-2.7724,-2.7761,-2.81,-2.8255,-2.8208,0.0,0.0,0.0,0.0,0.0,0.0,0.0,0.0,0.0,0.0,0.0,-2.7954,-2.7616,-2.7399,-2.7399,-2.7399,-2.7381,-2.7399,-2.7429,-2.7378,-2.7112,-2.7508,-2.8021,-2.8637,-2.8739,-2.9005,-2.9435,-2.9569,-2.9569,-2.9512,-2.9531,-2.968,-3.007,-3.0482,-3.0616,-3.0357,-3.0621,-3.0922,-3.0998,-3.177,-3.2656,-3.3488,-3.4358,-3.4927,-3.4964,-3.4982,-3.5038,-3.5179,-3.5242,-3.533,-3.5489,-3.557,-3.5715,-3.627,-3.6754,-3.7269,-3.7761,-3.8201,-3.8512,-3.845,-3.7851,-3.7387,-3.7691,-3.7166,-3.6476,-3.644,-3.6668,-3.6752,-3.617,-3.5724,-3.5369,-2.498,-2.4841,-2.6034,-2.6353,-2.6087,-2.6783,-2.6344,-2.5161,0.0,0.0,0.0,-2.2954,-2.3223,-2.3598,-2.3809,-2.3973,-2.4051,-2.4144,-2.4205,-2.4256,-2.5073,-2.5755,-2.6267,-2.6519,-2.6982,-2.7628,-2.7035,-2.6777,-2.6903,-2.7469,-2.7778,-2.7921,-2.8403,-2.8612,-2.8569,-2.8612,-2.8712,-2.8887,-2.8905,-2.8905,-2.8881,-2.8881,-2.8815,-2.8694,-2.8737,-2.8712,-2.8612,-2.8587,-2.8587,-2.8587,-2.8587,-2.8587,-2.8587,-2.863,-2.8612,-2.8587,-2.8739,-2.883,-2.883,-2.8931,-2.9029,-2.9072,-2.8902,-2.8634,-2.8169,-2.8654,-2.9062,-2.9259,-2.9267,-2.9314,-2.9392,-2.9433,-2.9472,-2.9472,-2.9661,-2.9978,-3.042,-3.0986,-3.1179,-3.0918,-3.1203,-3.1431,-3.1544,-3.2166,-3.292,-3.3715,-3.4491,-3.4964,-3.5056,-3.5073,-3.5108,-3.5245,-3.5304,-3.5374,-3.5483,-3.5581,-3.5687,-3.6067,-3.6648,-3.7186,-3.7663,-3.8254,-3.8722,-3.9088,-3.83,-3.8088,-3.8291,-3.7403,-3.6414,-3.6707,-3.693,-3.6947,-3.6646,-3.6029,-3.5506,-2.5748,-2.6404,-2.6724,-2.6906,-2.7012,-2.7115,-2.6826,-2.6034,-2.3863,-2.3284,-2.3964,-2.3867,-2.4259,-2.5032,-2.5313,-2.549,-2.5504,-2.5644,-2.5739,0.0,-2.65,-2.6856,-2.7,-2.7792,-2.8247,-2.8337,-2.8372,-2.8367,-2.8409,-2.8458,-2.8512,-2.8555,-2.8707,-2.8785,-2.8815,-2.8761,-2.8743,-2.8905,-2.8905,-2.8881,-2.881,-2.8743,-2.8718,-2.8694,-2.8644,-2.8612,-2.8587,-2.8587,-2.8587,-2.8587,-2.8587,-2.8587,-2.8587,-2.8662,-2.8644,-2.8648,-2.9297,-2.9678,-2.9652,-3.0278,-3.0694,-3.0782,-3.0104,-2.9359,-2.8761,-2.885,-2.8975,-2.913,-2.9222,-2.923,-2.9312,-2.9351,-2.9409,-2.9506,-3.0062,-3.0265,-2.9876,-3.1563,-3.2281,-3.1105,-3.2178,-3.3009,-3.2995,-3.3185,-3.362,-3.4453,-3.4832,-3.502,-3.5127,-3.5179,-3.5209,-3.5277,-3.5335,-3.5435,-3.5565,-3.5646,-3.596,-3.6783,-3.6945,-3.7529,-3.878,-3.9214,-3.9604,-4.0485,-3.9719,-3.9115,-3.8591,-3.8276,-3.7355,-3.6424,-3.6895,-3.7481,-3.6891,-3.6479,-3.6174,-2.637,-2.6891,-2.6925,-2.712,-2.7321,-2.7043,-2.6813,-2.65,-2.5015,-2.4506,-2.4723,-2.4803,-2.5049,-2.5428,-2.5683,-2.5818,-2.5868,-2.5991,-2.6039,-2.6009,-2.6319,-2.6662,-2.7048,-2.7528,-2.7993,-2.844,-2.8562,-2.8619,-2.8694,-2.8737,-2.8761,-2.8761,-2.8761,-2.881,-2.8929,-2.8834,-2.881,-2.8905,-2.8815,-2.8767,-2.8761,-2.8718,-2.8687,-2.8662,-2.8662,-2.8855,-2.9228,-2.8855,-2.8819,-2.9228,-2.8855,-2.8637,-2.8612,-2.8637,-2.8793,-2.9194,-2.9972,-3.0622,-3.102,-3.1409,-3.1511,-3.1156,-3.0721,-3.035,-3.0072,-2.9351,-2.9117,-2.9632,-2.937,-2.9344,-2.9817,-2.9894,-2.9956,-3.006,-3.0764,-3.1266,-3.1455,-3.2344,-3.2876,-3.2299,-3.2833,-3.3406,-3.3505,-3.3544,-3.3904,-3.4737,-3.5056,-3.5126,-3.5196,-3.5226,-3.5254,-3.5285,-3.5369,-3.5483,-3.5601,-3.5698,-3.593,-3.6362,-3.6795,-3.7396,-3.8338,-3.8714,-3.9238,-3.958,-3.9349,-3.8974,-3.8441,-3.7946,-3.725,-3.6787,-3.673,-3.7175,-3.7194,-3.7106,-3.6596,-2.6859,-2.7117,-2.712,-2.7279,-2.7487,-2.7133,-2.7028,-2.704,-2.6499,-2.6082,-2.5883,-2.5825,-2.5879,-2.6091,-2.6258,-2.6405,-2.648,-2.6554,-2.6554,-2.6455,-2.643,-2.6744,-2.7236,-2.7342,-2.7761,-2.8378,-2.8484,-2.8569,-2.8687,-2.8737,-2.8779,-2.8785,-2.8785,-2.8834,-2.8994,-2.8858,-2.8834,-2.8881,-2.8943,-2.8966,-2.8966,-2.8966,-2.9007,-2.9137,-2.9232,-2.9504,-2.9997,-2.9541,-2.9486,-2.9979,-2.9352,-2.9007,-2.9137,-2.9156,-2.9492,-3.0234,-3.1209,-3.2022,-3.2582,-3.2531,-3.2254,-3.1665,-3.1429,-3.132,-3.1265,-3.0202,-2.9716,-3.0283,-2.9976,-2.9955,-3.0545,-3.0697,-3.0724,-3.0891,-3.1578,-3.2158,-3.2683,-3.3183,-3.3399,-3.3309,-3.3513,-3.3766,-3.3788,-3.3847,-3.4188,-3.485,-3.5108,-3.5176,-3.5226,-3.527,-3.5315,-3.5398,-3.5592,-3.5835,-3.5894,-3.6222,-3.6354,-3.6196,-3.6674,-3.7118,-3.7448,-3.7971,-3.8608,-3.8881,-3.8897,-3.8887,-3.8661,-3.7736,-3.7094,-3.681,-3.6826,-3.6949,-3.7536,-3.7262,-3.6721,-2.7055,-2.7213,-2.7373,-2.7557,-2.7683,-2.7805,-2.7872,-2.7911,-2.7903,-2.7857,-2.7652,-2.7022,-2.712,-2.7814,-2.7951,-2.8022,-2.8066,-2.8138,-2.8058,-2.8066,-2.8031,-2.804,-2.8139,-2.8228,-2.836,-2.8484,-2.8562,-2.8587,-2.8612,-2.8612,-2.8687,-2.8804,-2.8905,-2.897,-2.8975,-2.8858,-2.8828,-2.8828,-2.9395,-2.9733,-2.9802,-2.9733,-3.0025,-3.0749,-3.0812,-3.0866,-3.0903,-3.0866,-3.0866,-3.0831,-3.0124,-3.0033,-3.064,-3.0821,-3.1202,-3.1962,-3.347,-3.4377,-3.4335,-3.376,-3.3335,-3.3169,-3.2611,-3.2265,-3.2174,-3.1516,-3.1107,-3.1249,-3.1169,-3.1134,-3.1533,-3.1528,-3.1552,-3.1708,-3.2395,-3.2701,-3.2493,-3.3415,-3.4057,-3.3454,-3.4062,-3.4576,-3.4581,-3.4641,-3.4813,-3.5037,-3.5127,-3.5179,-3.5261,-3.5304,-3.5345,-3.5575,-3.6113,-3.6574,-3.6712,-3.7521,-3.7342,-3.7026,-3.7033,-3.7099,-3.7259,-3.7842,-3.8664,-3.8828,-3.9501,-3.9448,-3.9023,-3.8249,-3.705,-3.7025,-3.6925,-3.6907,-3.7336,-3.6938,-3.6153,-2.6908,-2.723,-2.7293,-2.7509,-2.7795,-2.79,-2.7986,-2.8025,-2.8042,-2.8042,-2.8007,-2.7715,-2.7769,-2.8099,-2.8264,-2.8318,-2.8291,-2.83,-2.8273,-2.8291,-2.8209,-2.8237,-2.83,-2.8327,-2.838,-2.8432,-2.8458,-2.8458,-2.8502,-2.8562,-2.8687,-2.8834,-2.8881,-2.8881,-2.8858,-2.8828,-2.9028,-2.9503,-2.973,-3.034,-3.1138,-3.0776,-3.0659,-3.0948,-3.1039,-3.1293,-3.1628,-3.1302,-3.1238,-3.1544,-3.0939,-3.0867,-3.1617,-3.1709,-3.2288,-3.3515,-3.5131,-3.6113,-3.6139,-3.5405,-3.475,-3.4266,-3.3522,-3.3095,-3.3067,-3.2839,-3.2763,-3.2757,-3.1971,-3.1618,-3.2225,-3.2323,-3.2366,-3.2576,-3.3231,-3.3613,-3.344,-3.3952,-3.4282,-3.4086,-3.4438,-3.4708,-3.4809,-3.4927,-3.5058,-3.5147,-3.5198,-3.5229,-3.5289,-3.535,-3.5422,-3.5605,-3.6311,-3.6613,-3.6434,-3.653,-3.6725,-3.6644,-3.6865,-3.7094,-3.6801,-3.7697,-3.8514,-3.8415,-3.9136,-3.9393,-3.8848,-3.8888,-3.8322,-3.7777,-3.7348,-3.7302,-3.6938,-3.6482,-3.6116,-2.6808,-2.7103,-2.7181,-2.7448,-2.7754,-2.7813,-2.79,-2.7957,-2.7986,-2.7986,-2.8014,-2.8071,-2.8088,-2.8099,-2.8191,-2.8264,-2.8237,-2.8246,-2.8237,-2.8182,-2.8172,-2.8182,-2.8291,-2.8291,-2.8318,-2.8398,-2.8424,-2.8514,-2.872,-2.8861,-2.9123,-2.9411,-2.9466,-2.946,-2.946,-2.946,-2.9715,-3.0236,-3.0394,-3.1084,-3.2027,-3.1808,-3.158,-3.1627,-3.1655,-3.1988,-3.2701,-3.2032,-3.1968,-3.2649,-3.1794,-3.1751,-3.2679,-3.281,-3.3635,-3.5304,-3.6218,-3.6731,-3.6838,-3.5921,-3.5082,-3.4499,-3.3915,-3.3633,-3.3643,-3.3698,-3.3788,-3.3758,-3.2801,-3.2458,-3.2976,-3.3105,-3.3161,-3.3356,-3.39,-3.4221,-3.4302,-3.4404,-3.4473,-3.4539,-3.4649,-3.4769,-3.4888,-3.5002,-3.5129,-3.52,-3.5248,-3.5273,-3.532,-3.5412,-3.5501,-3.5554,-3.6184,-3.6443,-3.6134,-3.6626,-3.6487,-3.6365,-3.6883,-3.7001,-3.6516,-3.7723,-3.871,-3.8885,-3.9351,-3.9606,-3.9471,-3.9522,-3.8794,-3.7921,-3.7344,-3.7024,-3.6539,-3.6103,-3.5889,-2.6758,-2.6891,-2.7178,-2.7321,-2.7434,-2.763,-2.7795,-2.7888,-2.7906,-2.7929,-2.7968,-2.8014,-2.7996,-2.8014,-2.8126,-2.8219,-2.8273,-2.8182,-2.8154,-2.8182,-2.8071,-2.8099,-2.8182,-2.8209,-2.8264,-2.8398,-2.8398,-2.8784,-2.953,-2.9646,-3.016,-3.0911,-3.0927,-3.099,-3.0953,-3.0838,-3.0975,-3.1066,-3.1572,-3.2011,-3.2209,-3.2679,-3.2949,-3.3039,-3.3219,-3.343,-3.3939,-3.3532,-3.346,-3.4159,-3.2757,-3.2697,-3.4176,-3.4411,-3.5553,-3.753,-3.6731,-3.6017,-3.5848,-3.4725,-3.3832,-3.3694,-3.3706,-3.3698,-3.3698,-3.3788,-3.3868,-3.3895,-3.3781,-3.3758,-3.3832,-3.3769,-3.3832,-3.4043,-3.4141,-3.4269,-3.4454,-3.4473,-3.4539,-3.4647,-3.4751,-3.485,-3.5039,-3.5075,-3.5147,-3.5181,-3.5212,-3.5242,-3.532,-3.5412,-3.5515,-3.5591,-3.5789,-3.6028,-3.6755,-3.6964,-3.7318,-3.7176,-3.6785,-3.7171,-3.7526,-3.7943,-3.8706,-3.9271,-3.9507,-3.979,-4.01,-3.9533,-3.8246,-3.7218,-3.6326,-3.5905,-3.5969,-3.5439,-3.5264,-2.6708,-2.6808,-2.7068,-2.7213,-2.7293,-2.7448,-2.7557,-2.7665,-2.7694,-2.7736,-2.7806,-2.7882,-2.7946,-2.7929,-2.8042,-2.8099,-2.8182,-2.8154,-2.8154,-2.8126,-2.8126,-2.8172,-2.8182,-2.8182,-2.8237,-2.8327,-2.8291,-2.8739,-2.953,-2.9602,-3.0071,-3.0821,-3.0975,-3.0993,-3.0966,-3.0966,-3.1183,-3.165,-3.1935,-3.2265,-3.2697,-3.2973,-3.3104,-3.3122,-3.3165,-3.337,-3.3628,-3.3296,-3.3265,-3.3499,-3.3476,-3.3962,-3.5087,-3.6248,-3.6979,-3.7417,-3.698,-3.6466,-3.5927,-3.5049,-3.441,-3.4316,-3.3973,-3.3734,-3.3726,-3.3834,-3.3931,-3.3994,-3.4009,-3.3998,-3.3979,-3.4023,-3.4074,-3.4173,-3.4197,-3.4269,-3.4404,-3.445,-3.4495,-3.4604,-3.4732,-3.487,-3.5038,-3.5129,-3.5181,-3.5196,-3.5242,-3.5308,-3.5315,-3.5435,-3.5624,-3.5608,-3.5676,-3.5825,-3.6095,-3.6437,-3.6664,-3.6696,-3.666,-3.7089,-3.7468,-3.849,-3.9332,-3.9614,-3.9793,-3.9752,-3.999,-3.9515,-3.8166,-3.7274,-3.632,-3.5508,-3.5476,-3.5135,-3.5038,-2.664,-2.6708,-2.6908,-2.6989,-2.707,-2.7198,-2.731,-2.7404,-2.7448,-2.7539,-2.763,-2.7754,-2.7754,-2.7801,-2.7842,-2.7882,-2.794,-2.806,-2.8088,-2.8042,-2.8025,-2.8195,-2.8426,-2.8443,-2.8642,-2.8895,-2.8959,-2.9301,-2.9924,-3.0212,-3.0808,-3.1679,-3.1697,-3.1657,-3.1629,-3.1611,-3.1887,-3.229,-3.2349,-3.2588,-3.3001,-3.3055,-3.2993,-3.2979,-3.3042,-3.3247,-3.3543,-3.3203,-3.3297,-3.3822,-3.4146,-3.4789,-3.5915,-3.7112,-3.7591,-3.7144,-3.6581,-3.6139,-3.5599,-3.4874,-3.4418,-3.4418,-3.4018,-3.3726,-3.3726,-3.3815,-3.3931,-3.4013,-3.4028,-3.3998,-3.4023,-3.4049,-3.4124,-3.4197,-3.4216,-3.4288,-3.4409,-3.4473,-3.4583,-3.473,-3.4831,-3.4945,-3.5091,-3.5162,-3.5196,-3.519,-3.5446,-3.5718,-3.5748,-3.5867,-3.599,-3.5999,-3.5843,-3.5794,-3.5915,-3.6144,-3.6236,-3.6245,-3.6343,-3.6824,-3.7753,-3.8865,-3.9606,-3.9911,-3.9955,-3.983,-3.9565,-3.9182,-3.845,-3.757,-3.6436,-3.5396,-3.5229,-3.5002,-3.4923,-2.6589,-2.6554,-2.6657,-2.6725,-2.6758,-2.6925,-2.7087,-2.7181,-2.7181,-2.7324,-2.7448,-2.7496,-2.7526,-2.7526,-2.7617,-2.7617,-2.7677,-2.7813,-2.7888,-2.7888,-2.7877,-2.8264,-2.8923,-2.9029,-2.943,-3.0087,-3.0332,-3.0505,-3.0729,-3.1427,-3.2234,-3.3099,-3.3076,-3.2925,-3.319,-3.2901,-3.296,-3.2965,-3.2885,-3.2975,-3.2979,-3.2948,-3.2916,-3.2916,-3.2979,-3.3333,-3.4049,-3.3323,-3.357,-3.49,-3.4616,-3.5076,-3.645,-3.7,-3.7043,-3.6712,-3.5599,-3.4836,-3.4648,-3.4029,-3.3694,-3.3704,-3.3623,-3.3671,-3.378,-3.3842,-3.3913,-3.3957,-3.3991,-3.3998,-3.4023,-3.4074,-3.4124,-3.4197,-3.4253,-3.4349,-3.4491,-3.4626,-3.4771,-3.4908,-3.4945,-3.5056,-3.5141,-3.5193,-3.5212,-3.5474,-3.5959,-3.652,-3.6642,-3.676,-3.6839,-3.6698,-3.6386,-3.6084,-3.5966,-3.5879,-3.5903,-3.5929,-3.6079,-3.6469,-3.7768,-3.8925,-3.9496,-3.9823,-3.9811,-3.9636,-3.8473,-3.8108,-3.7824,-3.6999,-3.5999,-3.5284,-3.5059,-3.4907,-3.4829,-2.6742,-2.6657,-2.6623,-2.6623,-2.6674,-2.6742,-2.6842,-2.6858,-2.6891,-2.7036,-2.7261,-2.7293,-2.7355,-2.7496,-2.7509,-2.7526,-2.7544,-2.7587,-2.7677,-2.7853,-2.8382,-2.8841,-2.9207,-2.969,-3.0061,-3.033,-3.0469,-3.0826,-3.1369,-3.166,-3.221,-3.2947,-3.3104,-3.3042,-3.306,-3.3011,-3.3011,-3.2979,-3.2948,-3.2916,-3.2948,-3.2916,-3.2916,-3.2916,-3.2916,-3.3091,-3.3337,-3.3167,-3.3324,-3.3912,-3.4731,-3.5746,-3.6711,-3.6979,-3.6504,-3.5471,-3.4945,-3.4347,-3.3887,-3.3662,-3.3491,-3.3549,-3.3587,-3.3689,-3.3808,-3.386,-3.3931,-3.395,-3.3991,-3.4023,-3.4055,-3.4055,-3.4161,-3.4179,-3.4234,-3.4349,-3.4473,-3.4583,-3.471,-3.4888,-3.4927,-3.4982,-3.5127,-3.5198,-3.5496,-3.5974,-3.6438,-3.6865,-3.7386,-3.7621,-3.7423,-3.705,-3.6697,-3.6334,-3.6034,-3.5897,-3.5899,-3.5923,-3.6017,-3.6621,-3.789,-3.8682,-3.9259,-3.9591,-3.9591,-3.8974,-3.7822,-3.7241,-3.7105,-3.6602,-3.5755,-3.5304,-3.5003,-3.4888,-3.481,-2.6759,-2.6623,-2.6572,-2.652,-2.645,-2.6486,-2.6504,-2.6521,-2.6624,-2.6825,-2.7021,-2.7103,-2.7247,-2.739,-2.7373,-2.7373,-2.7456,-2.7712,-2.7914,-2.8072,-2.8627,-2.917,-2.9602,-3.0282,-3.0684,-3.0831,-3.1107,-3.1444,-3.1762,-3.2041,-3.2465,-3.2952,-3.2961,-3.2948,-3.2884,-3.2884,-3.2852,-3.2852,-3.287,-3.287,-3.2884,-3.2916,-3.2916,-3.2916,-3.2916,-3.2948,-3.2997,-3.3024,-3.3373,-3.4087,-3.5357,-3.6324,-3.6808,-3.632,-3.5525,-3.4731,-3.4189,-3.381,-3.3406,-3.3429,-3.3481,-3.352,-3.3633,-3.3716,-3.3789,-3.3834,-3.3952,-3.431,-3.4142,-3.4231,-3.48,-3.4685,-3.4649,-3.4686,-3.4474,-3.4419,-3.452,-3.4583,-3.4915,-3.5151,-3.5097,-3.5135,-3.5454,-3.5656,-3.5895,-3.6485,-3.7143,-3.7679,-3.8281,-3.8502,-3.8105,-3.7586,-3.7142,-3.6639,-3.6021,-3.5914,-3.5953,-3.5974,-3.601,-3.6964,-3.8105,-3.8461,-3.8907,-3.922,-3.9306,-3.8384,-3.7296,-3.7114,-3.6903,-3.6188,-3.5508,-3.5229,-3.4927,-3.4888,-3.483,-2.6623,-2.652,-2.6485,-2.6415,-2.6239,-2.6239,-2.6258,-2.6241,-2.6365,-2.6556,-2.6791,-2.6957,-2.7122,-2.725,-2.7215,-2.7267,-2.7471,-2.8071,-2.8585,-2.8722,-2.9074,-2.9534,-3.0334,-3.1017,-3.1379,-3.15,-3.2128,-3.2225,-3.1907,-3.2519,-3.3037,-3.3024,-3.2898,-3.2938,-3.2977,-3.2776,-3.2796,-3.3143,-3.2948,-3.2838,-3.2973,-3.2916,-3.2916,-3.2916,-3.2948,-3.2948,-3.2948,-3.3136,-3.3894,-3.5241,-3.5957,-3.6389,-3.6263,-3.513,-3.4555,-3.4249,-3.3584,-3.3538,-3.3436,-3.3713,-3.3755,-3.3931,-3.4006,-3.3734,-3.3954,-3.4064,-3.4293,-3.4807,-3.4439,-3.4694,-3.5772,-3.5779,-3.5528,-3.5466,-3.4871,-3.4555,-3.4668,-3.4626,-3.4953,-3.5587,-3.54,-3.5173,-3.6061,-3.6207,-3.6504,-3.6955,-3.7974,-3.8627,-3.9259,-3.9251,-3.8984,-3.8364,-3.7538,-3.6759,-3.6059,-3.5929,-3.5966,-3.5991,-3.6062,-3.6854,-3.7791,-3.8118,-3.8453,-3.8766,-3.8442,-3.7565,-3.6974,-3.6638,-3.6274,-3.5637,-3.5205,-3.5001,-3.4927,-3.4889,-3.4849,-2.6708,-2.652,-2.6554,-2.6415,-2.6239,-2.6258,-2.6241,-2.6203,-2.6222,-2.6503,-2.6809,-2.6926,-2.7057,-2.7299,-2.7267,-2.7558,-2.804,-2.8351,-2.916,-3.0024,-3.0231,-3.0802,-3.1548,-3.2047,-3.2219,-3.2206,-3.2482,-3.2616,-3.2388,-3.2648,-3.2787,-3.2719,-3.2912,-3.3161,-3.3466,-3.3064,-3.3419,-3.4159,-3.3288,-3.3161,-3.3499,-3.3173,-3.2916,-3.2916,-3.2952,-3.2969,-3.2987,-3.3505,-3.4014,-3.4577,-3.54,-3.5526,-3.5115,-3.5062,-3.4666,-3.389,-3.4425,-3.4668,-3.4393,-3.4787,-3.5151,-3.5266,-3.5221,-3.5198,-3.4641,-3.4752,-3.4908,-3.5101,-3.4979,-3.5383,-3.6305,-3.6414,-3.6147,-3.5645,-3.5109,-3.4695,-3.4724,-3.4666,-3.48,-3.5171,-3.5627,-3.5723,-3.5778,-3.6205,-3.6785,-3.7424,-3.817,-3.8936,-3.9739,-3.9631,-3.9204,-3.8433,-3.7642,-3.6826,-3.622,-3.6055,-3.5981,-3.6001,-3.613,-3.6425,-3.7138,-3.7531,-3.793,-3.8315,-3.7142,-3.6183,-3.5935,-3.5684,-3.5299,-3.51,-3.5127,-3.5019,-3.4945,-3.4908,-3.4831,-2.6725,-2.6452,-2.6589,-2.6502,-2.6286,-2.6329,-2.6329,-2.6308,-2.6362,-2.6537,-2.6809,-2.6876,-2.7057,-2.7316,-2.753,-2.7841,-2.8354,-2.8973,-2.9764,-3.0454,-3.0938,-3.1514,-3.2039,-3.2223,-3.2237,-3.2523,-3.2574,-3.259,-3.2659,-3.2924,-3.2958,-3.2902,-3.3348,-3.3737,-3.3789,-3.381,-3.404,-3.4747,-3.4195,-3.4033,-3.4353,-3.4082,-3.3921,-3.385,-3.3799,-3.3799,-3.3873,-3.4497,-3.4777,-3.4482,-3.464,-3.482,-3.4748,-3.5154,-3.4993,-3.415,-3.5343,-3.575,-3.5286,-3.5579,-3.5854,-3.5945,-3.6035,-3.5893,-3.5585,-3.5569,-3.5634,-3.6196,-3.5984,-3.6426,-3.7266,-3.7376,-3.6887,-3.6317,-3.582,-3.5503,-3.5273,-3.5192,-3.5614,-3.6115,-3.629,-3.6293,-3.6081,-3.6716,-3.7255,-3.7928,-3.8801,-3.9642,-4.0372,-3.984,-3.9199,-3.8372,-3.7622,-3.6806,-3.6246,-3.6052,-3.5989,-3.6015,-3.6032,-3.6316,-3.6687,-3.7108,-3.7578,-3.7568,-3.6114,-3.523,-3.5424,-3.5383,-3.4979,-3.4917,-3.5007,-3.5091,-3.5001,-3.4945,-3.485,-2.6691,-2.6418,-2.664,-2.6553,-2.6336,-2.638,-2.6399,-2.6412,-2.6502,-2.6623,-2.6808,-2.6876,-2.7127,-2.7373,-2.7776,-2.8117,-2.8545,-2.9655,-3.0289,-3.0844,-3.1296,-3.1841,-3.2056,-3.1776,-3.193,-3.2369,-3.2422,-3.2439,-3.2648,-3.3299,-3.3402,-3.3278,-3.4076,-3.45,-3.4394,-3.4553,-3.4888,-3.5279,-3.5031,-3.4942,-3.5136,-3.501,-3.4868,-3.4833,-3.4833,-3.4817,-3.4942,-3.5385,-3.5368,-3.4294,-3.4294,-3.4811,-3.5327,-3.55,-3.5534,-3.5675,-3.6245,-3.6594,-3.6077,-3.6105,-3.6253,-3.6462,-3.6444,-3.6266,-3.6421,-3.6366,-3.6597,-3.7245,-3.6971,-3.7405,-3.8359,-3.8377,-3.7761,-3.7131,-3.6982,-3.6766,-3.6359,-3.612,-3.6691,-3.8102,-3.7086,-3.6939,-3.7317,-3.7706,-3.7817,-3.7887,-3.8639,-3.9025,-3.9453,-3.9101,-3.8615,-3.8143,-3.743,-3.6752,-3.6337,-3.601,-3.6016,-3.6001,-3.5942,-3.6114,-3.6465,-3.6904,-3.7374,-3.7055,-3.5532,-3.5299,-3.5933,-3.5641,-3.4808,-3.4925,-3.5136,-3.5126,-3.5073,-3.5038,-3.4964,-2.6775,-2.6572,-2.6775,-2.6657,-2.6345,-2.6365,-2.6365,-2.6329,-2.6382,-2.6589,-2.6809,-2.6876,-2.7249,-2.7743,-2.7964,-2.8558,-2.9532,-3.0128,-3.0592,-3.1394,-3.1773,-3.193,-3.1966,-3.1759,-3.1969,-3.2249,-3.2336,-3.2354,-3.2512,-3.3196,-3.3477,-3.3512,-3.4411,-3.5084,-3.5455,-3.5095,-3.5535,-3.6321,-3.5614,-3.5384,-3.5703,-3.5457,-3.5243,-3.5225,-3.5243,-3.5206,-3.5153,-3.5295,-3.5224,-3.5169,-3.5472,-3.5829,-3.6146,-3.6288,-3.6393,-3.6622,-3.7194,-3.7388,-3.6895,-3.7243,-3.7776,-3.7739,-3.7729,-3.7741,-3.7257,-3.7232,-3.7334,-3.7606,-3.7505,-3.796,-3.8756,-3.8877,-3.8368,-3.7862,-3.7779,-3.7866,-3.7727,-3.7288,-3.7294,-3.7535,-3.7524,-3.7338,-3.7603,-3.7185,-3.7401,-3.7866,-3.8163,-3.8274,-3.8326,-3.8384,-3.8101,-3.7806,-3.7024,-3.6377,-3.6277,-3.6007,-3.6012,-3.6004,-3.5934,-3.5891,-3.6255,-3.6394,-3.6751,-3.6125,-3.493,-3.5183,-3.5874,-3.482,-3.3767,-3.4508,-3.5245,-3.516,-3.5108,-3.5092,-3.5002,-2.6826,-2.6623,-2.6826,-2.6691,-2.6385,-2.6487,-2.6555,-2.6572,-2.6606,-2.6691,-2.6961,-2.7165,-2.7538,-2.7928,-2.8232,-2.8929,-2.9632,-3.0219,-3.0822,-3.1462,-3.1765,-3.1839,-3.1875,-3.1819,-3.1856,-3.2178,-3.2615,-3.2684,-3.291,-3.3698,-3.4314,-3.4106,-3.5092,-3.5729,-3.6088,-3.5867,-3.6327,-3.6847,-3.6478,-3.6231,-3.6481,-3.6305,-3.6076,-3.6022,-3.6059,-3.6095,-3.6111,-3.6202,-3.6043,-3.5936,-3.615,-3.6435,-3.6682,-3.7001,-3.7232,-3.7428,-3.8162,-3.8282,-3.7969,-3.7998,-3.8364,-3.8515,-3.8528,-3.8358,-3.8108,-3.8058,-3.8088,-3.8147,-3.8243,-3.8456,-3.8923,-3.9007,-3.8674,-3.8263,-3.8432,-3.8596,-3.8385,-3.8022,-3.8074,-3.826,-3.8059,-3.7738,-3.7502,-3.7095,-3.6964,-3.7456,-3.8636,-3.8762,-3.8354,-3.8311,-3.787,-3.7389,-3.6567,-3.6064,-3.6077,-3.6015,-3.6003,-3.5994,-3.5943,-3.5885,-3.5981,-3.6001,-3.5988,-3.5359,-3.4863,-3.4941,-3.5245,-3.4013,-3.3681,-3.4683,-3.5324,-3.5193,-3.5072,-3.5001,-3.4908,-2.6842,-2.6674,-2.6876,-2.6775,-2.6539,-2.6657,-2.6742,-2.6793,-2.6792,-2.6759,-2.6994,-2.7453,-2.7673,-2.813,-2.8433,-2.8895,-2.9549,-3.0345,-3.117,-3.1473,-3.1538,-3.1634,-3.1743,-3.1806,-3.1943,-3.2243,-3.2765,-3.306,-3.3477,-3.4575,-3.5004,-3.4996,-3.5985,-3.6418,-3.638,-3.6679,-3.6921,-3.7017,-3.7041,-3.7008,-3.7114,-3.7099,-3.7008,-3.6991,-3.6973,-3.6973,-3.6991,-3.7049,-3.6948,-3.6453,-3.6506,-3.6577,-3.6754,-3.7286,-3.7946,-3.7964,-3.8663,-3.8673,-3.8336,-3.8346,-3.8465,-3.8676,-3.8559,-3.8559,-3.8585,-3.853,-3.8542,-3.8621,-3.87,-3.873,-3.895,-3.8997,-3.872,-3.8468,-3.8943,-3.9058,-3.8724,-3.8629,-3.9085,-3.9444,-3.8727,-3.8079,-3.7663,-3.7252,-3.7095,-3.7177,-3.8371,-3.8986,-3.8497,-3.798,-3.741,-3.7069,-3.6304,-3.6013,-3.6012,-3.5995,-3.6007,-3.5958,-3.5928,-3.5885,-3.5815,-3.5812,-3.5766,-3.5573,-3.5291,-3.5252,-3.5032,-3.443,-3.4485,-3.5273,-3.5358,-3.5196,-3.5054,-3.4926,-3.4831,-2.6909,-2.6942,-2.7154,-2.7105,-2.6892,-2.6758,-2.6691,-2.6623,-2.6521,-2.6538,-2.6775,-2.6877,-2.7654,-2.8311,-2.8164,-2.8723,-2.983,-3.0762,-3.1329,-3.1475,-3.1577,-3.1743,-3.188,-3.2195,-3.2422,-3.2556,-3.293,-3.3149,-3.3498,-3.4493,-3.5409,-3.5575,-3.6277,-3.6676,-3.6755,-3.6974,-3.693,-3.697,-3.7027,-3.7066,-3.7066,-3.7126,-3.7164,-3.722,-3.722,-3.7259,-3.7317,-3.7319,-3.7093,-3.656,-3.7149,-3.7112,-3.6787,-3.6888,-3.7455,-3.808,-3.8437,-3.854,-3.8437,-3.8433,-3.8446,-3.8496,-3.8528,-3.8559,-3.8658,-3.8689,-3.867,-3.8719,-3.8732,-3.8762,-3.8892,-3.8997,-3.9055,-3.9069,-3.9214,-3.9451,-3.9421,-3.9475,-3.9529,-3.9754,-3.9033,-3.8339,-3.7881,-3.7406,-3.7051,-3.7,-3.7627,-3.7937,-3.751,-3.704,-3.6532,-3.6319,-3.6103,-3.6007,-3.6014,-3.6001,-3.599,-3.5924,-3.5872,-3.5845,-3.5791,-3.5737,-3.5621,-3.5503,-3.5278,-3.506,-3.4815,-3.4641,-3.4822,-3.522,-3.5223,-3.5145,-3.5019,-3.4889,-3.4831,-2.6792,-2.6826,-2.7024,-2.7007,-2.6859,-2.6825,-2.6775,-2.6742,-2.6691,-2.6725,-2.6927,-2.7199,-2.7875,-2.8583,-2.8672,-2.9132,-3.0119,-3.1011,-3.1594,-3.1839,-3.2298,-3.2519,-3.2428,-3.2754,-3.2855,-3.3148,-3.355,-3.39,-3.41,-3.5255,-3.5821,-3.6058,-3.6429,-3.665,-3.6748,-3.6673,-3.669,-3.6731,-3.6788,-3.6846,-3.6886,-3.697,-3.7087,-3.7126,-3.7259,-3.7297,-3.7352,-3.7484,-3.7184,-3.6719,-3.695,-3.6768,-3.6564,-3.6787,-3.7305,-3.8023,-3.8303,-3.8368,-3.8446,-3.8446,-3.8478,-3.8596,-3.8609,-3.8609,-3.867,-3.8701,-3.8732,-3.8743,-3.8792,-3.8851,-3.8989,-3.9036,-3.9156,-3.9324,-3.9477,-3.958,-3.9698,-3.9848,-3.9808,-3.9624,-3.8745,-3.8199,-3.8136,-3.7635,-3.7081,-3.7005,-3.7191,-3.6992,-3.6708,-3.6573,-3.6348,-3.6036,-3.6013,-3.5996,-3.5984,-3.5981,-3.5948,-3.5883,-3.582,-3.5788,-3.5736,-3.5698,-3.5635,-3.555,-3.5263,-3.5014,-3.5053,-3.5042,-3.5109,-3.5127,-3.5105,-3.5056,-3.4964,-3.487,-3.4771,-2.6708,-2.6708,-2.6842,-2.6859,-2.6808,-2.6809,-2.6859,-2.6842,-2.6842,-2.6825,-2.7044,-2.7572,-2.8197,-2.8887,-2.9499,-3.001,-3.0472,-3.1346,-3.21,-3.2551,-3.3,-3.3296,-3.3305,-3.3388,-3.3481,-3.3787,-3.478,-3.5079,-3.4981,-3.5734,-3.6256,-3.6333,-3.6326,-3.636,-3.652,-3.6485,-3.6402,-3.6461,-3.6561,-3.6602,-3.6725,-3.6869,-3.697,-3.7009,-3.7182,-3.7276,-3.7312,-3.7502,-3.7184,-3.6843,-3.6768,-3.6741,-3.6295,-3.6894,-3.7616,-3.8074,-3.83,-3.8446,-3.8528,-3.8559,-3.8578,-3.8676,-3.8707,-3.8689,-3.875,-3.8773,-3.8796,-3.8826,-3.8873,-3.895,-3.9045,-3.9156,-3.9264,-3.9401,-3.9575,-3.9693,-3.9807,-3.9861,-3.97,-3.924,-3.8378,-3.8112,-3.8147,-3.7694,-3.7121,-3.7337,-3.7519,-3.7152,-3.6923,-3.7013,-3.6772,-3.6231,-3.6013,-3.5989,-3.5962,-3.5938,-3.5903,-3.5853,-3.5795,-3.5736,-3.5689,-3.5626,-3.5589,-3.5534,-3.5424,-3.5229,-3.5336,-3.533,-3.5219,-3.5122,-3.5073,-3.4983,-3.4888,-3.481,-3.4708,-2.6942,-2.7038,-2.7007,-2.699,-2.7006,-2.6775,-2.6657,-2.6708,-2.6538,-2.6538,-2.6877,-2.7433,-2.8157,-2.9059,-3.0717,-3.12,-3.1443,-3.215,-3.2833,-3.3059,-3.3354,-3.3472,-3.3465,-3.4074,-3.4317,-3.4658,-3.583,-3.5864,-3.5668,-3.6062,-3.6285,-3.6404,-3.631,-3.6301,-3.6293,-3.6293,-3.6377,-3.6251,-3.6318,-3.6461,-3.6684,-3.6806,-3.6869,-3.7027,-3.7087,-3.7203,-3.7352,-3.7503,-3.7292,-3.6896,-3.7412,-3.7406,-3.704,-3.7849,-3.831,-3.8419,-3.8446,-3.8559,-3.8658,-3.8658,-3.8658,-3.8707,-3.8707,-3.8732,-3.8792,-3.8851,-3.8929,-3.9039,-3.9024,-3.9064,-3.9156,-3.9245,-3.9401,-3.9594,-3.9735,-3.9889,-3.9996,-4.0041,-3.9851,-3.9473,-3.8812,-3.8455,-3.8292,-3.771,-3.7221,-3.7568,-3.7719,-3.7311,-3.6982,-3.6943,-3.6882,-3.6266,-3.5995,-3.5988,-3.5942,-3.5908,-3.5872,-3.5838,-3.5754,-3.5679,-3.5657,-3.5601,-3.5534,-3.5488,-3.5412,-3.5465,-3.5553,-3.5487,-3.5255,-3.5092,-3.502,-3.4927,-3.4829,-3.4727,-3.4602,-2.6909,-2.6975,-2.6942,-2.6959,-2.6957,-2.6759,-2.6674,-2.6674,-2.6607,-2.6791,-2.7178,-2.7498,-2.8196,-2.9376,-3.0707,-3.1332,-3.1675,-3.2596,-3.3342,-3.3795,-3.4108,-3.4343,-3.4583,-3.4835,-3.5088,-3.5712,-3.6395,-3.6859,-3.6614,-3.6566,-3.6757,-3.6758,-3.6311,-3.6122,-3.6122,-3.6079,-3.6036,-3.6036,-3.6165,-3.6419,-3.6602,-3.6725,-3.6829,-3.7048,-3.7069,-3.7223,-3.7429,-3.7559,-3.7596,-3.7397,-3.7859,-3.7889,-3.7739,-3.814,-3.8488,-3.8401,-3.8415,-3.8528,-3.8658,-3.8707,-3.8719,-3.875,-3.878,-3.8792,-3.8892,-3.895,-3.9044,-3.9203,-3.9129,-3.9183,-3.929,-3.9401,-3.9551,-3.9735,-3.9867,-4.0015,-4.0118,-4.0214,-4.0111,-3.9704,-3.9262,-3.8781,-3.8349,-3.7938,-3.7411,-3.73,-3.7389,-3.7092,-3.6674,-3.6359,-3.6285,-3.6131,-3.5996,-3.5981,-3.5914,-3.5866,-3.5838,-3.5791,-3.5689,-3.5637,-3.5601,-3.556,-3.5501,-3.5446,-3.5383,-3.5496,-3.572,-3.556,-3.5281,-3.5096,-3.4946,-3.4886,-3.4783,-3.4536,-3.4381,-2.6876,-2.6876,-2.6859,-2.6809,-2.6826,-2.6674,-2.6724,-2.6893,-2.6824,-2.7192,-2.7707,-2.7985,-2.8693,-2.9696,-3.0609,-3.139,-3.2038,-3.2779,-3.3584,-3.4375,-3.494,-3.5203,-3.5232,-3.5337,-3.5602,-3.635,-3.6477,-3.684,-3.7153,-3.7194,-3.6945,-3.7131,-3.6212,-3.5929,-3.5922,-3.5861,-3.5773,-3.5756,-3.6036,-3.6268,-3.6537,-3.6684,-3.6869,-3.7031,-3.7185,-3.7337,-3.7577,-3.7757,-3.781,-3.7915,-3.8034,-3.8117,-3.8132,-3.8281,-3.8401,-3.8415,-3.8415,-3.8496,-3.8609,-3.864,-3.8701,-3.8762,-3.8833,-3.8892,-3.8979,-3.9007,-3.911,-3.9276,-3.9301,-3.935,-3.9458,-3.9526,-3.9689,-3.9845,-3.9973,-4.0098,-4.0196,-4.0247,-4.0111,-3.9687,-3.9231,-3.8731,-3.8346,-3.81,-3.7704,-3.724,-3.6995,-3.6835,-3.6528,-3.6147,-3.5995,-3.5974,-3.5955,-3.5933,-3.5872,-3.5838,-3.581,-3.5795,-3.5687,-3.5593,-3.5553,-3.5489,-3.5422,-3.5398,-3.5435,-3.5687,-3.5967,-3.5626,-3.5324,-3.5381,-3.5339,-3.4953,-3.4711,-3.4437,-3.4208,-2.6792,-2.6876,-2.6674,-2.664,-2.6623,-2.64,-2.6714,-2.7247,-2.7188,-2.7545,-2.8268,-2.8834,-2.951,-3.0335,-3.1011,-3.1737,-3.2512,-3.333,-3.4005,-3.4535,-3.4977,-3.5198,-3.5308,-3.5371,-3.5438,-3.5845,-3.6312,-3.6632,-3.6717,-3.6865,-3.6709,-3.662,-3.6022,-3.5757,-3.5701,-3.5728,-3.5667,-3.5711,-3.5949,-3.6122,-3.6395,-3.6602,-3.6851,-3.7048,-3.7354,-3.7577,-3.7613,-3.7828,-3.7967,-3.802,-3.8189,-3.8256,-3.8289,-3.8368,-3.8382,-3.8415,-3.8415,-3.8551,-3.8706,-3.8774,-3.8726,-3.881,-3.8892,-3.8979,-3.9036,-3.9129,-3.9221,-3.9293,-3.9369,-3.9477,-3.9575,-3.9689,-3.9804,-3.9935,-4.0078,-4.0215,-4.0267,-4.0194,-4.0044,-3.9637,-3.906,-3.8365,-3.7855,-3.7486,-3.7274,-3.6806,-3.6805,-3.6651,-3.6615,-3.6307,-3.6035,-3.5923,-3.5904,-3.5885,-3.5834,-3.5842,-3.597,-3.5919,-3.5813,-3.5649,-3.5515,-3.5449,-3.5379,-3.5649,-3.5777,-3.5986,-3.6178,-3.6082,-3.5984,-3.592,-3.5703,-3.5158,-3.4652,-3.4282,-3.4056,-2.6742,-2.6742,-2.6623,-2.6554,-2.6572,-2.6329,-2.6637,-2.7181,-2.7114,-2.7656,-2.869,-2.9394,-3.0087,-3.0707,-3.1183,-3.1987,-3.2892,-3.3406,-3.4096,-3.4667,-3.4994,-3.5152,-3.5245,-3.5375,-3.5572,-3.5971,-3.6357,-3.6841,-3.7259,-3.6673,-3.6491,-3.6286,-3.5732,-3.5588,-3.5532,-3.5639,-3.5684,-3.5773,-3.5905,-3.6105,-3.6377,-3.6502,-3.6788,-3.7182,-3.7147,-3.7503,-3.7739,-3.7881,-3.7985,-3.814,-3.8289,-3.8289,-3.8322,-3.8368,-3.8382,-3.8401,-3.8437,-3.8739,-3.9245,-3.935,-3.951,-3.9501,-3.9341,-3.9092,-3.912,-3.9202,-3.929,-3.9369,-3.9471,-3.9551,-3.9758,-3.9848,-3.9975,-4.008,-4.0196,-4.0342,-4.0233,-4.0096,-3.9644,-3.9127,-3.8384,-3.7642,-3.7175,-3.6742,-3.6565,-3.6367,-3.644,-3.654,-3.6658,-3.6606,-3.638,-3.6084,-3.6047,-3.5988,-3.5929,-3.6048,-3.6168,-3.6103,-3.6003,-3.5926,-3.5809,-3.5393,-3.5415,-3.5758,-3.6134,-3.6369,-3.6534,-3.6656,-3.6456,-3.6013,-3.5623,-3.5226,-3.471,-3.4154,-3.3975,-2.664,-2.664,-2.6589,-2.6537,-2.6554,-2.6526,-2.6879,-2.7377,-2.7519,-2.8078,-2.9172,-2.9886,-3.0453,-3.0907,-3.1417,-3.2128,-3.301,-3.3496,-3.4082,-3.4539,-3.4947,-3.5088,-3.5152,-3.5248,-3.5399,-3.5947,-3.5983,-3.6248,-3.6547,-3.6181,-3.5933,-3.5668,-3.5388,-3.5232,-3.5367,-3.5549,-3.5639,-3.5817,-3.5932,-3.6105,-3.6377,-3.6626,-3.6771,-3.7203,-3.7281,-3.7485,-3.7775,-3.7916,-3.7985,-3.8122,-3.8256,-3.8322,-3.8336,-3.8336,-3.8382,-3.8455,-3.8707,-3.9154,-3.9685,-4.0019,-4.0092,-4.0015,-3.9482,-3.9249,-3.9183,-3.9256,-3.9406,-3.9477,-3.9551,-3.967,-3.9892,-3.9975,-4.0078,-4.0177,-4.0288,-4.037,-3.998,-3.972,-3.9131,-3.8559,-3.7855,-3.7279,-3.7395,-3.7117,-3.7136,-3.6933,-3.6812,-3.7048,-3.7321,-3.718,-3.6826,-3.6528,-3.628,-3.6187,-3.6106,-3.6372,-3.66,-3.6595,-3.6523,-3.6469,-3.6272,-3.5833,-3.5624,-3.5983,-3.635,-3.6687,-3.6785,-3.6742,-3.6335,-3.5834,-3.5347,-3.4803,-3.4494,-3.3998,-3.3902,-2.6554,-2.6606,-2.6623,-2.6521,-2.6519,-2.7042,-2.7552,-2.8066,-2.8559,-2.9091,-2.9645,-3.0277,-3.0771,-3.1108,-3.1781,-3.2608,-3.3257,-3.3611,-3.4018,-3.4528,-3.4804,-3.4899,-3.4947,-3.498,-3.506,-3.5074,-3.516,-3.5212,-3.5243,-3.5212,-3.5112,-3.5079,-3.4965,-3.4947,-3.5152,-3.54,-3.5611,-3.5817,-3.5932,-3.6062,-3.6335,-3.6708,-3.693,-3.7185,-3.7394,-3.7631,-3.7881,-3.7951,-3.802,-3.8088,-3.8256,-3.8322,-3.8322,-3.8368,-3.8433,-3.8451,-3.9292,-3.979,-4.0005,-4.0184,-4.033,-4.0296,-3.9798,-3.9266,-3.9256,-3.938,-3.9508,-3.9599,-3.9693,-3.9804,-3.9954,-4.0058,-4.0158,-4.0232,-4.0334,-4.0138,-3.9758,-3.9018,-3.8374,-3.8255,-3.7681,-3.7183,-3.7515,-3.7721,-3.781,-3.7676,-3.7378,-3.746,-3.7756,-3.7531,-3.7079,-3.689,-3.6584,-3.6716,-3.6723,-3.687,-3.7024,-3.703,-3.6988,-3.691,-3.6699,-3.6332,-3.6249,-3.6312,-3.6326,-3.6462,-3.6625,-3.6777,-3.6087,-3.5386,-3.4736,-3.4253,-3.4016,-3.3921,-3.3823,-2.6606,-2.6657,-2.6606,-2.6589,-2.6673,-2.715,-2.7888,-2.8772,-2.9231,-2.956,-2.9749,-3.0222,-3.0956,-3.158,-3.2224,-3.2999,-3.3811,-3.3991,-3.4317,-3.4448,-3.4643,-3.4691,-3.4739,-3.4739,-3.4835,-3.4899,-3.4851,-3.4787,-3.4949,-3.4739,-3.4804,-3.4851,-3.4851,-3.4947,-3.5135,-3.5383,-3.5628,-3.5905,-3.6019,-3.6165,-3.652,-3.6766,-3.7027,-3.7297,-3.7502,-3.7685,-3.7951,-3.7985,-3.7985,-3.8122,-3.8256,-3.8336,-3.8387,-3.8433,-3.8528,-3.8724,-3.946,-4.0559,-4.1176,-4.1598,-4.1229,-4.083,-4.0067,-3.9391,-3.942,-3.9496,-3.9618,-3.9735,-3.9848,-3.9975,-4.0118,-4.0177,-4.0269,-4.0236,-4.0192,-3.983,-3.9321,-3.8296,-3.7597,-3.7926,-3.7696,-3.7808,-3.8057,-3.8574,-3.8762,-3.869,-3.8436,-3.7765,-3.7804,-3.7475,-3.707,-3.7059,-3.6948,-3.719,-3.7371,-3.7629,-3.7565,-3.7459,-3.739,-3.729,-3.7037,-3.6705,-3.6331,-3.6119,-3.612,-3.6147,-3.5992,-3.5814,-3.5472,-3.4895,-3.4363,-3.4127,-3.4097,-3.3944,-3.378,-2.6435,-2.6555,-2.6771,-2.7058,-2.7345,-2.7614,-2.8362,-2.9335,-2.9714,-2.9809,-2.997,-3.0481,-3.126,-3.2094,-3.2786,-3.3335,-3.4234,-3.43,-3.43,-3.4448,-3.4497,-3.4546,-3.4546,-3.4546,-3.4594,-3.4659,-3.4611,-3.4546,-3.4546,-3.4497,-3.4562,-3.4707,-3.4835,-3.4947,-3.5088,-3.5337,-3.5611,-3.5905,-3.6079,-3.644,-3.6804,-3.7091,-3.7246,-3.762,-3.7754,-3.7667,-3.7898,-3.7985,-3.7985,-3.8174,-3.8289,-3.8382,-3.8433,-3.8528,-3.859,-3.8921,-3.9946,-4.1336,-4.2556,-4.2126,-4.1745,-4.1624,-4.0296,-3.957,-3.9521,-3.9575,-3.9712,-3.9867,-3.9996,-4.0099,-4.0196,-4.027,-4.0219,-4.0192,-3.9835,-3.947,-3.8983,-3.7976,-3.7836,-3.8092,-3.8317,-3.8463,-3.875,-3.9337,-3.977,-3.9647,-3.9481,-3.8676,-3.7852,-3.7537,-3.7275,-3.7259,-3.7219,-3.7367,-3.7842,-3.8474,-3.8324,-3.797,-3.7753,-3.757,-3.7255,-3.6881,-3.6405,-3.6052,-3.6235,-3.6115,-3.5181,-3.4742,-3.4759,-3.4589,-3.4205,-3.4089,-3.4128,-3.4037,-3.3872,-2.6118,-2.6412,-2.7038,-2.7761,-2.8419,-2.8312,-2.8903,-2.9814,-3.002,-3.0148,-3.0227,-3.1287,-3.1943,-3.245,-3.3224,-3.3767,-3.4118,-3.4201,-3.425,-3.43,-3.4382,-3.4399,-3.4349,-3.4349,-3.4399,-3.43,-3.425,-3.425,-3.4151,-3.43,-3.4415,-3.4562,-3.4739,-3.4899,-3.5105,-3.5337,-3.5639,-3.5888,-3.614,-3.6594,-3.7078,-3.7211,-3.7521,-3.782,-3.7953,-3.7882,-3.7967,-3.8054,-3.807,-3.8153,-3.8285,-3.8368,-3.8465,-3.8578,-3.8701,-3.9386,-4.0748,-4.2166,-4.3263,-4.2464,-4.1846,-4.1518,-4.0338,-3.9733,-3.957,-3.967,-3.9826,-3.9975,-4.0099,-4.0158,-4.0233,-4.0149,-4.0073,-3.9813,-3.9451,-3.9085,-3.8734,-3.8405,-3.8435,-3.8619,-3.8827,-3.9081,-3.9463,-3.9993,-4.0076,-3.9604,-3.9286,-3.8848,-3.8132,-3.7855,-3.7628,-3.7579,-3.7533,-3.7501,-3.8059,-3.8796,-3.8796,-3.8348,-3.7972,-3.7749,-3.7413,-3.7053,-3.6646,-3.6396,-3.6541,-3.6099,-3.4971,-3.4494,-3.4423,-3.4252,-3.4421,-3.4028,-3.4081,-3.416,-3.4091,-2.6347,-2.657,-2.7291,-2.7746,-2.8009,-2.8626,-2.9447,-3.0371,-3.0416,-3.064,-3.1198,-3.162,-3.2127,-3.2551,-3.2825,-3.3407,-3.3745,-3.3899,-3.405,-3.4151,-3.4284,-3.43,-3.425,-3.425,-3.43,-3.43,-3.425,-3.4084,-3.4201,-3.43,-3.4448,-3.4643,-3.4739,-3.4994,-3.5182,-3.5412,-3.5667,-3.5932,-3.6165,-3.6661,-3.7073,-3.7185,-3.76,-3.788,-3.799,-3.7951,-3.8122,-3.8189,-3.8204,-3.8285,-3.8396,-3.8478,-3.8496,-3.8726,-3.908,-4.0674,-4.1479,-4.2124,-4.3015,-4.2501,-4.174,-4.1236,-4.0228,-3.9844,-3.9731,-3.9826,-3.9956,-4.0078,-4.0196,-4.0271,-4.0245,-4.0153,-4.0102,-3.9908,-3.9518,-3.9083,-3.8797,-3.8832,-3.8926,-3.9418,-3.9627,-3.9664,-4.0063,-4.0062,-4.0025,-3.9461,-3.8979,-3.8591,-3.8227,-3.786,-3.7472,-3.7362,-3.7622,-3.7507,-3.8204,-3.8958,-3.8882,-3.8738,-3.8112,-3.7583,-3.7262,-3.6914,-3.6745,-3.6531,-3.6296,-3.5546,-3.45,-3.4351,-3.4602,-3.5018,-3.5162,-3.4527,-3.4076,-3.428,-3.4503,-2.6329,-2.6567,-2.7537,-2.8239,-2.881,-2.9256,-2.9962,-3.0647,-3.0767,-3.107,-3.1499,-3.2013,-3.2421,-3.2641,-3.2861,-3.3208,-3.371,-3.3694,-3.3848,-3.4101,-3.4201,-3.425,-3.425,-3.4151,-3.4084,-3.4151,-3.4101,-3.3933,-3.4101,-3.43,-3.4448,-3.4691,-3.4835,-3.5041,-3.5274,-3.5503,-3.5711,-3.5975,-3.6285,-3.6676,-3.6998,-3.7246,-3.7589,-3.799,-3.8079,-3.8088,-3.8256,-3.8322,-3.8368,-3.8382,-3.846,-3.8541,-3.8621,-3.8877,-3.9727,-4.1107,-4.1707,-4.2296,-4.2931,-4.2524,-4.1713,-4.0979,-4.0217,-3.9932,-3.9867,-3.9975,-4.0078,-4.0158,-4.0289,-4.0375,-4.0284,-4.0188,-4.0179,-4.0173,-3.9675,-3.9188,-3.9169,-3.9209,-3.9666,-4.0253,-4.0386,-4.0324,-4.0335,-4.0237,-3.9857,-3.9103,-3.8494,-3.8112,-3.7735,-3.7375,-3.685,-3.6497,-3.7044,-3.7467,-3.818,-3.8508,-3.8238,-3.7865,-3.7277,-3.6862,-3.6822,-3.6942,-3.6881,-3.6386,-3.577,-3.5076,-3.4513,-3.4792,-3.5073,-3.5502,-3.5745,-3.5321,-3.4933,-3.4939,-3.5128,-2.6322,-2.6474,-2.7831,-2.9112,-3.0201,-3.0054,-3.0166,-3.0633,-3.099,-3.1304,-3.1571,-3.2505,-3.2902,-3.2839,-3.2926,-3.3118,-3.3382,-3.3435,-3.3694,-3.4101,-3.425,-3.43,-3.4201,-3.405,-3.4,-3.3915,-3.3864,-3.3848,-3.3949,-3.4151,-3.4497,-3.4691,-3.4851,-3.5041,-3.5291,-3.5594,-3.5844,-3.6062,-3.6429,-3.6858,-3.7416,-3.768,-3.7806,-3.8438,-3.8382,-3.8153,-3.8271,-3.8368,-3.8433,-3.8446,-3.851,-3.859,-3.8792,-3.918,-4.0232,-4.1194,-4.1941,-4.235,-4.2693,-4.2396,-4.1644,-4.0944,-4.0299,-4.0006,-3.9977,-4.0058,-4.0139,-4.0366,-4.0547,-4.0611,-4.0554,-4.05,-4.0467,-4.0266,-3.9868,-3.9765,-3.995,-3.9995,-4.0233,-4.0698,-4.0798,-4.0647,-4.0023,-3.9838,-3.9123,-3.8482,-3.7771,-3.7347,-3.7132,-3.6762,-3.6439,-3.5921,-3.6563,-3.7112,-3.7194,-3.7424,-3.725,-3.6858,-3.6404,-3.6559,-3.6819,-3.6952,-3.7075,-3.6352,-3.5609,-3.5254,-3.4921,-3.522,-3.5559,-3.6006,-3.6144,-3.6014,-3.5892,-3.5838,-3.5796,-2.7217,-2.7458,-2.8743,-2.9633,-3.0054,-2.9913,-2.9774,-2.9763,-3.0975,-3.1772,-3.2394,-3.2887,-3.3102,-3.2926,-3.2726,-3.278,-3.2873,-3.3208,-3.3419,-3.3848,-3.4151,-3.4349,-3.425,-3.4101,-3.4016,-3.3949,-3.3899,-3.3949,-3.4201,-3.4399,-3.4594,-3.4851,-3.5041,-3.5228,-3.5383,-3.5728,-3.6019,-3.6191,-3.6602,-3.6898,-3.7255,-3.7488,-3.77,-3.8062,-3.8036,-3.8219,-3.8336,-3.8446,-3.8528,-3.8609,-3.8701,-3.8792,-3.8958,-3.9676,-4.0588,-4.1642,-4.2352,-4.2581,-4.2415,-4.2153,-4.1448,-4.0594,-4.0022,-4.0015,-4.0021,-4.01,-4.0291,-4.0551,-4.0729,-4.0804,-4.0833,-4.0771,-4.0679,-4.0374,-4.0132,-4.0407,-4.0672,-4.0759,-4.0836,-4.0957,-4.1081,-4.0608,-3.9916,-3.922,-3.8416,-3.7577,-3.6658,-3.6153,-3.6187,-3.6018,-3.6084,-3.5823,-3.6311,-3.6685,-3.6612,-3.6514,-3.6434,-3.6213,-3.5817,-3.6197,-3.6738,-3.6885,-3.6868,-3.6173,-3.5504,-3.5203,-3.5192,-3.5642,-3.601,-3.657,-3.6803,-3.6761,-3.6942,-3.6942,-3.6754,-2.7968,-2.8246,-2.9087,-2.9741,-3.0081,-2.987,-2.9681,-2.9758,-3.0847,-3.166,-3.2235,-3.2927,-3.3171,-3.2873,-3.2602,-3.2437,-3.2602,-3.2996,-3.3419,-3.3797,-3.4151,-3.4399,-3.4349,-3.425,-3.425,-3.4201,-3.4101,-3.4151,-3.4497,-3.4739,-3.4899,-3.5088,-3.5274,-3.5487,-3.5639,-3.6019,-3.6301,-3.6385,-3.6811,-3.7048,-3.7164,-3.7429,-3.7667,-3.7949,-3.8171,-3.8318,-3.8496,-3.859,-3.8683,-3.8946,-3.9183,-3.9143,-3.9499,-4.0309,-4.1194,-4.1809,-4.2318,-4.2603,-4.2228,-4.1774,-4.1198,-4.0344,-3.9975,-4.008,-4.012,-4.0214,-4.0321,-4.0556,-4.0673,-4.0728,-4.0817,-4.0804,-4.084,-4.0684,-4.063,-4.0779,-4.091,-4.0953,-4.0994,-4.1031,-4.0972,-4.0597,-3.9976,-3.9565,-3.8666,-3.7434,-3.6383,-3.5847,-3.5724,-3.5572,-3.5566,-3.5637,-3.6065,-3.607,-3.5863,-3.5783,-3.5772,-3.5493,-3.5306,-3.5644,-3.6101,-3.6546,-3.6603,-3.5932,-3.546,-3.5225,-3.534,-3.5878,-3.6699,-3.7362,-3.75,-3.7561,-3.7724,-3.7812,-3.753,-2.8748,-2.897,-2.9317,-2.9766,-3.0225,-2.9918,-2.9653,-2.9833,-3.0752,-3.1322,-3.1609,-3.2879,-3.3039,-3.2819,-3.2656,-3.2492,-3.2617,-3.3011,-3.3503,-3.3797,-3.425,-3.4399,-3.4497,-3.448,-3.4448,-3.4399,-3.4349,-3.4448,-3.4659,-3.4947,-3.5165,-3.5367,-3.5684,-3.5975,-3.6088,-3.6343,-3.6591,-3.6713,-3.6992,-3.7317,-3.7449,-3.7613,-3.7862,-3.8068,-3.8303,-3.8496,-3.864,-3.875,-3.8822,-3.9158,-3.9597,-3.9713,-4.0179,-4.1017,-4.179,-4.2412,-4.2554,-4.2574,-4.2219,-4.1665,-4.0919,-4.0283,-4.0233,-4.0196,-4.0214,-4.0321,-4.0422,-4.0558,-4.067,-4.0849,-4.0936,-4.1024,-4.1096,-4.0987,-4.1003,-4.1026,-4.1074,-4.1108,-4.1109,-4.11,-4.0844,-4.0513,-4.0169,-3.9752,-3.8673,-3.7436,-3.6605,-3.6183,-3.5798,-3.5586,-3.5495,-3.5474,-3.5624,-3.553,-3.5302,-3.5312,-3.5394,-3.5229,-3.5116,-3.526,-3.554,-3.6232,-3.6379,-3.5715,-3.5335,-3.5328,-3.5662,-3.6179,-3.7038,-3.7842,-3.7954,-3.7887,-3.7975,-3.8029,-3.7998,-2.9606,-3.017,-3.0195,-3.01,-2.9913,-2.977,-2.9592,-2.9635,-3.0784,-3.1306,-3.1602,-3.2494,-3.3081,-3.2973,-3.2881,-3.2703,-3.2547,-3.3065,-3.324,-3.345,-3.4101,-3.4399,-3.4497,-3.4546,-3.4448,-3.4497,-3.4594,-3.4756,-3.4899,-3.5165,-3.5258,-3.5228,-3.5756,-3.5975,-3.5958,-3.6326,-3.6794,-3.6952,-3.7185,-3.7449,-3.7667,-3.7792,-3.7966,-3.8135,-3.8285,-3.8515,-3.8627,-3.8689,-3.8762,-3.9121,-3.9793,-4.0234,-4.0896,-4.1838,-4.2723,-4.2904,-4.3026,-4.2743,-4.2361,-4.1654,-4.0886,-4.0231,-4.0177,-4.0233,-4.0285,-4.0386,-4.0558,-4.0853,-4.1036,-4.1369,-4.1488,-4.1625,-4.1661,-4.1242,-4.1081,-4.1074,-4.1111,-4.109,-4.1091,-4.1039,-4.0914,-4.0663,-4.0471,-3.9682,-3.8473,-3.7332,-3.6349,-3.5913,-3.5669,-3.5545,-3.5441,-3.5398,-3.5369,-3.5308,-3.5229,-3.5181,-3.5188,-3.5002,-3.4964,-3.52,-3.5597,-3.6194,-3.6155,-3.5826,-3.5699,-3.5697,-3.6084,-3.6479,-3.7007,-3.7715,-3.8044,-3.8156,-3.8192,-3.8174,-3.814]}]]